Darstellungsparameter: Aktuell verwendete Einstellungen:
Skalierung der Graphiken ... ?
xyx+y,   Skalierungsfaktor:      Skalierung: Modus: x, Faktor: 1
Darstellungszeitraum ... ?
Vom - - bis: - -   Zeitraum: 21.04.2017 - 20.04.2020
Min/Max/Avg-Anzeige ... ?
Zeige MMA aktuell
Zeige MMA Monat
Zeige MMA alles
Zeige --A aktuell
Zeige --A Monat
Zeige --A alles
Keine MMA-Anzeige
MMA:
Keine MMA-Graphiken
MMA-Basis: 21.04.2017 - 20.04.2020
Quicknavigation für Darstellung... ?
Tage:      1T, 2T, 3T, 5T -1T -2T -3T -5T +1T +2T +3T +5T
Wochen: 1W, 2W, 3W -1W -2W -3W +1W +2W +3W
Monate: 1M, 3M, 6M -1M -3M -6M +1M +3M +6M
Jahre:    1J, 3J, 5J, 10J -1J -3J -5J -10J +1J +3J +5J +10J
Nutze für die Darstellung ... ?
Originaldaten oder Mittelwerte auf ...
Stundenbasis Tagesbasis Wochenbasis
Monatsbasis Jahresbasis      Datenbasis: Original-Daten
Darstellen als:
Statistik (Auto) Statistik J:M      Darstellung:
Zur Graphik,    zurück zur Übersicht aller Sensoren.
 
Tabellarische Datenbersicht: ?
 
Sensor: Nr:Datum:Temp:Feuchte:
Aussen-T/F 1 21-04-2017 00:06:17 4 C 20 %
2 21-04-2017 00:18:17 3.3 C 20 %
3 21-04-2017 00:30:17 2.5 C 20 %
4 21-04-2017 00:42:17 2.5 C 20 %
5 21-04-2017 00:54:17 2.4 C 20 %
6 21-04-2017 01:06:17 2.4 C 20 %
7 21-04-2017 01:18:17 2.2 C 20 %
8 21-04-2017 01:30:17 2.1 C 20 %
9 21-04-2017 01:42:18 2.1 C 20 %
10 21-04-2017 01:54:17 2.1 C 20 %
11 21-04-2017 02:06:17 2.2 C 20 %
12 21-04-2017 02:18:17 2.1 C 20 %
13 21-04-2017 02:30:17 1.7 C 20 %
14 21-04-2017 02:42:17 1.7 C 20 %
15 21-04-2017 02:54:17 1.7 C 20 %
16 21-04-2017 03:06:17 0.7 C 20 %
17 21-04-2017 03:18:17 0.7 C 20 %
18 21-04-2017 03:30:17 0.1 C 20 %
19 21-04-2017 03:42:17 0.1 C 20 %
20 21-04-2017 03:54:17 0.3 C 21 %
21 21-04-2017 04:06:17 -0.2 C 21 %
22 21-04-2017 04:18:17 -0.3 C 23 %
23 21-04-2017 04:30:17 -0.5 C 26 %
24 21-04-2017 04:42:17 -0.5 C 26 %
25 21-04-2017 04:54:17 -0.5 C 26 %
Sensor: Nr:Datum:Temp:Feuchte:
Aussen-T/F 26 21-04-2017 05:06:17 -0.5 C 26 %
27 21-04-2017 05:18:17 -0.5 C 26 %
28 21-04-2017 05:30:17 -0.5 C 26 %
29 21-04-2017 05:42:17 -0.5 C 26 %
30 21-04-2017 05:54:17 -1.1 C 31 %
31 21-04-2017 06:06:17 -1.3 C 31 %
32 21-04-2017 06:18:17 -1.5 C 31 %
33 21-04-2017 06:30:17 -1.3 C 32 %
34 21-04-2017 06:42:17 -1.3 C 33 %
35 21-04-2017 06:54:17 -1.2 C 34 %
36 21-04-2017 07:06:17 -1.2 C 34 %
37 21-04-2017 07:18:17 -1.2 C 34 %
38 21-04-2017 07:30:17 -1.2 C 34 %
39 21-04-2017 07:42:17 -0.8 C 35 %
40 21-04-2017 07:54:17 -0.3 C 36 %
41 21-04-2017 08:06:17 -0.1 C 35 %
42 21-04-2017 08:18:17 0.1 C 35 %
43 21-04-2017 08:30:17 0.5 C 34 %
44 21-04-2017 08:42:17 1.2 C 32 %
45 21-04-2017 08:54:17 2.5 C 29 %
46 21-04-2017 09:06:18 3.3 C 21 %
47 21-04-2017 09:18:17 3.6 C 20 %
48 21-04-2017 09:30:17 3.9 C 20 %
49 21-04-2017 09:42:17 4.9 C 20 %
50 21-04-2017 09:54:17 7 C 20 %
Sensor: Nr:Datum:Temp:Feuchte:
Aussen-T/F 51 21-04-2017 10:06:17 8.3 C 20 %
52 21-04-2017 10:18:16 9.3 C 20 %
53 21-04-2017 10:30:17 10.9 C 20 %
54 21-04-2017 10:42:17 11.9 C 20 %
55 21-04-2017 10:54:17 12.5 C 20 %
56 21-04-2017 11:06:17 12.7 C 20 %
57 21-04-2017 11:18:16 12.1 C 20 %
58 21-04-2017 11:30:17 11.9 C 20 %
59 21-04-2017 11:42:17 12.1 C 20 %
60 21-04-2017 11:54:16 13.2 C 20 %
61 21-04-2017 12:06:17 14 C 20 %
62 21-04-2017 12:18:17 14.3 C 20 %
63 21-04-2017 12:30:17 14.2 C 20 %
64 21-04-2017 12:42:17 14.3 C 20 %
65 21-04-2017 12:54:17 14.6 C 20 %
66 21-04-2017 13:06:17 15 C 20 %
67 21-04-2017 13:18:18 15.5 C 20 %
68 21-04-2017 13:30:17 15 C 20 %
69 21-04-2017 13:42:17 14.1 C 20 %
70 21-04-2017 13:54:17 13.6 C 20 %
71 21-04-2017 14:06:17 13.3 C 20 %
72 21-04-2017 14:18:17 12.9 C 20 %
73 21-04-2017 14:30:17 12.9 C 20 %
74 21-04-2017 14:42:17 13.2 C 20 %
75 21-04-2017 14:54:17 13.3 C 20 %
Sensor: Nr:Datum:Temp:Feuchte:
Aussen-T/F 76 21-04-2017 15:06:17 13.1 C 20 %
77 21-04-2017 15:18:17 14.9 C 20 %
78 21-04-2017 15:30:17 16.3 C 20 %
79 21-04-2017 15:42:17 15.8 C 20 %
80 21-04-2017 15:54:17 15.7 C 20 %
81 21-04-2017 16:06:18 15.2 C 20 %
82 21-04-2017 16:18:17 15.8 C 20 %
83 21-04-2017 16:30:17 16.4 C 20 %
84 21-04-2017 16:42:17 16.7 C 20 %
85 21-04-2017 16:54:17 17.2 C 20 %
86 21-04-2017 17:06:17 17.1 C 20 %
87 21-04-2017 17:18:17 15.8 C 20 %
88 21-04-2017 17:30:18 14.8 C 20 %
89 21-04-2017 17:42:18 14.5 C 20 %
90 21-04-2017 17:54:17 15.2 C 20 %
91 21-04-2017 18:06:17 15.8 C 20 %
92 21-04-2017 18:18:17 16 C 20 %
93 21-04-2017 18:30:17 16.2 C 20 %
94 21-04-2017 18:42:17 17.5 C 20 %
95 21-04-2017 18:54:17 15.9 C 20 %
96 21-04-2017 19:06:17 14.3 C 20 %
97 21-04-2017 19:18:17 13.3 C 20 %
98 21-04-2017 19:30:17 12.6 C 20 %
99 21-04-2017 19:42:17 12.2 C 20 %
100 21-04-2017 19:54:17 11.8 C 20 %
Sensor: Nr:Datum:Temp:Feuchte:
Aussen-T/F 101 21-04-2017 20:06:17 11.5 C 20 %
102 21-04-2017 20:18:17 11.2 C 20 %
103 21-04-2017 20:30:17 11.8 C 20 %
104 21-04-2017 20:42:17 11.4 C 20 %
105 21-04-2017 20:54:17 11.1 C 20 %
106 21-04-2017 21:06:18 11.2 C 20 %
107 21-04-2017 21:18:17 11.3 C 20 %
108 21-04-2017 21:30:17 11.4 C 20 %
109 21-04-2017 21:42:17 11.2 C 20 %
110 21-04-2017 21:54:17 11.3 C 20 %
111 21-04-2017 22:06:17 11.7 C 20 %
112 21-04-2017 22:18:17 11.9 C 20 %
113 21-04-2017 22:30:17 11.7 C 20 %
114 21-04-2017 22:42:17 11.8 C 20 %
115 21-04-2017 22:54:17 11.5 C 20 %
116 21-04-2017 23:06:17 11 C 20 %
117 21-04-2017 23:18:17 11.1 C 20 %
118 21-04-2017 23:32:16 11.2 C 20 %
119 21-04-2017 23:44:16 11.2 C 20 %
120 21-04-2017 23:56:16 11.2 C 20 %
121 22-04-2017 00:08:16 11.2 C 20 %
122 22-04-2017 00:20:16 11.1 C 20 %
123 22-04-2017 00:32:16 11.1 C 20 %
124 22-04-2017 00:44:16 11 C 20 %
125 22-04-2017 00:56:16 10.7 C 20 %
Sensor: Nr:Datum:Temp:Feuchte:
Aussen-T/F 126 22-04-2017 01:08:16 10.1 C 20 %
127 22-04-2017 01:20:16 10.2 C 20 %
128 22-04-2017 01:32:16 10.6 C 20 %
129 22-04-2017 01:44:16 10.5 C 20 %
130 22-04-2017 01:56:16 10.4 C 20 %
131 22-04-2017 02:08:16 10.2 C 20 %
132 22-04-2017 02:20:16 10 C 20 %
133 22-04-2017 02:32:17 10 C 20 %
134 22-04-2017 02:44:17 9.9 C 20 %
135 22-04-2017 02:56:17 9.9 C 20 %
136 22-04-2017 03:08:17 9.8 C 20 %
137 22-04-2017 03:20:17 9.6 C 20 %
138 22-04-2017 03:32:17 9.5 C 20 %
139 22-04-2017 03:44:17 9.5 C 20 %
140 22-04-2017 03:56:17 9.4 C 20 %
141 22-04-2017 04:08:17 9.2 C 20 %
142 22-04-2017 04:20:17 9.1 C 20 %
143 22-04-2017 04:32:17 9 C 20 %
144 22-04-2017 04:44:17 9.1 C 20 %
145 22-04-2017 04:56:17 9 C 20 %
146 22-04-2017 05:08:17 9 C 20 %
147 22-04-2017 05:20:17 8.8 C 20 %
148 22-04-2017 05:32:17 8.8 C 20 %
149 22-04-2017 05:44:17 8.8 C 20 %
150 22-04-2017 05:56:17 8.9 C 20 %
Sensor: Nr:Datum:Temp:Feuchte:
Aussen-T/F 151 22-04-2017 06:08:17 9 C 20 %
152 22-04-2017 06:20:17 9 C 20 %
153 22-04-2017 06:32:17 9 C 20 %
154 22-04-2017 06:44:17 9.2 C 20 %
155 22-04-2017 06:56:17 9.5 C 20 %
156 22-04-2017 07:08:17 9.6 C 20 %
157 22-04-2017 07:20:18 9.7 C 20 %
158 22-04-2017 07:32:18 9.9 C 20 %
159 22-04-2017 07:44:18 9.9 C 20 %
160 22-04-2017 07:56:18 10.2 C 20 %
161 22-04-2017 08:08:18 10.2 C 20 %
162 22-04-2017 08:20:18 10.3 C 20 %
163 22-04-2017 08:32:18 10.2 C 20 %
164 22-04-2017 08:44:18 10.2 C 20 %
165 22-04-2017 08:56:18 8.9 C 20 %
166 22-04-2017 09:08:18 8.4 C 20 %
167 22-04-2017 09:20:18 8.3 C 20 %
168 22-04-2017 09:32:18 8.2 C 20 %
169 22-04-2017 09:44:18 8.6 C 20 %
170 22-04-2017 09:56:18 8.6 C 20 %
171 22-04-2017 10:08:18 8.1 C 20 %
172 22-04-2017 10:20:18 8 C 20 %
173 22-04-2017 10:32:18 7.5 C 20 %
174 22-04-2017 10:44:18 7.7 C 20 %
175 22-04-2017 10:56:18 8 C 20 %
Sensor: Nr:Datum:Temp:Feuchte:
Aussen-T/F 176 22-04-2017 11:08:18 8.9 C 20 %
177 22-04-2017 11:20:18 9.2 C 20 %
178 22-04-2017 11:32:18 9.5 C 20 %
179 22-04-2017 11:44:18 10.4 C 20 %
180 22-04-2017 11:56:19 11.1 C 20 %
181 22-04-2017 12:08:19 11.7 C 20 %
182 22-04-2017 12:20:19 11.1 C 20 %
183 22-04-2017 12:32:19 11.5 C 20 %
184 22-04-2017 12:44:19 11.3 C 20 %
185 22-04-2017 12:56:19 10.5 C 20 %
186 22-04-2017 13:08:19 10.2 C 20 %
187 22-04-2017 13:20:19 10.1 C 20 %
188 22-04-2017 13:32:19 10.2 C 20 %
189 22-04-2017 13:44:19 10.7 C 20 %
190 22-04-2017 13:56:19 10.8 C 20 %
191 22-04-2017 14:08:19 10.6 C 20 %
192 22-04-2017 14:20:19 10.3 C 20 %
193 22-04-2017 14:32:19 11.6 C 20 %
194 22-04-2017 14:44:19 12 C 20 %
195 22-04-2017 14:56:19 13.2 C 20 %
196 22-04-2017 15:08:19 13 C 20 %
197 22-04-2017 15:20:19 11.5 C 20 %
198 22-04-2017 15:32:19 11.9 C 20 %
199 22-04-2017 15:44:19 13.3 C 20 %
200 22-04-2017 15:56:19 11.7 C 20 %
Sensor: Nr:Datum:Temp:Feuchte:
Aussen-T/F 201 22-04-2017 16:08:16 11.8 C 20 %
202 22-04-2017 16:20:17 12.2 C 20 %
203 22-04-2017 16:32:16 13.1 C 20 %
204 22-04-2017 16:44:16 13.9 C 20 %
205 22-04-2017 16:56:17 13 C 20 %
206 22-04-2017 17:08:16 12.4 C 20 %
207 22-04-2017 17:20:16 12.3 C 20 %
208 22-04-2017 17:32:16 11.6 C 20 %
209 22-04-2017 17:44:16 11.3 C 20 %
210 22-04-2017 17:56:16 11.4 C 20 %
211 22-04-2017 18:08:16 11 C 20 %
212 22-04-2017 18:20:17 11 C 20 %
213 22-04-2017 18:32:16 11.2 C 20 %
214 22-04-2017 18:44:16 11.6 C 20 %
215 22-04-2017 18:56:16 10.8 C 20 %
216 22-04-2017 19:08:16 10.4 C 20 %
217 22-04-2017 19:20:17 10.1 C 20 %
218 22-04-2017 19:32:16 9.8 C 20 %
219 22-04-2017 19:44:16 9.6 C 20 %
220 22-04-2017 19:56:17 9.4 C 20 %
221 22-04-2017 20:08:16 9.3 C 20 %
222 22-04-2017 20:20:16 9 C 20 %
223 22-04-2017 20:32:17 8.9 C 20 %
224 22-04-2017 20:44:17 8.7 C 20 %
225 22-04-2017 20:56:16 8.7 C 20 %
Sensor: Nr:Datum:Temp:Feuchte:
Aussen-T/F 226 22-04-2017 21:08:16 8.6 C 20 %
227 22-04-2017 21:20:16 8.4 C 20 %
228 22-04-2017 21:32:16 8.4 C 20 %
229 22-04-2017 21:44:16 8.3 C 20 %
230 22-04-2017 21:56:16 8.2 C 20 %
231 22-04-2017 22:08:16 8.2 C 20 %
232 22-04-2017 22:20:16 8.1 C 20 %
233 22-04-2017 22:32:16 7.7 C 20 %
234 22-04-2017 22:44:16 7.6 C 20 %
235 22-04-2017 22:56:16 7.5 C 20 %
236 22-04-2017 23:08:17 7.4 C 20 %
237 22-04-2017 23:20:16 7.3 C 20 %
238 22-04-2017 23:32:16 7.1 C 20 %
239 22-04-2017 23:44:16 6.8 C 20 %
240 22-04-2017 23:56:16 6.6 C 20 %
241 23-04-2017 00:08:16 6.5 C 20 %
242 23-04-2017 00:20:16 6.5 C 20 %
243 23-04-2017 00:32:16 6.4 C 20 %
244 23-04-2017 00:44:16 6 C 20 %
245 23-04-2017 00:56:16 5.7 C 20 %
246 23-04-2017 01:08:16 5 C 20 %
247 23-04-2017 01:20:16 4.8 C 20 %
248 23-04-2017 01:32:16 4.9 C 20 %
249 23-04-2017 01:44:17 5 C 20 %
250 23-04-2017 01:56:16 4.7 C 20 %
Sensor: Nr:Datum:Temp:Feuchte:
Aussen-T/F 251 23-04-2017 02:08:16 4.7 C 20 %
252 23-04-2017 02:20:17 4.7 C 20 %
253 23-04-2017 02:32:16 4.6 C 20 %
254 23-04-2017 02:44:16 4.8 C 20 %
255 23-04-2017 02:56:17 4.9 C 20 %
256 23-04-2017 03:08:17 4.7 C 20 %
257 23-04-2017 03:20:17 4.5 C 20 %
258 23-04-2017 03:32:17 4.4 C 20 %
259 23-04-2017 03:44:17 4.2 C 20 %
260 23-04-2017 03:56:17 4.3 C 20 %
261 23-04-2017 04:08:17 4 C 20 %
262 23-04-2017 04:20:17 4.2 C 20 %
263 23-04-2017 04:32:17 4.1 C 20 %
264 23-04-2017 04:44:17 3.9 C 20 %
265 23-04-2017 04:56:17 3.3 C 20 %
266 23-04-2017 05:08:17 2.9 C 20 %
267 23-04-2017 05:20:17 2.8 C 20 %
268 23-04-2017 05:32:17 2.9 C 20 %
269 23-04-2017 05:44:17 2.5 C 20 %
270 23-04-2017 05:56:17 2.5 C 20 %
271 23-04-2017 06:08:17 2 C 20 %
272 23-04-2017 06:20:17 1.7 C 23 %
273 23-04-2017 06:32:17 2.1 C 26 %
274 23-04-2017 06:44:17 2.2 C 25 %
275 23-04-2017 06:56:17 2.4 C 27 %
Sensor: Nr:Datum:Temp:Feuchte:
Aussen-T/F 276 23-04-2017 07:08:17 2.3 C 25 %
277 23-04-2017 07:20:17 2.1 C 25 %
278 23-04-2017 07:32:17 2.1 C 27 %
279 23-04-2017 07:44:17 2.6 C 30 %
280 23-04-2017 07:56:17 3.5 C 30 %
281 23-04-2017 08:08:17 4.2 C 26 %
282 23-04-2017 08:20:17 4.8 C 20 %
283 23-04-2017 08:32:17 4.8 C 20 %
284 23-04-2017 08:44:17 5.7 C 20 %
285 23-04-2017 08:56:17 6.7 C 20 %
286 23-04-2017 09:08:17 7.1 C 20 %
287 23-04-2017 09:20:17 7.1 C 20 %
288 23-04-2017 09:32:17 7.8 C 20 %
289 23-04-2017 09:44:17 8 C 20 %
290 23-04-2017 09:56:17 7.7 C 20 %
291 23-04-2017 10:08:17 8.7 C 20 %
292 23-04-2017 10:20:17 8.9 C 20 %
293 23-04-2017 10:32:17 8.8 C 20 %
294 23-04-2017 10:44:17 9.8 C 20 %
295 23-04-2017 10:56:17 10.1 C 20 %
296 23-04-2017 11:08:17 10.1 C 20 %
297 23-04-2017 11:20:17 10.5 C 20 %
298 23-04-2017 11:32:17 10.1 C 20 %
299 23-04-2017 11:44:17 11.1 C 20 %
300 23-04-2017 11:56:17 11 C 20 %
Sensor: Nr:Datum:Temp:Feuchte:
Aussen-T/F 301 23-04-2017 12:08:17 11.1 C 20 %
302 23-04-2017 12:20:17 11.4 C 20 %
303 23-04-2017 12:32:17 11.7 C 20 %
304 23-04-2017 12:44:17 11.7 C 20 %
305 23-04-2017 12:56:17 12.4 C 20 %
306 23-04-2017 13:08:17 11.5 C 20 %
307 23-04-2017 13:20:17 11.5 C 20 %
308 23-04-2017 13:32:17 12.4 C 20 %
309 23-04-2017 13:44:17 11.8 C 20 %
310 23-04-2017 13:56:17 11.8 C 20 %
311 23-04-2017 14:08:17 12.3 C 20 %
312 23-04-2017 14:20:17 13 C 20 %
313 23-04-2017 14:32:17 12.4 C 20 %
314 23-04-2017 14:44:17 13.5 C 20 %
315 23-04-2017 14:56:17 13.8 C 20 %
316 23-04-2017 15:08:17 13.1 C 20 %
317 23-04-2017 15:20:17 13.6 C 20 %
318 23-04-2017 15:32:17 13.7 C 20 %
319 23-04-2017 15:44:17 13.5 C 20 %
320 23-04-2017 15:56:17 13.7 C 20 %
321 23-04-2017 16:08:17 13.3 C 20 %
322 23-04-2017 16:20:17 13 C 20 %
323 23-04-2017 16:32:17 11.6 C 20 %
324 23-04-2017 16:44:17 13.8 C 20 %
325 23-04-2017 16:56:17 15.6 C 20 %
Sensor: Nr:Datum:Temp:Feuchte:
Aussen-T/F 326 23-04-2017 17:08:17 14.5 C 20 %
327 23-04-2017 17:20:17 13.7 C 20 %
328 23-04-2017 17:32:17 15.2 C 20 %
329 23-04-2017 17:44:17 13.8 C 20 %
330 23-04-2017 17:56:17 12.4 C 20 %
331 23-04-2017 18:08:18 12 C 20 %
332 23-04-2017 18:20:17 11.2 C 20 %
333 23-04-2017 18:32:17 10.8 C 20 %
334 23-04-2017 18:44:17 10.9 C 20 %
335 23-04-2017 18:56:17 10.5 C 20 %
336 23-04-2017 19:08:17 10.1 C 20 %
337 23-04-2017 19:20:18 9.9 C 20 %
338 23-04-2017 19:32:17 10 C 20 %
339 23-04-2017 19:44:17 10.2 C 20 %
340 23-04-2017 19:56:17 9.8 C 20 %
341 23-04-2017 20:08:17 9.6 C 20 %
342 23-04-2017 20:20:18 9.3 C 20 %
343 23-04-2017 20:32:17 8.6 C 20 %
344 23-04-2017 20:44:18 8.1 C 20 %
345 23-04-2017 20:56:17 7.4 C 20 %
346 23-04-2017 21:08:17 6.7 C 20 %
347 23-04-2017 21:20:17 5.7 C 20 %
348 23-04-2017 21:32:17 5.5 C 20 %
349 23-04-2017 21:44:17 5.5 C 20 %
350 23-04-2017 21:56:17 4.6 C 20 %
Sensor: Nr:Datum:Temp:Feuchte:
Aussen-T/F 351 23-04-2017 22:08:17 4.4 C 20 %
352 23-04-2017 22:20:17 4.1 C 20 %
353 23-04-2017 22:32:17 3.6 C 20 %
354 23-04-2017 22:44:17 3.4 C 20 %
355 23-04-2017 22:56:17 3.2 C 20 %
356 23-04-2017 23:08:17 3 C 20 %
357 23-04-2017 23:20:17 2.8 C 20 %
358 23-04-2017 23:32:17 2.9 C 20 %
359 23-04-2017 23:44:17 3.4 C 20 %
360 23-04-2017 23:56:17 3.6 C 20 %
361 24-04-2017 00:08:17 3.7 C 20 %
362 24-04-2017 00:20:17 3.6 C 20 %
363 24-04-2017 00:32:17 3.3 C 20 %
364 24-04-2017 00:44:17 2.7 C 20 %
365 24-04-2017 00:56:17 2.3 C 20 %
366 24-04-2017 01:08:17 1.7 C 20 %
367 24-04-2017 01:20:17 1.6 C 23 %
368 24-04-2017 01:32:17 1.3 C 25 %
369 24-04-2017 01:44:17 1 C 26 %
370 24-04-2017 01:56:17 1 C 30 %
371 24-04-2017 02:08:17 0.7 C 30 %
372 24-04-2017 02:20:17 0.4 C 31 %
373 24-04-2017 02:32:17 0.3 C 32 %
374 24-04-2017 02:44:17 0.2 C 33 %
375 24-04-2017 02:56:17 0 C 35 %
Sensor: Nr:Datum:Temp:Feuchte:
Aussen-T/F 376 24-04-2017 03:08:17 0 C 35 %
377 24-04-2017 03:20:17 -0.2 C 35 %
378 24-04-2017 03:32:17 -0.3 C 36 %
379 24-04-2017 03:44:17 -0.3 C 36 %
380 24-04-2017 03:56:17 -0.4 C 37 %
381 24-04-2017 04:08:17 -0.6 C 38 %
382 24-04-2017 04:20:17 -0.7 C 38 %
383 24-04-2017 04:32:17 -0.7 C 38 %
384 24-04-2017 04:44:17 -1 C 38 %
385 24-04-2017 04:56:17 -1.1 C 39 %
386 24-04-2017 05:08:17 -1.1 C 39 %
387 24-04-2017 05:20:17 -1.2 C 40 %
388 24-04-2017 05:32:17 -1.2 C 40 %
389 24-04-2017 05:44:17 -1.3 C 40 %
390 24-04-2017 05:56:17 -1.5 C 40 %
391 24-04-2017 06:08:17 -1.3 C 41 %
392 24-04-2017 06:20:17 -1.3 C 41 %
393 24-04-2017 06:32:17 -1.5 C 41 %
394 24-04-2017 06:44:18 -1.5 C 41 %
395 24-04-2017 06:56:17 -1.5 C 41 %
396 24-04-2017 07:08:17 -1.5 C 41 %
397 24-04-2017 07:20:17 -1.5 C 41 %
398 24-04-2017 07:32:17 -1.5 C 41 %
399 24-04-2017 07:44:17 -1.5 C 41 %
400 24-04-2017 07:56:17 -1.5 C 41 %
Sensor: Nr:Datum:Temp:Feuchte:
Aussen-T/F 401 24-04-2017 08:08:17 -1.5 C 41 %
402 24-04-2017 08:20:17 -1.5 C 41 %
403 24-04-2017 08:32:17 -1.5 C 41 %
404 24-04-2017 08:44:17 -1.5 C 41 %
405 24-04-2017 08:56:17 -1.5 C 41 %
406 24-04-2017 09:08:17 -1.5 C 41 %
407 24-04-2017 09:20:17 -1.5 C 41 %
408 24-04-2017 09:32:17 -1.5 C 41 %
409 24-04-2017 09:44:17 -1.5 C 41 %
410 24-04-2017 09:56:17 -1.5 C 41 %
411 24-04-2017 10:08:17 -1.5 C 41 %
412 24-04-2017 10:20:17 -1.5 C 41 %
413 24-04-2017 10:32:17 -1.5 C 41 %
414 24-04-2017 10:44:17 -1.5 C 41 %
415 24-04-2017 10:56:17 -1.5 C 41 %
416 24-04-2017 11:08:17 12.4 C 20 %
417 24-04-2017 11:20:17 12.4 C 20 %
418 24-04-2017 11:32:17 12.4 C 20 %
419 24-04-2017 11:44:17 12.4 C 20 %
420 24-04-2017 11:56:17 12.4 C 20 %
421 24-04-2017 12:08:17 12.4 C 20 %
422 24-04-2017 12:20:17 12.4 C 20 %
423 24-04-2017 12:32:17 12.4 C 20 %
424 24-04-2017 12:44:17 12.4 C 20 %
425 24-04-2017 12:56:17 12.4 C 20 %
Sensor: Nr:Datum:Temp:Feuchte:
Aussen-T/F 426 24-04-2017 13:08:18 12.4 C 20 %
427 24-04-2017 13:20:18 12.4 C 20 %
428 24-04-2017 13:32:17 12.4 C 20 %
429 24-04-2017 13:44:17 12.4 C 20 %
430 24-04-2017 13:56:17 12.4 C 20 %
431 24-04-2017 14:08:17 12.4 C 20 %
432 24-04-2017 14:20:17 12.4 C 20 %
433 24-04-2017 14:32:17 12.4 C 20 %
434 24-04-2017 14:44:17 12.4 C 20 %
435 24-04-2017 14:56:17 12.4 C 20 %
436 24-04-2017 15:08:18 12.4 C 20 %
437 24-04-2017 15:20:17 12.4 C 20 %
438 24-04-2017 15:32:17 12.4 C 20 %
439 24-04-2017 15:44:17 12.4 C 20 %
440 24-04-2017 15:56:18 12.4 C 20 %
441 24-04-2017 16:08:17 12.4 C 20 %
442 24-04-2017 16:20:17 12.4 C 20 %
443 24-04-2017 16:32:17 12.4 C 20 %
444 24-04-2017 16:44:17 12.4 C 20 %
445 24-04-2017 16:56:17 12.4 C 20 %
446 24-04-2017 17:08:17 12.4 C 20 %
447 24-04-2017 17:20:17 12.4 C 20 %
448 24-04-2017 17:32:17 12.4 C 20 %
449 24-04-2017 17:44:17 12.4 C 20 %
450 24-04-2017 17:56:17 12.4 C 20 %
Sensor: Nr:Datum:Temp:Feuchte:
Aussen-T/F 451 24-04-2017 18:08:17 25.8 C 20 %
452 24-04-2017 18:20:17 22.1 C 20 %
453 24-04-2017 18:32:17 22 C 20 %
454 24-04-2017 18:44:17 20.5 C 20 %
455 24-04-2017 18:56:17 19.5 C 20 %
456 24-04-2017 19:08:17 17.9 C 20 %
457 24-04-2017 19:20:17 17.9 C 20 %
458 24-04-2017 19:32:17 17.9 C 20 %
459 24-04-2017 19:44:17 17.9 C 20 %
460 24-04-2017 19:56:17 17.9 C 20 %
461 24-04-2017 20:08:17 15.2 C 20 %
462 24-04-2017 20:20:17 13.9 C 20 %
463 24-04-2017 20:32:17 12.8 C 20 %
464 24-04-2017 20:44:17 12.5 C 20 %
465 24-04-2017 20:56:17 11 C 20 %
466 24-04-2017 21:08:17 10 C 20 %
467 24-04-2017 21:20:17 9.5 C 20 %
468 24-04-2017 21:32:17 9.2 C 20 %
469 24-04-2017 21:44:17 9 C 20 %
470 24-04-2017 21:56:17 8.5 C 20 %
471 24-04-2017 22:08:17 8 C 20 %
472 24-04-2017 22:20:17 8 C 20 %
473 24-04-2017 22:32:17 8 C 20 %
474 24-04-2017 22:44:17 7.4 C 20 %
475 24-04-2017 22:56:17 7.2 C 20 %
Sensor: Nr:Datum:Temp:Feuchte:
Aussen-T/F 476 24-04-2017 23:08:17 6.9 C 20 %
477 24-04-2017 23:20:18 6.5 C 20 %
478 24-04-2017 23:32:17 6.2 C 20 %
479 24-04-2017 23:44:17 6.2 C 20 %
480 24-04-2017 23:56:17 6 C 20 %
481 25-04-2017 00:08:17 5.9 C 20 %
482 25-04-2017 00:20:17 5.7 C 20 %
483 25-04-2017 00:32:17 5.4 C 20 %
484 25-04-2017 00:44:17 5.3 C 20 %
485 25-04-2017 00:56:17 5.2 C 20 %
486 25-04-2017 01:08:17 5.6 C 20 %
487 25-04-2017 01:20:17 5.8 C 20 %
488 25-04-2017 01:32:17 5.6 C 20 %
489 25-04-2017 01:44:17 5.1 C 20 %
490 25-04-2017 01:56:17 4.7 C 20 %
491 25-04-2017 02:08:17 4.7 C 20 %
492 25-04-2017 02:20:17 4.8 C 20 %
493 25-04-2017 02:32:17 4.7 C 20 %
494 25-04-2017 02:44:17 4.8 C 20 %
495 25-04-2017 02:56:17 5 C 20 %
496 25-04-2017 03:08:17 5.6 C 20 %
497 25-04-2017 03:20:17 6.1 C 20 %
498 25-04-2017 03:32:17 6.3 C 20 %
499 25-04-2017 03:44:17 6.3 C 20 %
500 25-04-2017 03:56:17 6.5 C 20 %
Sensor: Nr:Datum:Temp:Feuchte:
Aussen-T/F 501 25-04-2017 04:08:17 6.4 C 20 %
502 25-04-2017 04:20:17 6.2 C 20 %
503 25-04-2017 04:32:17 6.2 C 20 %
504 25-04-2017 04:44:17 6 C 20 %
505 25-04-2017 04:56:17 5.9 C 20 %
506 25-04-2017 05:08:17 5.9 C 20 %
507 25-04-2017 05:20:17 6.2 C 20 %
508 25-04-2017 05:32:17 5.9 C 20 %
509 25-04-2017 05:44:17 6.6 C 20 %
510 25-04-2017 05:56:17 7 C 20 %
511 25-04-2017 06:08:17 7.4 C 20 %
512 25-04-2017 06:20:17 7.7 C 20 %
513 25-04-2017 06:32:18 7.5 C 20 %
514 25-04-2017 06:44:18 7.4 C 20 %
515 25-04-2017 06:56:17 7.4 C 20 %
516 25-04-2017 07:08:17 7.4 C 20 %
517 25-04-2017 07:20:17 6.2 C 20 %
518 25-04-2017 07:32:17 6.2 C 20 %
519 25-04-2017 07:44:17 6.2 C 20 %
520 25-04-2017 07:56:17 6.2 C 20 %
521 25-04-2017 08:08:17 6.2 C 20 %
522 25-04-2017 08:20:17 6.2 C 20 %
523 25-04-2017 08:32:17 6.2 C 20 %
524 25-04-2017 08:44:17 6.2 C 20 %
525 25-04-2017 08:56:17 6.2 C 20 %
Sensor: Nr:Datum:Temp:Feuchte:
Aussen-T/F 526 25-04-2017 09:08:17 6.2 C 20 %
527 25-04-2017 09:20:17 6.2 C 20 %
528 25-04-2017 09:32:17 6.2 C 20 %
529 25-04-2017 09:44:17 6.2 C 20 %
530 25-04-2017 09:56:17 6.2 C 20 %
531 25-04-2017 10:08:17 6.2 C 20 %
532 25-04-2017 10:20:17 6.2 C 20 %
533 25-04-2017 10:32:18 6.2 C 20 %
534 25-04-2017 10:44:18 6.2 C 20 %
535 25-04-2017 10:56:17 6.2 C 20 %
536 25-04-2017 11:08:17 6.2 C 20 %
537 25-04-2017 11:20:17 6.2 C 20 %
538 25-04-2017 11:32:17 6.2 C 20 %
539 25-04-2017 11:44:17 6.2 C 20 %
540 25-04-2017 11:56:17 6.2 C 20 %
541 25-04-2017 12:08:17 6.2 C 20 %
542 25-04-2017 12:20:17 6.2 C 20 %
543 25-04-2017 12:32:17 6.2 C 20 %
544 25-04-2017 12:44:17 6.2 C 20 %
545 25-04-2017 12:56:17 6.2 C 20 %
546 25-04-2017 13:14:18 6.2 C 20 %
547 25-04-2017 13:26:17 6.2 C 20 %
548 25-04-2017 13:38:17 6.2 C 20 %
549 25-04-2017 13:50:17 6.2 C 20 %
550 25-04-2017 14:02:18 6.2 C 20 %
Sensor: Nr:Datum:Temp:Feuchte:
Aussen-T/F 551 25-04-2017 14:14:18 6.2 C 20 %
552 25-04-2017 14:26:17 6.2 C 20 %
553 25-04-2017 14:38:18 6.2 C 20 %
554 25-04-2017 14:50:17 6.2 C 20 %
555 25-04-2017 15:02:17 6.2 C 20 %
556 25-04-2017 15:14:17 6.2 C 20 %
557 25-04-2017 15:26:17 6.2 C 20 %
558 25-04-2017 15:38:18 6.2 C 20 %
559 25-04-2017 15:50:17 6.2 C 20 %
560 25-04-2017 16:02:17 6.2 C 20 %
561 25-04-2017 16:14:17 6.2 C 20 %
562 25-04-2017 16:26:17 6.2 C 20 %
563 25-04-2017 16:38:17 6.2 C 20 %
564 25-04-2017 16:50:17 6.2 C 20 %
565 25-04-2017 17:02:18 14.5 C 20 %
566 25-04-2017 17:14:18 14.8 C 20 %
567 25-04-2017 17:26:18 14.8 C 20 %
568 25-04-2017 17:38:17 14.8 C 20 %
569 25-04-2017 17:50:17 14.8 C 20 %
570 25-04-2017 18:02:18 17 C 20 %
571 25-04-2017 18:14:18 13.9 C 20 %
572 25-04-2017 18:26:17 14.8 C 20 %
573 25-04-2017 18:38:17 13.2 C 20 %
574 25-04-2017 18:50:17 13.2 C 20 %
575 25-04-2017 19:02:17 13.2 C 20 %
Sensor: Nr:Datum:Temp:Feuchte:
Aussen-T/F 576 25-04-2017 19:14:17 11.7 C 20 %
577 25-04-2017 19:26:17 10.4 C 20 %
578 25-04-2017 19:38:17 9.8 C 20 %
579 25-04-2017 19:50:17 9.3 C 20 %
580 25-04-2017 20:02:17 8.9 C 20 %
581 25-04-2017 20:14:17 8.5 C 20 %
582 25-04-2017 20:26:17 8.2 C 20 %
583 25-04-2017 20:38:17 8 C 20 %
584 25-04-2017 20:50:17 7.3 C 20 %
585 25-04-2017 21:02:17 7.3 C 20 %
586 25-04-2017 21:14:17 7.3 C 20 %
587 25-04-2017 21:26:17 7 C 20 %
588 25-04-2017 21:38:17 7 C 20 %
589 25-04-2017 21:50:17 6.2 C 20 %
590 25-04-2017 22:02:17 6.2 C 20 %
591 25-04-2017 22:14:17 6.2 C 20 %
592 25-04-2017 22:26:17 6.2 C 20 %
593 25-04-2017 22:38:17 6.2 C 20 %
594 25-04-2017 22:50:17 6.2 C 20 %
595 25-04-2017 23:02:17 6.2 C 20 %
596 25-04-2017 23:14:17 6.2 C 20 %
597 25-04-2017 23:26:17 6.2 C 20 %
598 25-04-2017 23:38:17 4.7 C 20 %
599 25-04-2017 23:50:17 4.7 C 20 %
600 26-04-2017 00:02:17 4.7 C 20 %
Sensor: Nr:Datum:Temp:Feuchte:
Aussen-T/F 601 26-04-2017 00:14:17 4.7 C 20 %
602 26-04-2017 00:26:17 4.7 C 20 %
603 26-04-2017 00:38:17 4.7 C 20 %
604 26-04-2017 00:50:17 4.7 C 20 %
605 26-04-2017 01:02:18 4.7 C 20 %
606 26-04-2017 01:14:18 4.7 C 20 %
607 26-04-2017 01:26:17 4 C 20 %
608 26-04-2017 01:38:17 3.9 C 20 %
609 26-04-2017 01:50:17 3.9 C 20 %
610 26-04-2017 02:02:17 3.9 C 20 %
611 26-04-2017 02:14:18 3.9 C 20 %
612 26-04-2017 02:26:17 3.9 C 20 %
613 26-04-2017 02:38:17 3.9 C 20 %
614 26-04-2017 02:50:17 3.9 C 20 %
615 26-04-2017 03:02:17 3.9 C 20 %
616 26-04-2017 03:14:17 3.1 C 20 %
617 26-04-2017 03:26:17 3.1 C 20 %
618 26-04-2017 03:38:17 3.1 C 20 %
619 26-04-2017 03:50:17 3.3 C 20 %
620 26-04-2017 04:02:17 3.3 C 20 %
621 26-04-2017 04:14:17 3.3 C 20 %
622 26-04-2017 04:26:17 3.3 C 20 %
623 26-04-2017 04:38:17 2.7 C 20 %
624 26-04-2017 04:50:17 2.7 C 20 %
625 26-04-2017 05:02:17 2.7 C 20 %
Sensor: Nr:Datum:Temp:Feuchte:
Aussen-T/F 626 26-04-2017 05:14:17 2.7 C 20 %
627 26-04-2017 05:26:17 2.7 C 20 %
628 26-04-2017 05:38:17 2.6 C 20 %
629 26-04-2017 05:50:17 2.6 C 20 %
630 26-04-2017 06:02:17 2.6 C 20 %
631 26-04-2017 06:14:17 2.6 C 20 %
632 26-04-2017 06:26:17 2.6 C 20 %
633 26-04-2017 06:38:17 2.6 C 20 %
634 26-04-2017 06:50:17 2.6 C 20 %
635 26-04-2017 07:02:17 2 C 25 %
636 26-04-2017 07:14:17 2.5 C 25 %
637 26-04-2017 07:26:17 3 C 25 %
638 26-04-2017 07:38:17 3.3 C 23 %
639 26-04-2017 07:50:17 3.3 C 20 %
640 26-04-2017 08:02:17 3.4 C 20 %
641 26-04-2017 08:14:17 3.6 C 20 %
642 26-04-2017 08:26:17 3.7 C 20 %
643 26-04-2017 08:38:17 3.7 C 20 %
644 26-04-2017 08:50:17 3.5 C 20 %
645 26-04-2017 09:02:17 3.5 C 20 %
646 26-04-2017 09:14:17 3.5 C 20 %
647 26-04-2017 09:26:17 4.8 C 20 %
648 26-04-2017 09:38:17 6.1 C 20 %
649 26-04-2017 09:50:17 7.1 C 20 %
650 26-04-2017 10:02:17 8 C 20 %
Sensor: Nr:Datum:Temp:Feuchte:
Aussen-T/F 651 26-04-2017 10:14:17 8 C 20 %
652 26-04-2017 10:26:17 8 C 20 %
653 26-04-2017 10:38:17 8.5 C 20 %
654 26-04-2017 10:50:17 9.1 C 20 %
655 26-04-2017 11:02:17 11 C 20 %
656 26-04-2017 11:14:17 13.1 C 20 %
657 26-04-2017 11:26:17 15.3 C 20 %
658 26-04-2017 11:38:17 13.9 C 20 %
659 26-04-2017 11:50:17 11.6 C 20 %
660 26-04-2017 12:02:17 10.1 C 20 %
661 26-04-2017 12:14:17 9.7 C 20 %
662 26-04-2017 12:26:17 10.5 C 20 %
663 26-04-2017 12:38:17 10.5 C 20 %
664 26-04-2017 12:50:17 10.5 C 20 %
665 26-04-2017 13:02:17 10.7 C 20 %
666 26-04-2017 13:14:17 11.6 C 20 %
667 26-04-2017 13:26:17 12.9 C 20 %
668 26-04-2017 13:38:17 12.8 C 20 %
669 26-04-2017 13:50:17 12.5 C 20 %
670 26-04-2017 14:02:17 12.3 C 20 %
671 26-04-2017 14:14:17 11.9 C 20 %
672 26-04-2017 14:26:18 12.6 C 20 %
673 26-04-2017 14:38:16 12.6 C 20 %
674 26-04-2017 14:50:17 12.6 C 20 %
675 26-04-2017 15:02:18 12.9 C 20 %
Sensor: Nr:Datum:Temp:Feuchte:
Aussen-T/F 676 26-04-2017 15:14:18 15.3 C 20 %
677 26-04-2017 15:26:17 14.7 C 20 %
678 26-04-2017 15:38:17 14.7 C 20 %
679 26-04-2017 15:50:17 15.9 C 20 %
680 26-04-2017 16:02:17 15.8 C 20 %
681 26-04-2017 16:14:17 15.2 C 20 %
682 26-04-2017 16:26:17 15.7 C 20 %
683 26-04-2017 16:38:17 15.6 C 20 %
684 26-04-2017 16:50:17 14.7 C 20 %
685 26-04-2017 17:02:17 13.8 C 20 %
686 26-04-2017 17:14:17 13.3 C 20 %
687 26-04-2017 17:26:17 13.1 C 20 %
688 26-04-2017 17:38:17 12.8 C 20 %
689 26-04-2017 17:50:17 12.4 C 20 %
690 26-04-2017 18:02:17 12.3 C 20 %
691 26-04-2017 18:14:17 12 C 20 %
692 26-04-2017 18:26:17 11.9 C 20 %
693 26-04-2017 18:38:17 11.6 C 20 %
694 26-04-2017 18:50:17 11.1 C 20 %
695 26-04-2017 19:02:17 11.1 C 20 %
696 26-04-2017 19:14:17 10.5 C 20 %
697 26-04-2017 19:26:17 10.1 C 20 %
698 26-04-2017 19:38:17 9.8 C 20 %
699 26-04-2017 19:50:17 9.3 C 20 %
700 26-04-2017 20:02:17 9 C 20 %
Sensor: Nr:Datum:Temp:Feuchte:
Aussen-T/F 701 26-04-2017 20:14:17 9 C 20 %
702 26-04-2017 20:26:17 9 C 20 %
703 26-04-2017 20:38:17 7.7 C 20 %
704 26-04-2017 20:50:17 7.5 C 20 %
705 26-04-2017 21:02:17 7.5 C 20 %
706 26-04-2017 21:14:17 7.5 C 20 %
707 26-04-2017 21:26:17 7.5 C 20 %
708 26-04-2017 21:38:17 5.8 C 20 %
709 26-04-2017 21:50:17 5.7 C 20 %
710 26-04-2017 22:02:17 5.6 C 20 %
711 26-04-2017 22:14:17 5.7 C 20 %
712 26-04-2017 22:26:17 5.7 C 20 %
713 26-04-2017 22:38:17 5.4 C 20 %
714 26-04-2017 22:50:17 5.3 C 20 %
715 26-04-2017 23:02:17 5.1 C 20 %
716 26-04-2017 23:14:18 5.1 C 20 %
717 26-04-2017 23:26:17 5.5 C 20 %
718 26-04-2017 23:38:17 5.4 C 20 %
719 26-04-2017 23:50:17 4.9 C 20 %
720 27-04-2017 00:02:17 4.5 C 20 %
721 27-04-2017 00:14:17 3.9 C 20 %
722 27-04-2017 00:26:17 3.6 C 20 %
723 27-04-2017 00:38:17 3.8 C 20 %
724 27-04-2017 00:50:17 3.5 C 20 %
725 27-04-2017 01:02:17 3.4 C 20 %
Sensor: Nr:Datum:Temp:Feuchte:
Aussen-T/F 726 27-04-2017 01:14:17 3.3 C 20 %
727 27-04-2017 01:26:17 3.1 C 20 %
728 27-04-2017 01:38:17 3.4 C 20 %
729 27-04-2017 01:50:17 3.1 C 20 %
730 27-04-2017 02:02:17 3.2 C 20 %
731 27-04-2017 02:14:17 2.7 C 20 %
732 27-04-2017 02:26:18 2.7 C 20 %
733 27-04-2017 02:38:17 2.8 C 20 %
734 27-04-2017 02:50:17 2.2 C 20 %
735 27-04-2017 03:02:17 2 C 20 %
736 27-04-2017 03:14:17 1.5 C 23 %
737 27-04-2017 03:26:17 1.4 C 25 %
738 27-04-2017 03:38:17 1.3 C 25 %
739 27-04-2017 03:50:17 1.3 C 28 %
740 27-04-2017 04:02:17 1.2 C 29 %
741 27-04-2017 04:14:17 1 C 30 %
742 27-04-2017 04:26:17 1 C 30 %
743 27-04-2017 04:38:17 0.8 C 31 %
744 27-04-2017 04:50:17 0.4 C 31 %
745 27-04-2017 05:02:17 0.1 C 33 %
746 27-04-2017 05:14:17 0 C 35 %
747 27-04-2017 05:26:17 -0.1 C 36 %
748 27-04-2017 05:38:17 -0.2 C 36 %
749 27-04-2017 05:50:17 -0.3 C 37 %
750 27-04-2017 06:02:17 0 C 39 %
Sensor: Nr:Datum:Temp:Feuchte:
Aussen-T/F 751 27-04-2017 06:14:17 0.4 C 40 %
752 27-04-2017 06:26:17 0.4 C 41 %
753 27-04-2017 06:38:17 0.4 C 41 %
754 27-04-2017 06:50:17 0.4 C 41 %
755 27-04-2017 07:02:17 0.6 C 41 %
756 27-04-2017 07:14:17 0.8 C 41 %
757 27-04-2017 07:26:17 0.7 C 41 %
758 27-04-2017 07:38:17 1.2 C 41 %
759 27-04-2017 07:50:17 1.7 C 41 %
760 27-04-2017 08:02:17 1.8 C 40 %
761 27-04-2017 08:14:17 2 C 38 %
762 27-04-2017 08:26:17 2.5 C 37 %
763 27-04-2017 08:38:17 2.8 C 36 %
764 27-04-2017 08:50:17 3.1 C 34 %
765 27-04-2017 09:02:17 3.5 C 32 %
766 27-04-2017 09:14:17 3.9 C 30 %
767 27-04-2017 09:26:17 4.8 C 26 %
768 27-04-2017 09:38:18 5.6 C 20 %
769 27-04-2017 09:50:17 6 C 20 %
770 27-04-2017 10:02:17 6.9 C 20 %
771 27-04-2017 10:14:17 8 C 20 %
772 27-04-2017 10:26:17 8.5 C 20 %
773 27-04-2017 10:38:17 9.9 C 20 %
774 27-04-2017 10:50:17 9.1 C 20 %
775 27-04-2017 11:02:17 11.3 C 20 %
Sensor: Nr:Datum:Temp:Feuchte:
Aussen-T/F 776 27-04-2017 11:14:17 13.9 C 20 %
777 27-04-2017 11:26:17 13.4 C 20 %
778 27-04-2017 11:38:17 9.9 C 20 %
779 27-04-2017 11:50:17 9.1 C 20 %
780 27-04-2017 12:02:17 9.7 C 20 %
781 27-04-2017 12:14:17 10.9 C 20 %
782 27-04-2017 12:26:17 12.3 C 20 %
783 27-04-2017 12:38:17 11.3 C 20 %
784 27-04-2017 12:50:17 10.7 C 20 %
785 27-04-2017 13:02:17 10.7 C 20 %
786 27-04-2017 13:14:17 11.1 C 20 %
787 27-04-2017 13:26:17 12.5 C 20 %
788 27-04-2017 13:38:17 12.3 C 20 %
789 27-04-2017 13:50:18 12.2 C 20 %
790 27-04-2017 14:02:17 12.6 C 20 %
791 27-04-2017 14:14:17 11.8 C 20 %
792 27-04-2017 14:26:17 13.4 C 20 %
793 27-04-2017 14:38:17 13.9 C 20 %
794 27-04-2017 14:50:17 13.2 C 20 %
795 27-04-2017 15:02:17 14.1 C 20 %
796 27-04-2017 15:14:17 14 C 20 %
797 27-04-2017 15:26:17 14.8 C 20 %
798 27-04-2017 15:38:17 13.9 C 20 %
799 27-04-2017 15:50:17 13.6 C 20 %
800 27-04-2017 16:02:17 13.2 C 20 %
Sensor: Nr:Datum:Temp:Feuchte:
Aussen-T/F 801 27-04-2017 16:14:17 13 C 20 %
802 27-04-2017 16:26:17 13.9 C 20 %
803 27-04-2017 16:38:17 14.2 C 20 %
804 27-04-2017 16:50:17 14.6 C 20 %
805 27-04-2017 17:02:17 15.9 C 20 %
806 27-04-2017 17:14:17 17 C 20 %
807 27-04-2017 17:26:18 21.2 C 20 %
808 27-04-2017 17:38:17 26 C 20 %
809 27-04-2017 17:50:17 18.7 C 20 %
810 27-04-2017 18:02:17 19.3 C 20 %
811 27-04-2017 18:14:17 24.1 C 20 %
812 27-04-2017 18:26:17 24.5 C 20 %
813 27-04-2017 18:38:17 23.5 C 20 %
814 27-04-2017 18:50:17 23.5 C 20 %
815 27-04-2017 19:02:17 21 C 20 %
816 27-04-2017 19:14:17 15.1 C 20 %
817 27-04-2017 19:26:17 13.2 C 20 %
818 27-04-2017 19:38:17 12.2 C 20 %
819 27-04-2017 19:50:17 11.6 C 20 %
820 27-04-2017 20:02:17 10.9 C 20 %
821 27-04-2017 20:14:17 10.2 C 20 %
822 27-04-2017 20:26:18 8.9 C 20 %
823 27-04-2017 20:38:17 7.1 C 20 %
824 27-04-2017 20:50:17 7.6 C 20 %
825 27-04-2017 21:02:17 7.8 C 20 %
Sensor: Nr:Datum:Temp:Feuchte:
Aussen-T/F 826 27-04-2017 21:14:17 7.2 C 20 %
827 27-04-2017 21:26:17 7 C 20 %
828 27-04-2017 21:38:17 6.9 C 20 %
829 27-04-2017 21:50:17 6.1 C 20 %
830 27-04-2017 22:02:17 6.1 C 20 %
831 27-04-2017 22:14:18 5.5 C 20 %
832 27-04-2017 22:26:17 4.7 C 20 %
833 27-04-2017 22:38:17 4.4 C 20 %
834 27-04-2017 22:50:17 4.1 C 20 %
835 27-04-2017 23:02:17 3.8 C 20 %
836 27-04-2017 23:14:17 3.6 C 20 %
837 27-04-2017 23:26:17 3.4 C 20 %
838 27-04-2017 23:38:17 3.4 C 20 %
839 27-04-2017 23:50:17 3.3 C 20 %
840 28-04-2017 00:02:17 3.5 C 20 %
841 28-04-2017 00:14:17 3.3 C 20 %
842 28-04-2017 00:26:17 3 C 20 %
843 28-04-2017 00:38:17 2.8 C 20 %
844 28-04-2017 00:50:17 2.7 C 20 %
845 28-04-2017 01:02:17 2.2 C 20 %
846 28-04-2017 01:14:17 1.9 C 20 %
847 28-04-2017 01:26:17 1.6 C 20 %
848 28-04-2017 01:38:17 1.3 C 20 %
849 28-04-2017 01:50:17 1 C 20 %
850 28-04-2017 02:02:17 0.8 C 21 %
Sensor: Nr:Datum:Temp:Feuchte:
Aussen-T/F 851 28-04-2017 02:14:17 0.6 C 23 %
852 28-04-2017 02:26:18 0.5 C 26 %
853 28-04-2017 02:38:17 0.5 C 28 %
854 28-04-2017 02:50:17 0.4 C 30 %
855 28-04-2017 03:02:17 0.2 C 30 %
856 28-04-2017 03:14:17 0.2 C 31 %
857 28-04-2017 03:26:17 0.1 C 31 %
858 28-04-2017 03:38:17 -0.1 C 32 %
859 28-04-2017 03:50:17 -0.2 C 32 %
860 28-04-2017 04:02:17 -0.4 C 33 %
861 28-04-2017 04:14:17 -0.5 C 34 %
862 28-04-2017 04:26:18 -0.3 C 35 %
863 28-04-2017 04:38:17 -0.5 C 35 %
864 28-04-2017 04:50:17 -0.6 C 36 %
865 28-04-2017 05:02:17 -0.8 C 36 %
866 28-04-2017 05:14:17 -0.8 C 36 %
867 28-04-2017 05:26:17 -0.9 C 36 %
868 28-04-2017 05:38:17 -1 C 36 %
869 28-04-2017 05:50:17 -1.1 C 37 %
870 28-04-2017 06:02:17 -1.2 C 37 %
871 28-04-2017 06:14:17 -1.2 C 37 %
872 28-04-2017 06:26:17 -1.2 C 38 %
873 28-04-2017 06:38:17 -1.2 C 39 %
874 28-04-2017 06:50:17 -1.1 C 39 %
875 28-04-2017 07:02:17 -1.1 C 39 %
Sensor: Nr:Datum:Temp:Feuchte:
Aussen-T/F 876 28-04-2017 07:14:17 -0.9 C 40 %
877 28-04-2017 07:26:16 -0.7 C 40 %
878 28-04-2017 07:38:17 -0.6 C 40 %
879 28-04-2017 07:50:17 -0.4 C 40 %
880 28-04-2017 08:02:17 -0.1 C 40 %
881 28-04-2017 08:14:17 0.3 C 40 %
882 28-04-2017 08:26:17 0.7 C 40 %
883 28-04-2017 08:38:17 1.1 C 37 %
884 28-04-2017 08:50:17 1.6 C 35 %
885 28-04-2017 09:02:17 2.2 C 31 %
886 28-04-2017 09:14:17 2.9 C 25 %
887 28-04-2017 09:26:17 3.7 C 20 %
888 28-04-2017 09:38:17 4.6 C 20 %
889 28-04-2017 09:50:17 5.3 C 20 %
890 28-04-2017 10:02:17 6.3 C 20 %
891 28-04-2017 10:14:17 7.3 C 20 %
892 28-04-2017 10:26:17 7.5 C 20 %
893 28-04-2017 10:38:17 8.7 C 20 %
894 28-04-2017 10:50:17 9.7 C 20 %
895 28-04-2017 11:02:17 10.9 C 20 %
896 28-04-2017 11:14:17 12.1 C 20 %
897 28-04-2017 11:26:17 13 C 20 %
898 28-04-2017 11:38:17 11.7 C 20 %
899 28-04-2017 11:50:17 11.7 C 20 %
900 28-04-2017 12:02:17 10.4 C 20 %
Sensor: Nr:Datum:Temp:Feuchte:
Aussen-T/F 901 28-04-2017 12:14:17 11.8 C 20 %
902 28-04-2017 12:26:17 12.9 C 20 %
903 28-04-2017 12:38:17 12.9 C 20 %
904 28-04-2017 12:50:17 12.7 C 20 %
905 28-04-2017 13:02:17 12.7 C 20 %
906 28-04-2017 13:14:17 12 C 20 %
907 28-04-2017 13:26:18 12.6 C 20 %
908 28-04-2017 13:38:17 12.8 C 20 %
909 28-04-2017 13:50:17 14.2 C 20 %
910 28-04-2017 14:02:17 14.1 C 20 %
911 28-04-2017 14:14:17 14.1 C 20 %
912 28-04-2017 14:26:17 13.5 C 20 %
913 28-04-2017 14:38:17 12.3 C 20 %
914 28-04-2017 14:50:17 11.8 C 20 %
915 28-04-2017 15:02:17 12.5 C 20 %
916 28-04-2017 15:14:17 13.2 C 20 %
917 28-04-2017 15:26:17 13.4 C 20 %
918 28-04-2017 15:38:17 13.8 C 20 %
919 28-04-2017 15:50:17 12.8 C 20 %
920 28-04-2017 16:02:17 11.8 C 20 %
921 28-04-2017 16:14:17 11 C 20 %
922 28-04-2017 16:26:17 11.8 C 20 %
923 28-04-2017 16:38:17 12.3 C 20 %
924 28-04-2017 16:50:17 13.6 C 20 %
925 28-04-2017 17:02:17 13.2 C 20 %
Sensor: Nr:Datum:Temp:Feuchte:
Aussen-T/F 926 28-04-2017 17:14:17 11.7 C 20 %
927 28-04-2017 17:26:17 9.2 C 20 %
928 28-04-2017 17:38:17 8.5 C 20 %
929 28-04-2017 17:50:17 12.1 C 20 %
930 28-04-2017 18:02:17 18.6 C 20 %
931 28-04-2017 18:14:17 17.7 C 20 %
932 28-04-2017 18:26:17 15.7 C 20 %
933 28-04-2017 18:38:17 11.2 C 20 %
934 28-04-2017 18:50:17 10.2 C 20 %
935 28-04-2017 19:02:17 9.8 C 20 %
936 28-04-2017 19:14:17 9.2 C 20 %
937 28-04-2017 19:26:17 8.7 C 25 %
938 28-04-2017 19:38:18 8.4 C 26 %
939 28-04-2017 19:50:17 8.4 C 26 %
940 28-04-2017 20:02:17 8.4 C 26 %
941 28-04-2017 20:14:17 8.4 C 26 %
942 28-04-2017 20:26:18 8.4 C 26 %
943 28-04-2017 20:38:17 8.4 C 26 %
944 28-04-2017 20:50:17 8.4 C 26 %
945 28-04-2017 21:02:17 8.4 C 26 %
946 28-04-2017 21:14:17 5.6 C 36 %
947 28-04-2017 21:26:17 5.6 C 36 %
948 28-04-2017 21:38:18 5.5 C 40 %
949 28-04-2017 21:50:17 5.5 C 40 %
950 28-04-2017 22:02:17 6.1 C 41 %
Sensor: Nr:Datum:Temp:Feuchte:
Aussen-T/F 951 28-04-2017 22:14:17 6 C 41 %
952 28-04-2017 22:26:17 6 C 41 %
953 28-04-2017 22:38:17 6 C 41 %
954 28-04-2017 22:50:18 6 C 41 %
955 28-04-2017 23:02:17 5.6 C 42 %
956 28-04-2017 23:14:18 5.6 C 42 %
957 28-04-2017 23:26:17 5.6 C 43 %
958 28-04-2017 23:38:17 5.6 C 43 %
959 28-04-2017 23:50:17 5.6 C 43 %
960 29-04-2017 00:02:17 5.4 C 43 %
961 29-04-2017 00:14:17 5.4 C 43 %
962 29-04-2017 00:26:17 5.2 C 43 %
963 29-04-2017 00:38:17 5.3 C 44 %
964 29-04-2017 00:50:17 5.3 C 44 %
965 29-04-2017 01:02:17 5.3 C 44 %
966 29-04-2017 01:14:17 5.1 C 44 %
967 29-04-2017 01:26:17 5 C 44 %
968 29-04-2017 01:38:17 4.8 C 45 %
969 29-04-2017 01:50:17 4.9 C 45 %
970 29-04-2017 02:02:18 5 C 45 %
971 29-04-2017 02:14:18 5.1 C 45 %
972 29-04-2017 02:26:17 5.2 C 45 %
973 29-04-2017 02:38:17 5.2 C 45 %
974 29-04-2017 02:50:17 5.1 C 45 %
975 29-04-2017 03:02:17 5.1 C 45 %
Sensor: Nr:Datum:Temp:Feuchte:
Aussen-T/F 976 29-04-2017 03:14:18 5 C 45 %
977 29-04-2017 03:26:17 4.9 C 45 %
978 29-04-2017 03:38:17 4.8 C 45 %
979 29-04-2017 03:50:17 4.7 C 45 %
980 29-04-2017 04:02:17 4 C 43 %
981 29-04-2017 04:14:18 3.5 C 43 %
982 29-04-2017 04:26:17 3.2 C 43 %
983 29-04-2017 04:38:17 3.2 C 44 %
984 29-04-2017 04:50:17 3.4 C 45 %
985 29-04-2017 05:02:17 3.4 C 46 %
986 29-04-2017 05:14:17 2.9 C 45 %
987 29-04-2017 05:26:17 2.6 C 45 %
988 29-04-2017 05:38:17 2.4 C 45 %
989 29-04-2017 05:50:17 2.2 C 46 %
990 29-04-2017 06:02:17 2.3 C 46 %
991 29-04-2017 06:14:17 2.3 C 46 %
992 29-04-2017 06:26:17 2.6 C 49 %
993 29-04-2017 06:38:17 3 C 49 %
994 29-04-2017 06:50:17 3 C 49 %
995 29-04-2017 07:02:17 2.8 C 49 %
996 29-04-2017 07:14:17 2.7 C 48 %
997 29-04-2017 07:26:17 2.8 C 48 %
998 29-04-2017 07:38:17 3.3 C 48 %
999 29-04-2017 07:50:17 3.6 C 49 %
1000 29-04-2017 08:02:17 3.3 C 47 %
Sensor: Nr:Datum:Temp:Feuchte:
Aussen-T/F 1001 29-04-2017 08:14:17 3.1 C 46 %
1002 29-04-2017 08:26:17 3 C 46 %
1003 29-04-2017 08:38:17 3.3 C 46 %
1004 29-04-2017 08:50:17 3.4 C 47 %
1005 29-04-2017 09:02:17 4 C 46 %
1006 29-04-2017 09:14:17 4.3 C 46 %
1007 29-04-2017 09:26:17 4.3 C 46 %
1008 29-04-2017 09:38:17 6.5 C 42 %
1009 29-04-2017 09:50:17 6.5 C 42 %
1010 29-04-2017 10:02:17 8.5 C 20 %
1011 29-04-2017 10:14:17 8.8 C 20 %
1012 29-04-2017 10:26:17 10.5 C 20 %
1013 29-04-2017 10:38:17 10.4 C 20 %
1014 29-04-2017 10:50:17 10.6 C 20 %
1015 29-04-2017 11:02:17 10.7 C 20 %
1016 29-04-2017 11:14:17 10.5 C 20 %
1017 29-04-2017 11:26:17 12.8 C 20 %
1018 29-04-2017 11:38:17 12.5 C 20 %
1019 29-04-2017 11:50:17 11.5 C 20 %
1020 29-04-2017 12:02:17 11.7 C 20 %
1021 29-04-2017 12:14:17 12.3 C 20 %
1022 29-04-2017 12:26:17 11.7 C 20 %
1023 29-04-2017 12:38:17 11.7 C 20 %
1024 29-04-2017 12:50:17 13 C 20 %
1025 29-04-2017 13:02:17 13 C 20 %
Sensor: Nr:Datum:Temp:Feuchte:
Aussen-T/F 1026 29-04-2017 13:14:17 12 C 20 %
1027 29-04-2017 13:26:17 12.5 C 20 %
1028 29-04-2017 13:38:18 12.7 C 20 %
1029 29-04-2017 13:50:17 13.1 C 20 %
1030 29-04-2017 14:02:17 14 C 20 %
1031 29-04-2017 14:14:17 12.6 C 20 %
1032 29-04-2017 14:26:17 12.9 C 20 %
1033 29-04-2017 14:38:17 14 C 20 %
1034 29-04-2017 14:50:17 15.8 C 20 %
1035 29-04-2017 15:02:17 16.3 C 20 %
1036 29-04-2017 15:14:17 15.4 C 20 %
1037 29-04-2017 15:26:17 16.2 C 20 %
1038 29-04-2017 15:38:17 16.6 C 20 %
1039 29-04-2017 15:50:17 16.7 C 20 %
1040 29-04-2017 16:02:17 16.7 C 20 %
1041 29-04-2017 16:14:17 16.7 C 20 %
1042 29-04-2017 16:26:17 16.7 C 20 %
1043 29-04-2017 16:38:17 16.7 C 20 %
1044 29-04-2017 16:50:17 16.7 C 20 %
1045 29-04-2017 17:02:17 16.7 C 20 %
1046 29-04-2017 17:14:17 16.7 C 20 %
1047 29-04-2017 17:26:18 23.5 C 20 %
1048 29-04-2017 17:38:17 23.7 C 20 %
1049 29-04-2017 17:50:17 30.1 C 20 %
1050 29-04-2017 18:02:17 30.2 C 20 %
Sensor: Nr:Datum:Temp:Feuchte:
Aussen-T/F 1051 29-04-2017 18:14:17 30.4 C 20 %
1052 29-04-2017 18:26:17 28.9 C 20 %
1053 29-04-2017 18:38:18 28.7 C 20 %
1054 29-04-2017 18:50:17 28.6 C 20 %
1055 29-04-2017 19:02:17 26.7 C 20 %
1056 29-04-2017 19:14:17 20.1 C 20 %
1057 29-04-2017 19:26:17 15.9 C 20 %
1058 29-04-2017 19:38:17 14.7 C 20 %
1059 29-04-2017 19:50:17 14.2 C 20 %
1060 29-04-2017 20:02:17 13.6 C 20 %
1061 29-04-2017 20:14:17 12.8 C 20 %
1062 29-04-2017 20:26:17 11.6 C 20 %
1063 29-04-2017 20:38:17 10.1 C 20 %
1064 29-04-2017 20:50:17 9.2 C 20 %
1065 29-04-2017 21:02:17 8.2 C 20 %
1066 29-04-2017 21:14:17 7.9 C 20 %
1067 29-04-2017 21:26:17 7.5 C 20 %
1068 29-04-2017 21:38:18 7.2 C 20 %
1069 29-04-2017 21:50:17 6.8 C 20 %
1070 29-04-2017 22:02:17 6.5 C 20 %
1071 29-04-2017 22:14:18 6.1 C 20 %
1072 29-04-2017 22:26:17 5.7 C 20 %
1073 29-04-2017 22:38:17 5.6 C 20 %
1074 29-04-2017 22:50:17 5.3 C 20 %
1075 29-04-2017 23:02:17 5 C 20 %
Sensor: Nr:Datum:Temp:Feuchte:
Aussen-T/F 1076 29-04-2017 23:14:17 4.5 C 20 %
1077 29-04-2017 23:26:17 4.3 C 20 %
1078 29-04-2017 23:38:17 4.1 C 20 %
1079 29-04-2017 23:50:17 4.1 C 20 %
1080 30-04-2017 00:02:17 4.1 C 20 %
1081 30-04-2017 00:14:17 4.2 C 20 %
1082 30-04-2017 00:26:17 4.1 C 20 %
1083 30-04-2017 00:38:18 4 C 20 %
1084 30-04-2017 00:50:17 3.8 C 20 %
1085 30-04-2017 01:02:17 3.7 C 20 %
1086 30-04-2017 01:14:17 3.6 C 20 %
1087 30-04-2017 01:26:17 3.5 C 20 %
1088 30-04-2017 01:38:18 3.4 C 20 %
1089 30-04-2017 01:50:18 3.2 C 20 %
1090 30-04-2017 02:02:17 3.1 C 20 %
1091 30-04-2017 02:14:17 3 C 20 %
1092 30-04-2017 02:26:17 2.9 C 20 %
1093 30-04-2017 02:38:17 2.7 C 20 %
1094 30-04-2017 02:50:17 2.6 C 20 %
1095 30-04-2017 03:02:17 2.7 C 20 %
1096 30-04-2017 03:14:17 2.7 C 20 %
1097 30-04-2017 03:26:17 2.4 C 20 %
1098 30-04-2017 03:38:17 2.4 C 20 %
1099 30-04-2017 03:50:17 2.3 C 20 %
1100 30-04-2017 04:02:17 2.3 C 20 %
Sensor: Nr:Datum:Temp:Feuchte:
Aussen-T/F 1101 30-04-2017 04:14:17 2.1 C 20 %
1102 30-04-2017 04:26:17 2.2 C 20 %
1103 30-04-2017 04:38:17 2.1 C 20 %
1104 30-04-2017 04:50:17 2 C 20 %
1105 30-04-2017 05:02:17 2 C 20 %
1106 30-04-2017 05:14:17 1.7 C 20 %
1107 30-04-2017 05:26:17 1.5 C 20 %
1108 30-04-2017 05:38:17 1.6 C 20 %
1109 30-04-2017 05:50:17 1.4 C 20 %
1110 30-04-2017 06:02:17 1.3 C 20 %
1111 30-04-2017 06:14:17 1.3 C 20 %
1112 30-04-2017 06:26:16 1.4 C 20 %
1113 30-04-2017 06:38:17 1.4 C 20 %
1114 30-04-2017 06:50:17 1.5 C 20 %
1115 30-04-2017 07:02:17 1.6 C 20 %
1116 30-04-2017 07:14:17 1.6 C 20 %
1117 30-04-2017 07:26:17 1.6 C 20 %
1118 30-04-2017 07:38:17 1.7 C 20 %
1119 30-04-2017 07:50:17 2 C 20 %
1120 30-04-2017 08:02:17 2.2 C 20 %
1121 30-04-2017 08:14:17 2.5 C 20 %
1122 30-04-2017 08:26:17 2.8 C 20 %
1123 30-04-2017 08:38:17 3.1 C 20 %
1124 30-04-2017 08:50:17 3.6 C 20 %
1125 30-04-2017 09:02:17 4.1 C 20 %
Sensor: Nr:Datum:Temp:Feuchte:
Aussen-T/F 1126 30-04-2017 09:14:17 4.8 C 20 %
1127 30-04-2017 09:26:17 5.7 C 20 %
1128 30-04-2017 09:38:17 7.2 C 20 %
1129 30-04-2017 09:50:17 7.8 C 20 %
1130 30-04-2017 10:02:17 8.5 C 20 %
1131 30-04-2017 10:14:17 9.8 C 20 %
1132 30-04-2017 10:26:17 10.8 C 20 %
1133 30-04-2017 10:38:17 11.7 C 20 %
1134 30-04-2017 10:50:17 12.8 C 20 %
1135 30-04-2017 11:02:17 14.4 C 20 %
1136 30-04-2017 11:14:17 16.3 C 20 %
1137 30-04-2017 11:26:17 19.5 C 20 %
1138 30-04-2017 11:38:17 16.9 C 20 %
1139 30-04-2017 11:50:17 15.6 C 20 %
1140 30-04-2017 12:02:17 14.8 C 20 %
1141 30-04-2017 12:14:17 14.7 C 20 %
1142 30-04-2017 12:26:17 14.8 C 20 %
1143 30-04-2017 12:38:17 14.8 C 20 %
1144 30-04-2017 12:50:17 14.9 C 20 %
1145 30-04-2017 13:02:17 15.3 C 20 %
1146 30-04-2017 13:14:17 15.5 C 20 %
1147 30-04-2017 13:26:17 15.6 C 20 %
1148 30-04-2017 13:38:17 15.8 C 20 %
1149 30-04-2017 13:50:17 16.3 C 20 %
1150 30-04-2017 14:02:17 16.5 C 20 %
Sensor: Nr:Datum:Temp:Feuchte:
Aussen-T/F 1151 30-04-2017 14:14:17 16.6 C 20 %
1152 30-04-2017 14:26:17 16.9 C 20 %
1153 30-04-2017 14:38:17 18.2 C 20 %
1154 30-04-2017 14:50:17 19.8 C 20 %
1155 30-04-2017 15:02:17 20.9 C 20 %
1156 30-04-2017 15:14:17 20.1 C 20 %
1157 30-04-2017 15:26:17 20.6 C 20 %
1158 30-04-2017 15:38:17 21.1 C 20 %
1159 30-04-2017 15:50:17 21.5 C 20 %
1160 30-04-2017 16:02:17 21.5 C 20 %
1161 30-04-2017 16:14:17 21.7 C 20 %
1162 30-04-2017 16:26:17 21.8 C 20 %
1163 30-04-2017 16:38:17 23.3 C 20 %
1164 30-04-2017 16:50:17 22.1 C 20 %
1165 30-04-2017 17:02:17 22.5 C 20 %
1166 30-04-2017 17:14:17 23.8 C 20 %
1167 30-04-2017 17:26:17 26.6 C 20 %
1168 30-04-2017 17:38:17 29.6 C 20 %
1169 30-04-2017 17:50:17 29.8 C 20 %
1170 30-04-2017 18:02:17 28.6 C 20 %
1171 30-04-2017 18:14:17 29.5 C 20 %
1172 30-04-2017 18:26:17 30.4 C 20 %
1173 30-04-2017 18:38:17 28.2 C 20 %
1174 30-04-2017 18:50:17 27 C 20 %
1175 30-04-2017 19:02:17 26.8 C 20 %
Sensor: Nr:Datum:Temp:Feuchte:
Aussen-T/F 1176 30-04-2017 19:14:17 22.7 C 20 %
1177 30-04-2017 19:26:16 21 C 20 %
1178 30-04-2017 19:38:17 20.1 C 20 %
1179 30-04-2017 19:50:17 18.8 C 20 %
1180 30-04-2017 20:02:17 18.2 C 20 %
1181 30-04-2017 20:14:17 16.2 C 20 %
1182 30-04-2017 20:26:17 14.8 C 20 %
1183 30-04-2017 20:38:17 14.2 C 20 %
1184 30-04-2017 20:50:17 14.2 C 20 %
1185 30-04-2017 21:02:17 12.2 C 20 %
1186 30-04-2017 21:14:17 12.2 C 20 %
1187 30-04-2017 21:26:17 11.6 C 20 %
1188 30-04-2017 21:38:17 11.4 C 20 %
1189 30-04-2017 21:50:17 11.2 C 20 %
1190 30-04-2017 22:02:17 11.1 C 20 %
1191 30-04-2017 22:14:17 11.4 C 20 %
1192 30-04-2017 22:26:17 11.4 C 20 %
1193 30-04-2017 22:38:17 11.3 C 20 %
1194 30-04-2017 22:50:17 11.6 C 20 %
1195 30-04-2017 23:02:17 11.7 C 20 %
1196 30-04-2017 23:14:17 11.8 C 20 %
1197 30-04-2017 23:26:17 11.1 C 20 %
1198 30-04-2017 23:38:17 10.6 C 20 %
1199 30-04-2017 23:50:17 10.2 C 20 %
1200 01-05-2017 00:02:17 10 C 20 %
Sensor: Nr:Datum:Temp:Feuchte:
Aussen-T/F 1201 01-05-2017 00:14:17 9.8 C 20 %
1202 01-05-2017 00:26:17 11.1 C 20 %
1203 01-05-2017 00:38:17 11.4 C 20 %
1204 01-05-2017 00:50:17 10.7 C 20 %
1205 01-05-2017 01:02:17 10.6 C 20 %
1206 01-05-2017 01:14:17 10.1 C 20 %
1207 01-05-2017 01:26:18 9.8 C 20 %
1208 01-05-2017 01:38:17 9.6 C 20 %
1209 01-05-2017 01:50:17 9.1 C 20 %
1210 01-05-2017 02:02:17 8.7 C 20 %
1211 01-05-2017 02:14:17 8.5 C 20 %
1212 01-05-2017 02:26:17 8.6 C 20 %
1213 01-05-2017 02:38:17 8.8 C 20 %
1214 01-05-2017 02:50:16 9.3 C 20 %
1215 01-05-2017 03:02:18 9.3 C 20 %
1216 01-05-2017 03:14:18 10.4 C 20 %
1217 01-05-2017 03:26:17 9.8 C 20 %
1218 01-05-2017 03:38:17 9.2 C 20 %
1219 01-05-2017 03:50:17 9 C 20 %
1220 01-05-2017 04:02:17 8.7 C 20 %
1221 01-05-2017 04:14:17 8.7 C 20 %
1222 01-05-2017 04:26:17 8.7 C 20 %
1223 01-05-2017 04:38:17 8.7 C 20 %
1224 01-05-2017 04:50:17 8.6 C 20 %
1225 01-05-2017 05:02:17 8.4 C 20 %
Sensor: Nr:Datum:Temp:Feuchte:
Aussen-T/F 1226 01-05-2017 05:14:17 8.4 C 20 %
1227 01-05-2017 05:26:17 8.5 C 20 %
1228 01-05-2017 05:38:17 8.5 C 20 %
1229 01-05-2017 05:50:17 8.6 C 20 %
1230 01-05-2017 06:02:17 8.8 C 20 %
1231 01-05-2017 06:14:17 8.9 C 20 %
1232 01-05-2017 06:26:17 9 C 20 %
1233 01-05-2017 06:38:17 9 C 20 %
1234 01-05-2017 06:50:17 9.2 C 20 %
1235 01-05-2017 07:02:17 9.5 C 20 %
1236 01-05-2017 07:14:17 9.7 C 20 %
1237 01-05-2017 07:26:17 10 C 20 %
1238 01-05-2017 07:38:17 10.8 C 20 %
1239 01-05-2017 07:50:18 10.8 C 20 %
1240 01-05-2017 08:02:17 10.6 C 20 %
1241 01-05-2017 08:14:17 10.4 C 20 %
1242 01-05-2017 08:26:17 9.8 C 20 %
1243 01-05-2017 08:38:17 9.5 C 20 %
1244 01-05-2017 08:50:18 9.1 C 20 %
1245 01-05-2017 09:02:17 8.7 C 23 %
1246 01-05-2017 09:14:17 8.6 C 25 %
1247 01-05-2017 09:26:17 8.5 C 29 %
1248 01-05-2017 09:38:17 8.5 C 31 %
1249 01-05-2017 09:50:16 8.5 C 31 %
1250 01-05-2017 10:02:17 8.5 C 32 %
Sensor: Nr:Datum:Temp:Feuchte:
Aussen-T/F 1251 01-05-2017 10:14:17 8.5 C 32 %
1252 01-05-2017 10:26:17 8.5 C 33 %
1253 01-05-2017 10:38:17 8.4 C 33 %
1254 01-05-2017 10:50:17 8.5 C 34 %
1255 01-05-2017 11:02:17 8.7 C 34 %
1256 01-05-2017 11:14:17 8.9 C 34 %
1257 01-05-2017 11:26:17 9.1 C 33 %
1258 01-05-2017 11:38:17 9.1 C 33 %
1259 01-05-2017 11:50:17 9.3 C 35 %
1260 01-05-2017 12:02:17 9.8 C 34 %
1261 01-05-2017 12:14:17 10 C 32 %
1262 01-05-2017 12:26:17 10.2 C 32 %
1263 01-05-2017 12:38:17 10.4 C 32 %
1264 01-05-2017 12:50:17 10.8 C 32 %
1265 01-05-2017 13:02:17 10.8 C 31 %
1266 01-05-2017 13:14:17 10.9 C 30 %
1267 01-05-2017 13:26:18 11 C 29 %
1268 01-05-2017 13:38:17 10.9 C 29 %
1269 01-05-2017 13:50:17 11 C 28 %
1270 01-05-2017 14:02:17 11.2 C 28 %
1271 01-05-2017 14:14:17 11 C 26 %
1272 01-05-2017 14:26:17 11.2 C 27 %
1273 01-05-2017 14:38:17 11.2 C 23 %
1274 01-05-2017 14:50:17 11.7 C 22 %
1275 01-05-2017 15:02:17 11.7 C 22 %
Sensor: Nr:Datum:Temp:Feuchte:
Aussen-T/F 1276 01-05-2017 15:14:17 11.7 C 22 %
1277 01-05-2017 15:26:17 11.7 C 22 %
1278 01-05-2017 15:38:17 11.7 C 22 %
1279 01-05-2017 15:50:17 11.7 C 22 %
1280 01-05-2017 16:02:17 11.7 C 22 %
1281 01-05-2017 16:14:18 11.7 C 22 %
1282 01-05-2017 16:26:17 11.7 C 22 %
1283 01-05-2017 16:38:17 11.6 C 25 %
1284 01-05-2017 16:50:17 11.6 C 25 %
1285 01-05-2017 17:02:17 11.7 C 26 %
1286 01-05-2017 17:14:17 11.4 C 26 %
1287 01-05-2017 17:26:16 11.1 C 29 %
1288 01-05-2017 17:38:17 10.9 C 30 %
1289 01-05-2017 17:50:17 10.9 C 30 %
1290 01-05-2017 18:02:17 10.9 C 30 %
1291 01-05-2017 18:14:17 10.9 C 30 %
1292 01-05-2017 18:26:18 10.9 C 30 %
1293 01-05-2017 18:38:17 10.9 C 30 %
1294 01-05-2017 18:50:17 10.9 C 30 %
1295 01-05-2017 19:02:17 10.9 C 30 %
1296 01-05-2017 19:14:17 10.9 C 30 %
1297 01-05-2017 19:26:17 10.9 C 30 %
1298 01-05-2017 19:38:17 10.9 C 30 %
1299 01-05-2017 19:50:17 10.9 C 30 %
1300 01-05-2017 20:02:17 9.8 C 36 %
Sensor: Nr:Datum:Temp:Feuchte:
Aussen-T/F 1301 01-05-2017 20:14:17 9.5 C 37 %
1302 01-05-2017 20:26:17 9.3 C 37 %
1303 01-05-2017 20:38:17 9.1 C 38 %
1304 01-05-2017 20:50:17 8.9 C 39 %
1305 01-05-2017 21:02:18 8.8 C 40 %
1306 01-05-2017 21:14:18 8.6 C 40 %
1307 01-05-2017 21:26:17 8.5 C 40 %
1308 01-05-2017 21:38:17 8.4 C 41 %
1309 01-05-2017 21:50:17 8.3 C 41 %
1310 01-05-2017 22:02:17 8.3 C 42 %
1311 01-05-2017 22:14:17 8.3 C 42 %
1312 01-05-2017 22:26:17 8.3 C 43 %
1313 01-05-2017 22:38:17 8.3 C 43 %
1314 01-05-2017 22:50:17 8.3 C 43 %
1315 01-05-2017 23:02:17 8.3 C 43 %
1316 01-05-2017 23:14:17 8.2 C 43 %
1317 01-05-2017 23:26:17 8.1 C 43 %
1318 01-05-2017 23:38:17 8.1 C 43 %
1319 01-05-2017 23:50:17 7.8 C 43 %
1320 02-05-2017 00:02:17 7.7 C 43 %
1321 02-05-2017 00:14:17 7.5 C 44 %
1322 02-05-2017 00:26:17 7.3 C 44 %
1323 02-05-2017 00:38:17 7.3 C 44 %
1324 02-05-2017 00:50:17 7.3 C 46 %
1325 02-05-2017 01:02:17 7.3 C 47 %
Sensor: Nr:Datum:Temp:Feuchte:
Aussen-T/F 1326 02-05-2017 01:14:17 7.5 C 48 %
1327 02-05-2017 01:26:17 7.6 C 49 %
1328 02-05-2017 01:38:17 7.6 C 49 %
1329 02-05-2017 01:50:17 7.8 C 50 %
1330 02-05-2017 02:02:17 7.9 C 51 %
1331 02-05-2017 02:14:17 7.7 C 51 %
1332 02-05-2017 02:26:16 7.4 C 48 %
1333 02-05-2017 02:38:17 7.5 C 50 %
1334 02-05-2017 02:50:17 7.5 C 50 %
1335 02-05-2017 03:02:17 7.7 C 52 %
1336 02-05-2017 03:14:17 7.8 C 53 %
1337 02-05-2017 03:26:17 7.8 C 54 %
1338 02-05-2017 03:38:17 7.8 C 55 %
1339 02-05-2017 03:50:17 7.8 C 55 %
1340 02-05-2017 04:02:17 7.8 C 55 %
1341 02-05-2017 04:14:17 7.8 C 55 %
1342 02-05-2017 04:26:17 7.8 C 55 %
1343 02-05-2017 04:38:17 7.8 C 55 %
1344 02-05-2017 04:50:17 7.8 C 55 %
1345 02-05-2017 05:02:18 7.8 C 55 %
1346 02-05-2017 05:14:18 7.8 C 55 %
1347 02-05-2017 05:26:17 7.8 C 55 %
1348 02-05-2017 05:38:17 7.8 C 55 %
1349 02-05-2017 05:50:17 7.8 C 55 %
1350 02-05-2017 06:02:18 7.8 C 55 %
Sensor: Nr:Datum:Temp:Feuchte:
Aussen-T/F 1351 02-05-2017 06:14:18 7.8 C 55 %
1352 02-05-2017 06:26:17 7.8 C 55 %
1353 02-05-2017 06:38:17 7.8 C 55 %
1354 02-05-2017 06:50:17 7.8 C 55 %
1355 02-05-2017 07:02:17 7.9 C 55 %
1356 02-05-2017 07:14:17 7.9 C 55 %
1357 02-05-2017 07:26:17 8.2 C 55 %
1358 02-05-2017 07:38:17 8.2 C 55 %
1359 02-05-2017 07:50:17 8.2 C 55 %
1360 02-05-2017 08:02:17 8.2 C 55 %
1361 02-05-2017 08:14:17 8.2 C 55 %
1362 02-05-2017 08:26:17 8.4 C 48 %
1363 02-05-2017 08:38:17 8.5 C 48 %
1364 02-05-2017 08:50:17 8.3 C 47 %
1365 02-05-2017 09:02:17 8.3 C 46 %
1366 02-05-2017 09:14:17 8.3 C 46 %
1367 02-05-2017 09:26:17 8.2 C 45 %
1368 02-05-2017 09:38:17 8.2 C 44 %
1369 02-05-2017 09:50:17 8.2 C 44 %
1370 02-05-2017 10:02:17 8.2 C 44 %
1371 02-05-2017 10:14:17 8.2 C 44 %
1372 02-05-2017 10:26:17 8.2 C 44 %
1373 02-05-2017 10:38:17 8.2 C 44 %
1374 02-05-2017 10:50:17 8.2 C 44 %
1375 02-05-2017 11:02:17 8.2 C 44 %
Sensor: Nr:Datum:Temp:Feuchte:
Aussen-T/F 1376 02-05-2017 11:14:17 8.2 C 44 %
1377 02-05-2017 11:26:17 8.2 C 44 %
1378 02-05-2017 11:38:17 8.2 C 44 %
1379 02-05-2017 11:50:17 9 C 42 %
1380 02-05-2017 12:02:17 9 C 41 %
1381 02-05-2017 12:14:17 9 C 41 %
1382 02-05-2017 12:26:17 9.2 C 40 %
1383 02-05-2017 12:38:17 9.2 C 40 %
1384 02-05-2017 12:50:17 9.2 C 40 %
1385 02-05-2017 13:02:17 9.8 C 39 %
1386 02-05-2017 13:14:17 9.8 C 39 %
1387 02-05-2017 13:26:16 9.8 C 39 %
1388 02-05-2017 13:38:17 9.8 C 39 %
1389 02-05-2017 13:50:17 9.8 C 39 %
1390 02-05-2017 14:02:17 9.8 C 39 %
1391 02-05-2017 14:14:17 9.8 C 39 %
1392 02-05-2017 14:26:17 10.8 C 30 %
1393 02-05-2017 14:38:18 10.8 C 30 %
1394 02-05-2017 14:50:17 10.8 C 30 %
1395 02-05-2017 15:02:17 10.8 C 30 %
1396 02-05-2017 15:14:17 10.8 C 30 %
1397 02-05-2017 15:26:17 10.8 C 30 %
1398 02-05-2017 15:38:18 10.8 C 30 %
1399 02-05-2017 15:50:17 10.8 C 30 %
1400 02-05-2017 16:02:17 10.8 C 30 %
Sensor: Nr:Datum:Temp:Feuchte:
Aussen-T/F 1401 02-05-2017 16:14:17 10.8 C 30 %
1402 02-05-2017 16:26:17 10.8 C 30 %
1403 02-05-2017 16:38:18 10.8 C 30 %
1404 02-05-2017 16:50:18 9.7 C 36 %
1405 02-05-2017 17:02:17 9.7 C 36 %
1406 02-05-2017 17:14:17 9.7 C 38 %
1407 02-05-2017 17:26:17 9.7 C 39 %
1408 02-05-2017 17:38:17 9.7 C 39 %
1409 02-05-2017 17:50:17 9.7 C 40 %
1410 02-05-2017 18:02:17 9.7 C 41 %
1411 02-05-2017 18:14:17 9.6 C 42 %
1412 02-05-2017 18:26:17 9.7 C 42 %
1413 02-05-2017 18:38:17 9.6 C 42 %
1414 02-05-2017 18:50:17 9.5 C 43 %
1415 02-05-2017 19:02:18 9.4 C 43 %
1416 02-05-2017 19:14:18 9.5 C 44 %
1417 02-05-2017 19:26:17 9.5 C 44 %
1418 02-05-2017 19:38:17 9.5 C 45 %
1419 02-05-2017 19:50:17 9.5 C 45 %
1420 02-05-2017 20:02:18 9.3 C 45 %
1421 02-05-2017 20:14:18 9.3 C 45 %
1422 02-05-2017 20:26:18 8.4 C 44 %
1423 02-05-2017 20:38:18 8.1 C 45 %
1424 02-05-2017 20:50:17 8.2 C 45 %
1425 02-05-2017 21:02:17 8.1 C 46 %
Sensor: Nr:Datum:Temp:Feuchte:
Aussen-T/F 1426 02-05-2017 21:14:17 8.1 C 46 %
1427 02-05-2017 21:26:17 8 C 47 %
1428 02-05-2017 21:38:17 8 C 48 %
1429 02-05-2017 21:50:17 8 C 48 %
1430 02-05-2017 22:02:17 8 C 48 %
1431 02-05-2017 22:14:17 7.7 C 48 %
1432 02-05-2017 22:26:17 7.6 C 49 %
1433 02-05-2017 22:38:17 7.6 C 49 %
1434 02-05-2017 22:50:17 7.5 C 49 %
1435 02-05-2017 23:02:17 7.4 C 49 %
1436 02-05-2017 23:14:17 7.2 C 49 %
1437 02-05-2017 23:26:17 7.1 C 49 %
1438 02-05-2017 23:38:17 7 C 50 %
1439 02-05-2017 23:50:17 7 C 50 %
1440 03-05-2017 00:02:17 7 C 51 %
1441 03-05-2017 00:14:17 6.9 C 52 %
1442 03-05-2017 00:26:17 6.9 C 53 %
1443 03-05-2017 00:38:17 6.9 C 55 %
1444 03-05-2017 00:50:17 6.9 C 55 %
1445 03-05-2017 01:02:17 6.9 C 56 %
1446 03-05-2017 01:14:17 6.9 C 56 %
1447 03-05-2017 01:26:17 6.9 C 56 %
1448 03-05-2017 01:38:17 6.8 C 56 %
1449 03-05-2017 01:50:17 6.8 C 56 %
1450 03-05-2017 02:02:17 6.8 C 57 %
Sensor: Nr:Datum:Temp:Feuchte:
Aussen-T/F 1451 03-05-2017 02:14:17 6.8 C 57 %
1452 03-05-2017 02:26:17 6.8 C 57 %
1453 03-05-2017 02:38:17 6.7 C 57 %
1454 03-05-2017 02:50:17 6.7 C 56 %
1455 03-05-2017 03:02:17 6.7 C 57 %
1456 03-05-2017 03:14:17 6.6 C 57 %
1457 03-05-2017 03:26:17 6.6 C 57 %
1458 03-05-2017 03:38:17 6.6 C 57 %
1459 03-05-2017 03:50:17 6.7 C 58 %
1460 03-05-2017 04:02:17 6.7 C 59 %
1461 03-05-2017 04:14:17 6.7 C 59 %
1462 03-05-2017 04:26:17 6.7 C 59 %
1463 03-05-2017 04:38:18 6.8 C 60 %
1464 03-05-2017 04:50:17 6.7 C 60 %
1465 03-05-2017 05:02:17 6.8 C 60 %
1466 03-05-2017 05:14:17 6.8 C 60 %
1467 03-05-2017 05:26:17 6.9 C 60 %
1468 03-05-2017 05:38:17 6.9 C 60 %
1469 03-05-2017 05:50:17 6.9 C 61 %
1470 03-05-2017 06:02:17 6.9 C 61 %
1471 03-05-2017 06:14:17 6.9 C 60 %
1472 03-05-2017 06:26:17 6.9 C 61 %
1473 03-05-2017 06:38:17 6.9 C 61 %
1474 03-05-2017 06:50:17 7.1 C 60 %
1475 03-05-2017 07:02:17 7.1 C 60 %
Sensor: Nr:Datum:Temp:Feuchte:
Aussen-T/F 1476 03-05-2017 07:14:17 7.3 C 61 %
1477 03-05-2017 07:26:17 7.3 C 61 %
1478 03-05-2017 07:38:17 7.3 C 61 %
1479 03-05-2017 07:50:17 7.6 C 61 %
1480 03-05-2017 08:02:17 7.9 C 62 %
1481 03-05-2017 08:14:17 8 C 61 %
1482 03-05-2017 08:26:17 8 C 59 %
1483 03-05-2017 08:38:17 8 C 60 %
1484 03-05-2017 08:50:17 8.4 C 60 %
1485 03-05-2017 09:02:17 9.2 C 62 %
1486 03-05-2017 09:14:17 9.2 C 62 %
1487 03-05-2017 09:26:17 9.3 C 56 %
1488 03-05-2017 09:38:17 9.3 C 56 %
1489 03-05-2017 09:50:17 9.3 C 56 %
1490 03-05-2017 10:02:17 9.3 C 56 %
1491 03-05-2017 10:14:17 9.3 C 56 %
1492 03-05-2017 10:26:17 9.3 C 56 %
1493 03-05-2017 10:38:17 9.3 C 56 %
1494 03-05-2017 10:50:17 12.7 C 30 %
1495 03-05-2017 11:02:17 12.2 C 24 %
1496 03-05-2017 11:14:17 12.7 C 20 %
1497 03-05-2017 11:26:17 15.6 C 20 %
1498 03-05-2017 11:38:17 15.6 C 20 %
1499 03-05-2017 11:50:16 15.6 C 20 %
1500 03-05-2017 12:02:17 15.6 C 20 %
Sensor: Nr:Datum:Temp:Feuchte:
Aussen-T/F 1501 03-05-2017 12:14:17 15.6 C 20 %
1502 03-05-2017 12:26:17 15.6 C 20 %
1503 03-05-2017 12:38:17 14.2 C 20 %
1504 03-05-2017 12:50:17 14.2 C 20 %
1505 03-05-2017 13:02:17 15 C 20 %
1506 03-05-2017 13:14:17 15 C 20 %
1507 03-05-2017 13:26:17 15 C 20 %
1508 03-05-2017 13:38:17 15 C 20 %
1509 03-05-2017 13:50:18 15 C 20 %
1510 03-05-2017 14:02:17 16.4 C 20 %
1511 03-05-2017 14:14:17 17.7 C 20 %
1512 03-05-2017 14:26:17 17.7 C 20 %
1513 03-05-2017 14:38:18 17.7 C 20 %
1514 03-05-2017 14:50:17 17.7 C 20 %
1515 03-05-2017 15:02:18 17.7 C 20 %
1516 03-05-2017 15:14:18 17.7 C 20 %
1517 03-05-2017 15:26:17 17.7 C 20 %
1518 03-05-2017 15:38:17 17.7 C 20 %
1519 03-05-2017 15:50:17 17.7 C 20 %
1520 03-05-2017 16:02:17 17.7 C 20 %
1521 03-05-2017 16:14:17 17.7 C 20 %
1522 03-05-2017 16:26:17 17.7 C 20 %
1523 03-05-2017 16:38:18 17.7 C 20 %
1524 03-05-2017 16:50:16 17.7 C 20 %
1525 03-05-2017 17:02:18 13.1 C 20 %
Sensor: Nr:Datum:Temp:Feuchte:
Aussen-T/F 1526 03-05-2017 17:14:18 13.4 C 20 %
1527 03-05-2017 17:26:17 13.4 C 20 %
1528 03-05-2017 17:38:17 13.9 C 20 %
1529 03-05-2017 17:50:18 13.9 C 20 %
1530 03-05-2017 18:02:17 13.9 C 20 %
1531 03-05-2017 18:14:17 13.9 C 20 %
1532 03-05-2017 18:26:17 13.9 C 20 %
1533 03-05-2017 18:38:17 13.9 C 20 %
1534 03-05-2017 18:50:17 13.9 C 20 %
1535 03-05-2017 19:02:17 13.9 C 20 %
1536 03-05-2017 19:14:17 11.5 C 20 %
1537 03-05-2017 19:26:17 11.2 C 20 %
1538 03-05-2017 19:38:17 11.1 C 20 %
1539 03-05-2017 19:50:17 11.1 C 20 %
1540 03-05-2017 20:02:17 11.1 C 20 %
1541 03-05-2017 20:14:18 10.4 C 25 %
1542 03-05-2017 20:26:17 10.4 C 25 %
1543 03-05-2017 20:38:17 10 C 28 %
1544 03-05-2017 20:50:17 10 C 28 %
1545 03-05-2017 21:02:17 10 C 28 %
1546 03-05-2017 21:14:17 9.8 C 32 %
1547 03-05-2017 21:26:17 9.8 C 32 %
1548 03-05-2017 21:38:17 9.8 C 32 %
1549 03-05-2017 21:50:17 9.8 C 32 %
1550 03-05-2017 22:02:18 9.3 C 35 %
Sensor: Nr:Datum:Temp:Feuchte:
Aussen-T/F 1551 03-05-2017 22:14:18 9.3 C 36 %
1552 03-05-2017 22:26:17 9.3 C 36 %
1553 03-05-2017 22:38:18 9.2 C 38 %
1554 03-05-2017 22:50:17 9.2 C 39 %
1555 03-05-2017 23:02:17 9.1 C 39 %
1556 03-05-2017 23:14:17 9.1 C 40 %
1557 03-05-2017 23:26:17 9 C 40 %
1558 03-05-2017 23:38:17 8.9 C 41 %
1559 03-05-2017 23:50:17 8.9 C 41 %
1560 04-05-2017 00:02:17 8.9 C 41 %
1561 04-05-2017 00:14:17 8.9 C 42 %
1562 04-05-2017 00:26:17 9 C 42 %
1563 04-05-2017 00:38:17 9 C 42 %
1564 04-05-2017 00:50:17 9.1 C 42 %
1565 04-05-2017 01:02:17 9.1 C 42 %
1566 04-05-2017 01:14:17 9.1 C 42 %
1567 04-05-2017 01:26:18 9.1 C 43 %
1568 04-05-2017 01:38:17 9.2 C 43 %
1569 04-05-2017 01:50:17 9.2 C 43 %
1570 04-05-2017 02:02:17 9.2 C 43 %
1571 04-05-2017 02:14:17 9.2 C 43 %
1572 04-05-2017 02:26:17 9.2 C 43 %
1573 04-05-2017 02:38:17 9.2 C 43 %
1574 04-05-2017 02:50:17 9.2 C 43 %
1575 04-05-2017 03:02:17 9.2 C 43 %
Sensor: Nr:Datum:Temp:Feuchte:
Aussen-T/F 1576 04-05-2017 03:14:17 9.2 C 43 %
1577 04-05-2017 03:26:17 9.2 C 43 %
1578 04-05-2017 03:38:17 9.2 C 43 %
1579 04-05-2017 03:50:17 9.2 C 43 %
1580 04-05-2017 04:02:17 9.2 C 43 %
1581 04-05-2017 04:14:17 9.2 C 43 %
1582 04-05-2017 04:26:17 9.2 C 43 %
1583 04-05-2017 04:38:17 9.2 C 42 %
1584 04-05-2017 04:50:17 9.2 C 42 %
1585 04-05-2017 05:02:17 9.2 C 42 %
1586 04-05-2017 05:14:17 9.2 C 42 %
1587 04-05-2017 05:26:17 9.2 C 42 %
1588 04-05-2017 05:38:17 9.2 C 42 %
1589 04-05-2017 05:50:17 9.2 C 42 %
1590 04-05-2017 06:02:17 9.2 C 42 %
1591 04-05-2017 06:14:18 9.2 C 42 %
1592 04-05-2017 06:26:17 9.2 C 42 %
1593 04-05-2017 06:38:18 9.2 C 42 %
1594 04-05-2017 06:50:17 9.2 C 42 %
1595 04-05-2017 07:02:17 9.5 C 42 %
1596 04-05-2017 07:14:17 9.5 C 42 %
1597 04-05-2017 07:26:17 9.5 C 42 %
1598 04-05-2017 07:38:17 10 C 42 %
1599 04-05-2017 07:50:17 10.1 C 41 %
1600 04-05-2017 08:02:17 10.2 C 41 %
Sensor: Nr:Datum:Temp:Feuchte:
Aussen-T/F 1601 04-05-2017 08:14:17 10.3 C 41 %
1602 04-05-2017 08:26:17 10.6 C 40 %
1603 04-05-2017 08:38:17 10.6 C 40 %
1604 04-05-2017 08:50:17 10.7 C 39 %
1605 04-05-2017 09:02:17 10.7 C 39 %
1606 04-05-2017 09:14:17 10.7 C 39 %
1607 04-05-2017 09:26:17 11.5 C 37 %
1608 04-05-2017 09:38:17 11.5 C 37 %
1609 04-05-2017 09:50:17 11.5 C 37 %
1610 04-05-2017 10:02:17 12 C 31 %
1611 04-05-2017 10:14:17 12.1 C 31 %
1612 04-05-2017 10:26:17 12 C 26 %
1613 04-05-2017 10:38:17 11.9 C 26 %
1614 04-05-2017 10:50:17 11.9 C 26 %
1615 04-05-2017 11:02:17 11.9 C 26 %
1616 04-05-2017 11:14:17 11.9 C 26 %
1617 04-05-2017 11:26:17 11.8 C 25 %
1618 04-05-2017 11:38:17 11.4 C 26 %
1619 04-05-2017 11:50:17 11.3 C 26 %
1620 04-05-2017 12:02:18 11.5 C 29 %
1621 04-05-2017 12:14:18 11.9 C 30 %
1622 04-05-2017 12:26:17 12.9 C 30 %
1623 04-05-2017 12:38:17 13.4 C 30 %
1624 04-05-2017 12:50:17 13.8 C 30 %
1625 04-05-2017 13:02:17 14.3 C 26 %
Sensor: Nr:Datum:Temp:Feuchte:
Aussen-T/F 1626 04-05-2017 13:14:17 14.1 C 21 %
1627 04-05-2017 13:26:17 14.5 C 23 %
1628 04-05-2017 13:38:17 14.2 C 20 %
1629 04-05-2017 13:50:17 14.4 C 23 %
1630 04-05-2017 14:02:17 15.3 C 20 %
1631 04-05-2017 14:14:18 14.7 C 20 %
1632 04-05-2017 14:26:17 14 C 20 %
1633 04-05-2017 14:38:17 13.8 C 20 %
1634 04-05-2017 14:50:17 13.8 C 20 %
1635 04-05-2017 15:02:17 17.7 C 20 %
1636 04-05-2017 15:14:17 16.8 C 20 %
1637 04-05-2017 15:26:17 17.6 C 20 %
1638 04-05-2017 15:38:17 18.8 C 20 %
1639 04-05-2017 15:50:17 17.5 C 20 %
1640 04-05-2017 16:02:17 17.2 C 20 %
1641 04-05-2017 16:14:17 15.3 C 20 %
1642 04-05-2017 16:26:17 15.2 C 20 %
1643 04-05-2017 16:38:17 15.2 C 20 %
1644 04-05-2017 16:50:17 15.4 C 20 %
1645 04-05-2017 17:02:17 17.1 C 20 %
1646 04-05-2017 17:14:17 18.2 C 20 %
1647 04-05-2017 17:26:17 18.2 C 20 %
1648 04-05-2017 17:38:18 16.9 C 20 %
1649 04-05-2017 17:50:17 16.9 C 20 %
1650 04-05-2017 18:02:17 15.1 C 20 %
Sensor: Nr:Datum:Temp:Feuchte:
Aussen-T/F 1651 04-05-2017 18:14:17 15.5 C 20 %
1652 04-05-2017 18:26:17 14.9 C 20 %
1653 04-05-2017 18:38:17 14.9 C 20 %
1654 04-05-2017 18:50:17 14.9 C 20 %
1655 04-05-2017 19:14:17 14.9 C 20 %
1656 04-05-2017 19:14:18 14.9 C 20 %
1657 04-05-2017 19:26:18 14.9 C 20 %
1658 04-05-2017 19:38:17 14.9 C 20 %
1659 04-05-2017 19:50:17 14.9 C 20 %
1660 04-05-2017 20:02:17 14.9 C 20 %
1661 04-05-2017 20:14:17 12.2 C 20 %
1662 04-05-2017 20:26:17 12 C 20 %
1663 04-05-2017 20:38:17 11.8 C 20 %
1664 04-05-2017 20:50:17 11.5 C 25 %
1665 04-05-2017 21:02:17 11.3 C 25 %
1666 04-05-2017 21:14:17 11.3 C 25 %
1667 04-05-2017 21:26:17 11.3 C 25 %
1668 04-05-2017 21:38:17 11.3 C 25 %
1669 04-05-2017 21:50:17 11.3 C 25 %
1670 04-05-2017 22:02:17 11.3 C 25 %
1671 04-05-2017 22:14:17 11.3 C 25 %
1672 04-05-2017 22:27:16 11.3 C 25 %
1673 04-05-2017 22:38:17 10.9 C 25 %
1674 04-05-2017 22:50:17 10.9 C 25 %
1675 04-05-2017 23:03:17 10.7 C 26 %
Sensor: Nr:Datum:Temp:Feuchte:
Aussen-T/F 1676 04-05-2017 23:14:17 10.6 C 26 %
1677 04-05-2017 23:26:17 10.6 C 25 %
1678 04-05-2017 23:38:17 10.6 C 25 %
1679 04-05-2017 23:50:17 10.6 C 21 %
1680 05-05-2017 00:03:17 10.5 C 20 %
1681 05-05-2017 00:14:17 10.5 C 20 %
1682 05-05-2017 00:26:17 10.4 C 20 %
1683 05-05-2017 00:38:17 10.3 C 20 %
1684 05-05-2017 00:50:17 10.2 C 20 %
1685 05-05-2017 01:03:17 10.1 C 20 %
1686 05-05-2017 01:14:17 10.1 C 20 %
1687 05-05-2017 01:26:17 10 C 20 %
1688 05-05-2017 01:38:17 10 C 20 %
1689 05-05-2017 01:50:17 10 C 20 %
1690 05-05-2017 02:03:17 9.9 C 20 %
1691 05-05-2017 02:15:17 9.8 C 21 %
1692 05-05-2017 02:27:17 9.8 C 23 %
1693 05-05-2017 02:38:17 9.7 C 25 %
1694 05-05-2017 02:50:17 9.7 C 25 %
1695 05-05-2017 03:03:17 9.7 C 25 %
1696 05-05-2017 03:14:17 9.6 C 25 %
1697 05-05-2017 03:26:17 9.6 C 25 %
1698 05-05-2017 03:39:17 9.5 C 25 %
1699 05-05-2017 03:50:17 9.4 C 25 %
1700 05-05-2017 04:03:17 9.3 C 26 %
Sensor: Nr:Datum:Temp:Feuchte:
Aussen-T/F 1701 05-05-2017 04:14:17 9.2 C 26 %
1702 05-05-2017 04:26:17 9.2 C 26 %
1703 05-05-2017 04:39:17 9.2 C 27 %
1704 05-05-2017 04:50:17 9.2 C 26 %
1705 05-05-2017 05:03:17 9.2 C 26 %
1706 05-05-2017 05:14:17 9.1 C 26 %
1707 05-05-2017 05:26:17 9 C 28 %
1708 05-05-2017 05:39:17 9 C 28 %
1709 05-05-2017 05:50:17 9 C 28 %
1710 05-05-2017 06:02:17 8.9 C 30 %
1711 05-05-2017 06:14:18 8.9 C 30 %
1712 05-05-2017 06:27:17 8.9 C 30 %
1713 05-05-2017 06:38:17 8.9 C 30 %
1714 05-05-2017 06:50:17 8.9 C 31 %
1715 05-05-2017 07:03:17 8.9 C 31 %
1716 05-05-2017 07:14:17 8.9 C 31 %
1717 05-05-2017 07:26:17 8.9 C 31 %
1718 05-05-2017 07:39:17 8.9 C 31 %
1719 05-05-2017 07:51:17 8.9 C 31 %
1720 05-05-2017 08:14:17 8.9 C 31 %
1721 05-05-2017 08:15:17 8.9 C 31 %
1722 05-05-2017 08:26:17 8.9 C 31 %
1723 05-05-2017 08:39:17 8.9 C 31 %
1724 05-05-2017 08:51:17 8.9 C 31 %
1725 05-05-2017 09:14:17 10.8 C 21 %
Sensor: Nr:Datum:Temp:Feuchte:
Aussen-T/F 1726 05-05-2017 09:15:17 10.8 C 21 %
1727 05-05-2017 09:27:17 10.8 C 21 %
1728 05-05-2017 09:39:17 10.8 C 21 %
1729 05-05-2017 09:51:17 10.8 C 21 %
1730 05-05-2017 10:03:17 12.5 C 20 %
1731 05-05-2017 10:14:18 12.7 C 20 %
1732 05-05-2017 10:26:18 12.9 C 20 %
1733 05-05-2017 10:39:17 12.9 C 20 %
1734 05-05-2017 10:51:17 12.9 C 20 %
1735 05-05-2017 11:03:17 13.4 C 20 %
1736 05-05-2017 11:15:17 13.5 C 20 %
1737 05-05-2017 11:27:17 13.8 C 20 %
1738 05-05-2017 11:39:17 13.7 C 20 %
1739 05-05-2017 11:51:17 13.7 C 20 %
1740 05-05-2017 12:03:17 13.7 C 20 %
1741 05-05-2017 12:15:17 14.5 C 20 %
1742 05-05-2017 12:27:17 14.6 C 20 %
1743 05-05-2017 12:39:17 14.6 C 20 %
1744 05-05-2017 12:51:17 14.6 C 20 %
1745 05-05-2017 13:03:17 16.9 C 20 %
1746 05-05-2017 13:15:17 17.2 C 20 %
1747 05-05-2017 13:27:17 16.6 C 20 %
1748 05-05-2017 13:39:17 15.9 C 20 %
1749 05-05-2017 13:51:17 15.8 C 20 %
1750 05-05-2017 14:03:17 16.2 C 20 %
Sensor: Nr:Datum:Temp:Feuchte:
Aussen-T/F 1751 05-05-2017 14:15:17 16.5 C 20 %
1752 05-05-2017 14:27:17 17.3 C 20 %
1753 05-05-2017 14:39:17 17.3 C 20 %
1754 05-05-2017 14:51:17 16.6 C 20 %
1755 05-05-2017 15:03:17 16 C 20 %
1756 05-05-2017 15:15:17 15.9 C 20 %
1757 05-05-2017 15:27:17 15.9 C 20 %
1758 05-05-2017 15:39:17 15.9 C 20 %
1759 05-05-2017 15:51:17 15.9 C 20 %
1760 05-05-2017 16:03:17 15.9 C 20 %
1761 05-05-2017 16:15:17 16.1 C 20 %
1762 05-05-2017 16:27:17 16 C 20 %
1763 05-05-2017 16:39:17 16 C 20 %
1764 05-05-2017 16:51:17 16 C 20 %
1765 05-05-2017 17:03:17 16.2 C 20 %
1766 05-05-2017 17:15:17 17.5 C 20 %
1767 05-05-2017 17:27:17 17.5 C 20 %
1768 05-05-2017 17:39:17 17.5 C 20 %
1769 05-05-2017 17:51:17 17.5 C 20 %
1770 05-05-2017 18:03:17 25.5 C 20 %
1771 05-05-2017 18:15:16 26.8 C 20 %
1772 05-05-2017 18:27:17 27.6 C 20 %
1773 05-05-2017 18:39:17 25.4 C 20 %
1774 05-05-2017 18:51:17 25.6 C 20 %
1775 05-05-2017 19:03:17 25.7 C 20 %
Sensor: Nr:Datum:Temp:Feuchte:
Aussen-T/F 1776 05-05-2017 19:15:17 20.7 C 20 %
1777 05-05-2017 19:27:17 18.1 C 20 %
1778 05-05-2017 19:39:17 18.1 C 20 %
1779 05-05-2017 19:51:17 18.1 C 20 %
1780 05-05-2017 20:03:17 14.6 C 20 %
1781 05-05-2017 20:14:18 14.1 C 20 %
1782 05-05-2017 20:26:18 13.8 C 20 %
1783 05-05-2017 20:39:17 13.2 C 20 %
1784 05-05-2017 20:51:17 11.7 C 20 %
1785 05-05-2017 21:03:17 10.6 C 20 %
1786 05-05-2017 21:15:17 10.6 C 20 %
1787 05-05-2017 21:27:17 10.6 C 20 %
1788 05-05-2017 21:39:17 10.6 C 20 %
1789 05-05-2017 21:51:17 8.8 C 26 %
1790 05-05-2017 22:03:17 8.8 C 26 %
1791 05-05-2017 22:15:17 8.8 C 26 %
1792 05-05-2017 22:27:17 8.8 C 26 %
1793 05-05-2017 22:39:17 8.8 C 26 %
1794 05-05-2017 22:51:17 7.8 C 32 %
1795 05-05-2017 23:03:17 7.5 C 34 %
1796 05-05-2017 23:15:17 7.5 C 34 %
1797 05-05-2017 23:27:17 6.9 C 36 %
1798 05-05-2017 23:39:17 6.9 C 36 %
1799 05-05-2017 23:51:17 6.4 C 38 %
1800 06-05-2017 00:03:17 6.4 C 38 %
Sensor: Nr:Datum:Temp:Feuchte:
Aussen-T/F 1801 06-05-2017 00:15:17 6.4 C 38 %
1802 06-05-2017 00:27:17 6 C 40 %
1803 06-05-2017 00:39:17 6 C 40 %
1804 06-05-2017 00:51:17 5.9 C 41 %
1805 06-05-2017 01:03:17 5.9 C 41 %
1806 06-05-2017 01:15:18 5.9 C 41 %
1807 06-05-2017 01:27:18 5.9 C 41 %
1808 06-05-2017 01:39:17 5.9 C 41 %
1809 06-05-2017 01:51:17 5.9 C 41 %
1810 06-05-2017 02:03:18 5.9 C 41 %
1811 06-05-2017 02:15:17 5.9 C 41 %
1812 06-05-2017 02:27:17 5.9 C 41 %
1813 06-05-2017 02:39:17 5.6 C 46 %
1814 06-05-2017 02:51:17 5.3 C 46 %
1815 06-05-2017 03:03:17 5.3 C 46 %
1816 06-05-2017 03:15:17 5.1 C 46 %
1817 06-05-2017 03:27:17 5.1 C 47 %
1818 06-05-2017 03:39:17 4.9 C 48 %
1819 06-05-2017 03:51:17 4.8 C 48 %
1820 06-05-2017 04:03:17 4.8 C 50 %
1821 06-05-2017 04:15:18 4.8 C 50 %
1822 06-05-2017 04:27:18 5 C 50 %
1823 06-05-2017 04:39:17 5 C 50 %
1824 06-05-2017 04:51:17 4.6 C 52 %
1825 06-05-2017 05:03:17 4.5 C 52 %
Sensor: Nr:Datum:Temp:Feuchte:
Aussen-T/F 1826 06-05-2017 05:15:17 4.3 C 52 %
1827 06-05-2017 05:27:17 4.3 C 53 %
1828 06-05-2017 05:39:17 4.3 C 53 %
1829 06-05-2017 05:51:17 4.1 C 54 %
1830 06-05-2017 06:03:17 4 C 54 %
1831 06-05-2017 06:15:17 4.1 C 55 %
1832 06-05-2017 06:27:17 4.1 C 55 %
1833 06-05-2017 06:39:17 4.1 C 55 %
1834 06-05-2017 06:51:17 4.1 C 55 %
1835 06-05-2017 07:03:17 5 C 57 %
1836 06-05-2017 07:15:17 5 C 57 %
1837 06-05-2017 07:27:17 5.4 C 58 %
1838 06-05-2017 07:39:17 5.7 C 57 %
1839 06-05-2017 07:51:17 5.6 C 56 %
1840 06-05-2017 08:03:17 5.6 C 56 %
1841 06-05-2017 08:15:17 5.6 C 56 %
1842 06-05-2017 08:27:17 6.1 C 57 %
1843 06-05-2017 08:39:17 6.6 C 59 %
1844 06-05-2017 08:51:17 7 C 60 %
1845 06-05-2017 09:03:17 7 C 60 %
1846 06-05-2017 09:15:17 7.9 C 61 %
1847 06-05-2017 09:27:17 8.9 C 62 %
1848 06-05-2017 09:39:17 9.8 C 57 %
1849 06-05-2017 09:51:17 9.8 C 57 %
1850 06-05-2017 10:03:17 10.5 C 41 %
Sensor: Nr:Datum:Temp:Feuchte:
Aussen-T/F 1851 06-05-2017 10:15:17 10.5 C 41 %
1852 06-05-2017 10:27:17 10.5 C 41 %
1853 06-05-2017 10:39:17 13.2 C 25 %
1854 06-05-2017 10:51:17 15.2 C 20 %
1855 06-05-2017 11:03:17 16.2 C 20 %
1856 06-05-2017 11:15:17 16.7 C 20 %
1857 06-05-2017 11:27:17 19.8 C 20 %
1858 06-05-2017 11:39:17 19.3 C 20 %
1859 06-05-2017 11:51:17 18 C 20 %
1860 06-05-2017 12:03:17 17.8 C 20 %
1861 06-05-2017 12:15:17 17.6 C 20 %
1862 06-05-2017 12:27:17 17.3 C 20 %
1863 06-05-2017 12:39:17 17.3 C 20 %
1864 06-05-2017 12:51:18 17.4 C 20 %
1865 06-05-2017 13:03:17 17.4 C 20 %
1866 06-05-2017 13:15:18 18.3 C 20 %
1867 06-05-2017 13:27:18 18.3 C 20 %
1868 06-05-2017 13:39:17 18.3 C 20 %
1869 06-05-2017 13:51:17 19.6 C 20 %
1870 06-05-2017 14:03:17 19.6 C 20 %
1871 06-05-2017 14:15:17 19.6 C 20 %
1872 06-05-2017 14:27:17 19.6 C 20 %
1873 06-05-2017 14:39:17 20.4 C 20 %
1874 06-05-2017 14:51:17 23.3 C 20 %
1875 06-05-2017 15:03:17 24.5 C 20 %
Sensor: Nr:Datum:Temp:Feuchte:
Aussen-T/F 1876 06-05-2017 15:15:17 23 C 20 %
1877 06-05-2017 15:27:17 23 C 20 %
1878 06-05-2017 15:39:17 23.7 C 20 %
1879 06-05-2017 15:51:17 23.3 C 20 %
1880 06-05-2017 16:03:17 23.5 C 20 %
1881 06-05-2017 16:15:17 23.5 C 20 %
1882 06-05-2017 16:27:17 23.4 C 20 %
1883 06-05-2017 16:39:17 23.3 C 20 %
1884 06-05-2017 16:51:17 22.5 C 20 %
1885 06-05-2017 17:03:17 22 C 20 %
1886 06-05-2017 17:15:17 21.8 C 20 %
1887 06-05-2017 17:27:17 22 C 20 %
1888 06-05-2017 17:39:17 22.2 C 20 %
1889 06-05-2017 17:51:17 22.5 C 20 %
1890 06-05-2017 18:03:18 22.5 C 20 %
1891 06-05-2017 18:15:17 22.2 C 20 %
1892 06-05-2017 18:27:17 22.2 C 20 %
1893 06-05-2017 18:39:17 22.2 C 20 %
1894 06-05-2017 18:51:17 22.2 C 20 %
1895 06-05-2017 19:03:17 22.2 C 20 %
1896 06-05-2017 19:15:17 22.2 C 20 %
1897 06-05-2017 19:27:17 22.2 C 20 %
1898 06-05-2017 19:39:17 22.2 C 20 %
1899 06-05-2017 19:51:17 22.2 C 20 %
1900 06-05-2017 20:03:17 22.2 C 20 %
Sensor: Nr:Datum:Temp:Feuchte:
Aussen-T/F 1901 06-05-2017 20:15:16 22.2 C 20 %
1902 06-05-2017 20:27:17 22.2 C 20 %
1903 06-05-2017 20:39:18 15.5 C 20 %
1904 06-05-2017 20:51:17 15.4 C 20 %
1905 06-05-2017 21:03:17 15.4 C 20 %
1906 06-05-2017 21:15:17 14.6 C 20 %
1907 06-05-2017 21:27:17 14.9 C 20 %
1908 06-05-2017 21:39:17 15.2 C 20 %
1909 06-05-2017 21:51:17 15.2 C 20 %
1910 06-05-2017 22:03:17 15.1 C 20 %
1911 06-05-2017 22:15:17 15.1 C 20 %
1912 06-05-2017 22:27:17 15.1 C 20 %
1913 06-05-2017 22:39:17 14.8 C 20 %
1914 06-05-2017 22:51:17 14.7 C 20 %
1915 06-05-2017 23:03:17 14.4 C 20 %
1916 06-05-2017 23:15:17 14.1 C 20 %
1917 06-05-2017 23:27:17 13.8 C 20 %
1918 06-05-2017 23:39:17 13.6 C 20 %
1919 06-05-2017 23:51:17 13.6 C 20 %
1920 07-05-2017 00:03:17 13.3 C 20 %
1921 07-05-2017 00:15:17 13 C 23 %
1922 07-05-2017 00:27:17 12.5 C 27 %
1923 07-05-2017 00:39:18 12.4 C 30 %
1924 07-05-2017 00:51:17 12.4 C 30 %
1925 07-05-2017 01:03:17 12.2 C 33 %
Sensor: Nr:Datum:Temp:Feuchte:
Aussen-T/F 1926 07-05-2017 01:15:17 12.1 C 35 %
1927 07-05-2017 01:27:17 12.1 C 35 %
1928 07-05-2017 01:39:17 11.9 C 37 %
1929 07-05-2017 01:51:17 11.9 C 37 %
1930 07-05-2017 02:03:18 11.9 C 37 %
1931 07-05-2017 02:15:17 11.9 C 37 %
1932 07-05-2017 02:27:18 11.8 C 40 %
1933 07-05-2017 02:39:17 11.7 C 40 %
1934 07-05-2017 02:51:17 11.7 C 40 %
1935 07-05-2017 03:03:17 11.7 C 40 %
1936 07-05-2017 03:15:17 11.7 C 41 %
1937 07-05-2017 03:27:17 11.7 C 41 %
1938 07-05-2017 03:39:18 11.7 C 42 %
1939 07-05-2017 03:51:17 11.7 C 42 %
1940 07-05-2017 04:03:17 11.7 C 42 %
1941 07-05-2017 04:15:17 11.7 C 42 %
1942 07-05-2017 04:27:17 11.7 C 43 %
1943 07-05-2017 04:39:17 11.7 C 43 %
1944 07-05-2017 04:51:17 11.7 C 43 %
1945 07-05-2017 05:03:17 11.6 C 43 %
1946 07-05-2017 05:15:17 11.4 C 43 %
1947 07-05-2017 05:27:17 11.4 C 43 %
1948 07-05-2017 05:39:17 11.5 C 44 %
1949 07-05-2017 05:51:17 11.3 C 44 %
1950 07-05-2017 06:03:17 11.4 C 44 %
Sensor: Nr:Datum:Temp:Feuchte:
Aussen-T/F 1951 07-05-2017 06:15:17 11.3 C 44 %
1952 07-05-2017 06:27:17 11.3 C 45 %
1953 07-05-2017 06:39:17 11.4 C 45 %
1954 07-05-2017 06:51:17 11.5 C 46 %
1955 07-05-2017 07:03:17 11.5 C 46 %
1956 07-05-2017 07:15:17 11.7 C 47 %
1957 07-05-2017 07:27:17 11.7 C 47 %
1958 07-05-2017 07:39:17 12 C 47 %
1959 07-05-2017 07:51:17 12.4 C 47 %
1960 07-05-2017 08:03:17 12.6 C 47 %
1961 07-05-2017 08:15:17 12.7 C 45 %
1962 07-05-2017 08:27:17 12.7 C 45 %
1963 07-05-2017 08:39:17 12.8 C 45 %
1964 07-05-2017 08:51:16 13 C 44 %
1965 07-05-2017 09:03:17 13.2 C 44 %
1966 07-05-2017 09:15:16 13.3 C 42 %
1967 07-05-2017 09:27:17 13.3 C 42 %
1968 07-05-2017 09:39:17 13.3 C 42 %
1969 07-05-2017 09:51:17 13.8 C 40 %
1970 07-05-2017 10:03:17 13.8 C 40 %
1971 07-05-2017 10:15:17 14.5 C 38 %
1972 07-05-2017 10:27:17 14.8 C 37 %
1973 07-05-2017 10:39:17 14.5 C 36 %
1974 07-05-2017 10:51:17 14.4 C 35 %
1975 07-05-2017 11:03:17 14.1 C 34 %
Sensor: Nr:Datum:Temp:Feuchte:
Aussen-T/F 1976 07-05-2017 11:15:17 14.2 C 34 %
1977 07-05-2017 11:27:17 14.2 C 34 %
1978 07-05-2017 11:39:17 14.8 C 30 %
1979 07-05-2017 11:51:17 14.8 C 30 %
1980 07-05-2017 12:03:17 14.8 C 29 %
1981 07-05-2017 12:15:17 14.8 C 29 %
1982 07-05-2017 12:27:17 14.2 C 28 %
1983 07-05-2017 12:39:17 13.8 C 29 %
1984 07-05-2017 12:51:17 13.8 C 29 %
1985 07-05-2017 13:03:17 13.9 C 29 %
1986 07-05-2017 13:15:17 14.3 C 28 %
1987 07-05-2017 13:27:17 13.6 C 26 %
1988 07-05-2017 13:39:17 13.6 C 29 %
1989 07-05-2017 13:51:17 13.6 C 29 %
1990 07-05-2017 14:03:17 13.6 C 29 %
1991 07-05-2017 14:15:17 13.6 C 29 %
1992 07-05-2017 14:27:17 13.6 C 29 %
1993 07-05-2017 14:39:17 13.6 C 29 %
1994 07-05-2017 14:51:17 13.8 C 33 %
1995 07-05-2017 15:03:17 13.9 C 33 %
1996 07-05-2017 15:15:17 14.2 C 33 %
1997 07-05-2017 15:27:17 14.3 C 31 %
1998 07-05-2017 15:39:18 14.3 C 31 %
1999 07-05-2017 15:51:17 14.3 C 31 %
2000 07-05-2017 16:03:17 14.3 C 31 %
Sensor: Nr:Datum:Temp:Feuchte:
Aussen-T/F 2001 07-05-2017 16:15:17 14.3 C 31 %
2002 07-05-2017 16:27:17 14.6 C 29 %
2003 07-05-2017 16:39:17 14.3 C 29 %
2004 07-05-2017 16:51:17 14.4 C 31 %
2005 07-05-2017 17:03:17 14.2 C 32 %
2006 07-05-2017 17:15:17 14.2 C 32 %
2007 07-05-2017 17:27:17 14.2 C 32 %
2008 07-05-2017 17:39:17 14.2 C 32 %
2009 07-05-2017 17:51:17 14.2 C 32 %
2010 07-05-2017 18:03:17 14.2 C 32 %
2011 07-05-2017 18:15:17 13.8 C 37 %
2012 07-05-2017 18:27:17 13.8 C 37 %
2013 07-05-2017 18:39:17 13.8 C 37 %
2014 07-05-2017 18:51:17 13.4 C 38 %
2015 07-05-2017 19:03:17 13.4 C 38 %
2016 07-05-2017 19:15:17 13.4 C 38 %
2017 07-05-2017 19:27:17 13.4 C 38 %
2018 07-05-2017 19:39:17 13.4 C 38 %
2019 07-05-2017 19:51:17 12.5 C 40 %
2020 07-05-2017 20:03:17 12.5 C 40 %
2021 07-05-2017 20:15:17 12.5 C 40 %
2022 07-05-2017 20:27:17 12.5 C 40 %
2023 07-05-2017 20:39:17 12.5 C 40 %
2024 07-05-2017 20:51:17 12 C 38 %
2025 07-05-2017 21:03:17 11.9 C 40 %
Sensor: Nr:Datum:Temp:Feuchte:
Aussen-T/F 2026 07-05-2017 21:15:17 11.9 C 40 %
2027 07-05-2017 21:27:17 11.9 C 40 %
2028 07-05-2017 21:39:17 11.7 C 40 %
2029 07-05-2017 21:51:17 11.7 C 41 %
2030 07-05-2017 22:03:17 11.7 C 41 %
2031 07-05-2017 22:15:17 11.4 C 42 %
2032 07-05-2017 22:27:17 11.4 C 42 %
2033 07-05-2017 22:39:17 11.4 C 42 %
2034 07-05-2017 22:51:17 11.4 C 42 %
2035 07-05-2017 23:03:17 11.4 C 43 %
2036 07-05-2017 23:15:17 11.4 C 43 %
2037 07-05-2017 23:27:17 11.4 C 43 %
2038 07-05-2017 23:39:17 11.2 C 42 %
2039 07-05-2017 23:51:17 11.1 C 42 %
2040 08-05-2017 00:03:17 11.1 C 42 %
2041 08-05-2017 00:15:17 10.9 C 41 %
2042 08-05-2017 00:27:17 10.9 C 41 %
2043 08-05-2017 00:39:17 10.8 C 40 %
2044 08-05-2017 00:51:17 10.8 C 40 %
2045 08-05-2017 01:03:17 10.8 C 41 %
2046 08-05-2017 01:15:17 10.7 C 41 %
2047 08-05-2017 01:27:17 10.5 C 41 %
2048 08-05-2017 01:39:17 10.6 C 41 %
2049 08-05-2017 01:51:17 10.4 C 41 %
2050 08-05-2017 02:03:17 10.2 C 41 %
Sensor: Nr:Datum:Temp:Feuchte:
Aussen-T/F 2051 08-05-2017 02:15:17 10.2 C 42 %
2052 08-05-2017 02:27:17 10.2 C 42 %
2053 08-05-2017 02:39:17 10.1 C 43 %
2054 08-05-2017 02:51:17 10 C 43 %
2055 08-05-2017 03:03:17 9.9 C 44 %
2056 08-05-2017 03:15:17 9.9 C 44 %
2057 08-05-2017 03:27:17 9.5 C 43 %
2058 08-05-2017 03:39:17 9.3 C 42 %
2059 08-05-2017 03:51:17 9.3 C 42 %
2060 08-05-2017 04:03:17 9.3 C 42 %
2061 08-05-2017 04:15:17 8.7 C 40 %
2062 08-05-2017 04:27:17 8.7 C 40 %
2063 08-05-2017 04:39:17 8.7 C 40 %
2064 08-05-2017 04:51:17 8.1 C 38 %
2065 08-05-2017 05:03:17 8 C 37 %
2066 08-05-2017 05:15:17 8 C 37 %
2067 08-05-2017 05:27:17 8 C 37 %
2068 08-05-2017 05:39:17 8 C 37 %
2069 08-05-2017 05:51:17 8 C 37 %
2070 08-05-2017 06:03:18 8 C 37 %
2071 08-05-2017 06:15:17 8 C 37 %
2072 08-05-2017 06:27:17 7.1 C 32 %
2073 08-05-2017 06:39:17 7.1 C 32 %
2074 08-05-2017 06:51:17 7.1 C 32 %
2075 08-05-2017 07:03:17 7.1 C 32 %
Sensor: Nr:Datum:Temp:Feuchte:
Aussen-T/F 2076 08-05-2017 07:15:17 7.1 C 32 %
2077 08-05-2017 07:27:17 7.1 C 32 %
2078 08-05-2017 07:39:17 7.5 C 20 %
2079 08-05-2017 07:51:16 7.6 C 20 %
2080 08-05-2017 08:03:17 7.8 C 20 %
2081 08-05-2017 08:15:17 7.8 C 20 %
2082 08-05-2017 08:27:17 8.2 C 20 %
2083 08-05-2017 08:39:17 8.2 C 20 %
2084 08-05-2017 08:51:17 8.2 C 20 %
2085 08-05-2017 09:03:17 8.5 C 20 %
2086 08-05-2017 09:15:17 8.5 C 20 %
2087 08-05-2017 09:27:17 8.5 C 20 %
2088 08-05-2017 09:39:17 8.5 C 20 %
2089 08-05-2017 09:51:17 8.5 C 20 %
2090 08-05-2017 10:03:17 8.5 C 20 %
2091 08-05-2017 10:15:17 8.5 C 20 %
2092 08-05-2017 10:27:17 8.5 C 20 %
2093 08-05-2017 10:39:17 8.5 C 20 %
2094 08-05-2017 10:51:17 8.5 C 20 %
2095 08-05-2017 11:03:17 10 C 20 %
2096 08-05-2017 11:15:17 10 C 20 %
2097 08-05-2017 11:27:17 10 C 20 %
2098 08-05-2017 11:39:17 10 C 20 %
2099 08-05-2017 11:51:17 9.6 C 20 %
2100 08-05-2017 12:03:17 9.6 C 20 %
Sensor: Nr:Datum:Temp:Feuchte:
Aussen-T/F 2101 08-05-2017 12:15:17 9.6 C 20 %
2102 08-05-2017 12:27:17 9.6 C 20 %
2103 08-05-2017 12:39:17 9.6 C 20 %
2104 08-05-2017 12:51:17 9.6 C 20 %
2105 08-05-2017 13:03:17 11 C 20 %
2106 08-05-2017 13:15:17 11 C 20 %
2107 08-05-2017 13:27:17 10.7 C 20 %
2108 08-05-2017 13:39:17 10.7 C 20 %
2109 08-05-2017 13:51:17 11.6 C 20 %
2110 08-05-2017 14:03:17 11.6 C 20 %
2111 08-05-2017 14:15:17 11.2 C 20 %
2112 08-05-2017 14:27:17 11.2 C 20 %
2113 08-05-2017 14:39:17 11.2 C 20 %
2114 08-05-2017 14:51:17 11.2 C 20 %
2115 08-05-2017 15:03:17 11.2 C 20 %
2116 08-05-2017 15:15:17 11.2 C 20 %
2117 08-05-2017 15:27:17 11.1 C 20 %
2118 08-05-2017 15:39:17 10.9 C 20 %
2119 08-05-2017 15:51:17 10.9 C 20 %
2120 08-05-2017 16:03:17 13.5 C 20 %
2121 08-05-2017 16:15:18 13.5 C 20 %
2122 08-05-2017 16:27:18 13.5 C 20 %
2123 08-05-2017 16:39:17 10.9 C 20 %
2124 08-05-2017 16:51:17 10.9 C 20 %
2125 08-05-2017 17:03:17 11.7 C 20 %
Sensor: Nr:Datum:Temp:Feuchte:
Aussen-T/F 2126 08-05-2017 17:15:17 11.8 C 20 %
2127 08-05-2017 17:27:17 11.2 C 20 %
2128 08-05-2017 17:39:17 11.2 C 20 %
2129 08-05-2017 17:51:17 11.2 C 20 %
2130 08-05-2017 18:03:17 10.8 C 20 %
2131 08-05-2017 18:15:17 10.5 C 20 %
2132 08-05-2017 18:27:17 10.4 C 20 %
2133 08-05-2017 18:39:17 10.4 C 20 %
2134 08-05-2017 18:51:17 10.3 C 20 %
2135 08-05-2017 19:03:17 10 C 20 %
2136 08-05-2017 19:15:17 10 C 20 %
2137 08-05-2017 19:27:17 10.2 C 20 %
2138 08-05-2017 19:39:17 10.2 C 20 %
2139 08-05-2017 19:51:17 10.2 C 20 %
2140 08-05-2017 20:03:17 10.2 C 20 %
2141 08-05-2017 20:15:17 10.2 C 20 %
2142 08-05-2017 20:27:17 10.2 C 20 %
2143 08-05-2017 20:39:17 10.2 C 20 %
2144 08-05-2017 20:51:17 9.4 C 20 %
2145 08-05-2017 21:03:17 9.4 C 20 %
2146 08-05-2017 21:15:17 9.4 C 20 %
2147 08-05-2017 21:27:17 9.4 C 20 %
2148 08-05-2017 21:39:17 9.4 C 20 %
2149 08-05-2017 21:51:17 9.4 C 20 %
2150 08-05-2017 22:03:17 9.4 C 20 %
Sensor: Nr:Datum:Temp:Feuchte:
Aussen-T/F 2151 08-05-2017 22:15:17 9.4 C 20 %
2152 08-05-2017 22:27:17 9.4 C 20 %
2153 08-05-2017 22:39:17 9.4 C 20 %
2154 08-05-2017 22:51:17 9.4 C 20 %
2155 08-05-2017 23:03:17 8.7 C 32 %
2156 08-05-2017 23:15:17 8.7 C 32 %
2157 08-05-2017 23:27:17 8.7 C 32 %
2158 08-05-2017 23:39:17 8.7 C 32 %
2159 08-05-2017 23:51:16 8.7 C 32 %
2160 09-05-2017 00:03:18 8.7 C 32 %
2161 09-05-2017 00:15:17 8.7 C 32 %
2162 09-05-2017 00:27:17 8.7 C 32 %
2163 09-05-2017 00:39:17 8.7 C 32 %
2164 09-05-2017 00:51:17 8.7 C 32 %
2165 09-05-2017 01:03:18 8.7 C 32 %
2166 09-05-2017 01:15:17 8.7 C 32 %
2167 09-05-2017 01:27:17 8.7 C 32 %
2168 09-05-2017 01:39:17 8.7 C 32 %
2169 09-05-2017 01:51:17 8.7 C 32 %
2170 09-05-2017 02:03:17 8.7 C 32 %
2171 09-05-2017 02:15:17 8.7 C 32 %
2172 09-05-2017 02:27:17 8.7 C 32 %
2173 09-05-2017 02:39:18 8.7 C 32 %
2174 09-05-2017 02:51:17 8.7 C 32 %
2175 09-05-2017 03:03:17 8.7 C 32 %
Sensor: Nr:Datum:Temp:Feuchte:
Aussen-T/F 2176 09-05-2017 03:15:17 8.7 C 32 %
2177 09-05-2017 03:27:17 8.7 C 32 %
2178 09-05-2017 03:39:17 8.7 C 32 %
2179 09-05-2017 03:51:17 8.7 C 32 %
2180 09-05-2017 04:03:17 8.7 C 32 %
2181 09-05-2017 04:15:17 8.7 C 32 %
2182 09-05-2017 04:27:17 8.7 C 32 %
2183 09-05-2017 04:39:17 8.7 C 32 %
2184 09-05-2017 04:51:17 8.7 C 32 %
2185 09-05-2017 05:03:18 8.7 C 32 %
2186 09-05-2017 05:15:17 8.7 C 32 %
2187 09-05-2017 05:27:17 8.7 C 32 %
2188 09-05-2017 05:39:17 8.7 C 32 %
2189 09-05-2017 05:51:17 8.7 C 32 %
2190 09-05-2017 06:03:17 8.7 C 32 %
2191 09-05-2017 06:15:17 8.7 C 32 %
2192 09-05-2017 06:27:17 8.7 C 32 %
2193 09-05-2017 06:39:17 8.7 C 32 %
2194 09-05-2017 06:51:17 8.7 C 32 %
2195 09-05-2017 07:03:17 8.7 C 32 %
2196 09-05-2017 07:15:16 8.7 C 32 %
2197 09-05-2017 07:27:16 8.7 C 32 %
2198 09-05-2017 07:39:17 8.7 C 32 %
2199 09-05-2017 07:51:17 8.7 C 32 %
2200 09-05-2017 08:03:17 8.7 C 32 %
Sensor: Nr:Datum:Temp:Feuchte:
Aussen-T/F 2201 09-05-2017 08:15:17 8.7 C 32 %
2202 09-05-2017 08:27:17 8.7 C 32 %
2203 09-05-2017 08:39:17 8.7 C 32 %
2204 09-05-2017 08:51:17 8.7 C 32 %
2205 09-05-2017 09:03:17 8.7 C 32 %
2206 09-05-2017 09:15:17 8.7 C 32 %
2207 09-05-2017 09:27:17 8.7 C 32 %
2208 09-05-2017 09:39:17 8.7 C 32 %
2209 09-05-2017 09:51:17 10.7 C 20 %
2210 09-05-2017 10:03:17 10.7 C 20 %
2211 09-05-2017 10:15:17 10.4 C 20 %
2212 09-05-2017 10:27:17 9.9 C 20 %
2213 09-05-2017 10:39:17 10.9 C 20 %
2214 09-05-2017 10:51:17 12.4 C 20 %
2215 09-05-2017 11:03:17 12.2 C 20 %
2216 09-05-2017 11:15:17 13.1 C 20 %
2217 09-05-2017 11:27:17 13.8 C 20 %
2218 09-05-2017 11:39:17 13.8 C 20 %
2219 09-05-2017 11:51:17 13.8 C 20 %
2220 09-05-2017 12:03:17 13.8 C 20 %
2221 09-05-2017 12:15:17 13.8 C 20 %
2222 09-05-2017 12:27:17 13.8 C 20 %
2223 09-05-2017 12:39:17 13.8 C 20 %
2224 09-05-2017 12:51:18 11.6 C 20 %
2225 09-05-2017 13:03:17 11.6 C 20 %
Sensor: Nr:Datum:Temp:Feuchte:
Aussen-T/F 2226 09-05-2017 13:15:17 12.1 C 20 %
2227 09-05-2017 13:27:17 12.1 C 20 %
2228 09-05-2017 13:39:17 12.1 C 20 %
2229 09-05-2017 13:51:17 12.5 C 20 %
2230 09-05-2017 14:03:17 12.5 C 20 %
2231 09-05-2017 14:15:17 13.7 C 20 %
2232 09-05-2017 14:27:17 13.7 C 20 %
2233 09-05-2017 14:39:17 14.1 C 20 %
2234 09-05-2017 14:51:17 14.1 C 20 %
2235 09-05-2017 15:03:17 14.1 C 20 %
2236 09-05-2017 15:15:17 14.1 C 20 %
2237 09-05-2017 15:27:17 18.4 C 20 %
2238 09-05-2017 15:39:17 18.3 C 20 %
2239 09-05-2017 15:51:17 18.3 C 20 %
2240 09-05-2017 16:03:17 18.3 C 20 %
2241 09-05-2017 16:15:17 17.4 C 20 %
2242 09-05-2017 16:27:17 16.6 C 20 %
2243 09-05-2017 16:39:17 18.6 C 20 %
2244 09-05-2017 16:51:17 17.8 C 20 %
2245 09-05-2017 17:03:17 17.8 C 20 %
2246 09-05-2017 17:15:17 17.8 C 20 %
2247 09-05-2017 17:27:17 17.8 C 20 %
2248 09-05-2017 17:39:17 21.6 C 20 %
2249 09-05-2017 17:51:17 26.4 C 20 %
2250 09-05-2017 18:03:17 26.4 C 20 %
Sensor: Nr:Datum:Temp:Feuchte:
Aussen-T/F 2251 09-05-2017 18:15:17 26.4 C 20 %
2252 09-05-2017 18:27:17 26.4 C 20 %
2253 09-05-2017 18:39:17 26.4 C 20 %
2254 09-05-2017 18:51:17 26.4 C 20 %
2255 09-05-2017 19:03:17 24.9 C 20 %
2256 09-05-2017 19:15:17 22.2 C 20 %
2257 09-05-2017 19:27:17 17.1 C 20 %
2258 09-05-2017 19:39:17 15.3 C 20 %
2259 09-05-2017 19:51:17 15.3 C 20 %
2260 09-05-2017 20:03:17 13.5 C 20 %
2261 09-05-2017 20:15:17 13.2 C 20 %
2262 09-05-2017 20:27:17 12.5 C 20 %
2263 09-05-2017 20:39:17 11.6 C 20 %
2264 09-05-2017 20:51:17 10.2 C 20 %
2265 09-05-2017 21:03:17 10.2 C 20 %
2266 09-05-2017 21:15:17 10.2 C 20 %
2267 09-05-2017 21:27:17 8.3 C 20 %
2268 09-05-2017 21:39:17 8.3 C 20 %
2269 09-05-2017 21:51:17 8.3 C 20 %
2270 09-05-2017 22:03:17 8.3 C 20 %
2271 09-05-2017 22:15:17 7.1 C 20 %
2272 09-05-2017 22:27:17 7.1 C 20 %
2273 09-05-2017 22:39:17 6.6 C 20 %
2274 09-05-2017 22:51:17 6.6 C 20 %
2275 09-05-2017 23:03:17 6.6 C 20 %
Sensor: Nr:Datum:Temp:Feuchte:
Aussen-T/F 2276 09-05-2017 23:15:17 6.6 C 20 %
2277 09-05-2017 23:27:17 6.6 C 20 %
2278 09-05-2017 23:39:17 5 C 20 %
2279 09-05-2017 23:51:17 5 C 20 %
2280 10-05-2017 00:03:17 5 C 20 %
2281 10-05-2017 00:15:17 4.3 C 25 %
2282 10-05-2017 00:27:17 4.3 C 25 %
2283 10-05-2017 00:39:17 4.3 C 25 %
2284 10-05-2017 00:51:17 4.3 C 25 %
2285 10-05-2017 01:03:17 4.3 C 25 %
2286 10-05-2017 01:15:17 4.3 C 25 %
2287 10-05-2017 01:27:17 4.3 C 25 %
2288 10-05-2017 01:39:17 4.3 C 25 %
2289 10-05-2017 01:51:17 4.3 C 25 %
2290 10-05-2017 02:03:17 3 C 33 %
2291 10-05-2017 02:15:17 2.8 C 35 %
2292 10-05-2017 02:27:17 2.8 C 35 %
2293 10-05-2017 02:39:17 2.8 C 35 %
2294 10-05-2017 02:51:17 2.6 C 36 %
2295 10-05-2017 03:03:17 2.6 C 36 %
2296 10-05-2017 03:15:17 2.3 C 36 %
2297 10-05-2017 03:27:17 2.4 C 37 %
2298 10-05-2017 03:39:17 2 C 37 %
2299 10-05-2017 03:51:17 2 C 37 %
2300 10-05-2017 04:03:17 2 C 37 %
Sensor: Nr:Datum:Temp:Feuchte:
Aussen-T/F 2301 10-05-2017 04:15:17 2 C 37 %
2302 10-05-2017 04:27:17 2 C 37 %
2303 10-05-2017 04:39:17 2 C 37 %
2304 10-05-2017 04:51:17 2 C 37 %
2305 10-05-2017 05:03:17 2 C 37 %
2306 10-05-2017 05:15:18 2 C 37 %
2307 10-05-2017 05:27:18 2 C 37 %
2308 10-05-2017 05:39:17 2 C 37 %
2309 10-05-2017 05:51:17 2 C 37 %
2310 10-05-2017 06:03:17 1.2 C 43 %
2311 10-05-2017 06:15:17 1.1 C 43 %
2312 10-05-2017 06:27:17 1.1 C 43 %
2313 10-05-2017 06:39:17 1.1 C 44 %
2314 10-05-2017 06:51:17 1.2 C 44 %
2315 10-05-2017 07:03:17 1.3 C 45 %
2316 10-05-2017 07:15:17 1.3 C 45 %
2317 10-05-2017 07:27:17 1.3 C 45 %
2318 10-05-2017 07:39:17 1.3 C 45 %
2319 10-05-2017 07:51:17 2 C 45 %
2320 10-05-2017 08:03:17 2 C 45 %
2321 10-05-2017 08:15:17 2 C 45 %
2322 10-05-2017 08:27:17 2 C 45 %
2323 10-05-2017 08:39:17 2 C 45 %
2324 10-05-2017 08:51:17 2 C 45 %
2325 10-05-2017 09:03:17 3.7 C 43 %
Sensor: Nr:Datum:Temp:Feuchte:
Aussen-T/F 2326 10-05-2017 09:15:17 4.3 C 40 %
2327 10-05-2017 09:27:17 4.8 C 40 %
2328 10-05-2017 09:39:17 4.8 C 40 %
2329 10-05-2017 09:51:17 6.9 C 25 %
2330 10-05-2017 10:03:17 7.2 C 23 %
2331 10-05-2017 10:15:17 7.7 C 20 %
2332 10-05-2017 10:27:17 8.1 C 20 %
2333 10-05-2017 10:39:17 9.5 C 20 %
2334 10-05-2017 10:51:17 12 C 20 %
2335 10-05-2017 11:03:17 11.5 C 20 %
2336 10-05-2017 11:15:17 12.7 C 20 %
2337 10-05-2017 11:27:17 16 C 20 %
2338 10-05-2017 11:39:17 17.7 C 20 %
2339 10-05-2017 11:51:16 14.7 C 20 %
2340 10-05-2017 12:03:16 13.4 C 20 %
2341 10-05-2017 12:15:18 13.4 C 20 %
2342 10-05-2017 12:27:18 12.8 C 20 %
2343 10-05-2017 12:39:17 13.3 C 20 %
2344 10-05-2017 12:51:17 13.4 C 20 %
2345 10-05-2017 13:03:17 13.4 C 20 %
2346 10-05-2017 13:15:17 13.7 C 20 %
2347 10-05-2017 13:27:17 13.7 C 20 %
2348 10-05-2017 13:39:17 14.4 C 20 %
2349 10-05-2017 13:51:17 14.4 C 20 %
2350 10-05-2017 14:03:17 14.4 C 20 %
Sensor: Nr:Datum:Temp:Feuchte:
Aussen-T/F 2351 10-05-2017 14:15:17 15.5 C 20 %
2352 10-05-2017 14:27:17 16.2 C 20 %
2353 10-05-2017 14:39:17 16.7 C 20 %
2354 10-05-2017 14:51:17 18 C 20 %
2355 10-05-2017 15:03:17 18 C 20 %
2356 10-05-2017 15:15:17 22.7 C 20 %
2357 10-05-2017 15:27:17 20.6 C 20 %
2358 10-05-2017 15:39:17 21.4 C 20 %
2359 10-05-2017 15:51:17 21.4 C 20 %
2360 10-05-2017 16:03:17 21 C 20 %
2361 10-05-2017 16:15:17 21.4 C 20 %
2362 10-05-2017 16:27:17 21.5 C 20 %
2363 10-05-2017 16:39:17 26 C 20 %
2364 10-05-2017 16:51:17 23.3 C 20 %
2365 10-05-2017 17:03:17 23.2 C 20 %
2366 10-05-2017 17:15:17 23.1 C 20 %
2367 10-05-2017 17:27:17 24.2 C 20 %
2368 10-05-2017 17:39:17 30.2 C 20 %
2369 10-05-2017 17:51:17 31.6 C 20 %
2370 10-05-2017 18:03:17 31.2 C 20 %
2371 10-05-2017 18:15:17 31.2 C 20 %
2372 10-05-2017 18:27:17 32.4 C 20 %
2373 10-05-2017 18:39:17 32.5 C 20 %
2374 10-05-2017 18:51:17 30.7 C 20 %
2375 10-05-2017 19:03:17 29.8 C 20 %
Sensor: Nr:Datum:Temp:Feuchte:
Aussen-T/F 2376 10-05-2017 19:15:17 29.2 C 20 %
2377 10-05-2017 19:27:17 29.2 C 20 %
2378 10-05-2017 19:39:17 29.2 C 20 %
2379 10-05-2017 19:51:17 29.2 C 20 %
2380 10-05-2017 20:03:17 18.1 C 20 %
2381 10-05-2017 20:15:18 16.8 C 20 %
2382 10-05-2017 20:27:18 16.2 C 20 %
2383 10-05-2017 20:39:17 14.8 C 20 %
2384 10-05-2017 20:51:17 14 C 20 %
2385 10-05-2017 21:03:17 13 C 20 %
2386 10-05-2017 21:15:17 12.2 C 20 %
2387 10-05-2017 21:27:17 12.1 C 20 %
2388 10-05-2017 21:39:17 11.4 C 20 %
2389 10-05-2017 21:51:17 11.1 C 20 %
2390 10-05-2017 22:03:17 10.9 C 20 %
2391 10-05-2017 22:15:17 10.8 C 20 %
2392 10-05-2017 22:27:18 10.5 C 20 %
2393 10-05-2017 22:39:17 10.1 C 20 %
2394 10-05-2017 22:51:17 9.7 C 20 %
2395 10-05-2017 23:03:17 9.4 C 20 %
2396 10-05-2017 23:15:17 9.1 C 20 %
2397 10-05-2017 23:27:17 8.8 C 20 %
2398 10-05-2017 23:39:17 8.7 C 20 %
2399 10-05-2017 23:51:17 8.5 C 20 %
2400 11-05-2017 00:03:17 8.5 C 20 %
Sensor: Nr:Datum:Temp:Feuchte:
Aussen-T/F 2401 11-05-2017 00:15:17 8.5 C 20 %
2402 11-05-2017 00:27:17 8.5 C 20 %
2403 11-05-2017 00:39:17 7 C 21 %
2404 11-05-2017 00:51:17 7 C 21 %
2405 11-05-2017 01:03:17 7 C 21 %
2406 11-05-2017 01:15:17 6.6 C 26 %
2407 11-05-2017 01:27:17 6.6 C 26 %
2408 11-05-2017 01:39:17 6.6 C 26 %
2409 11-05-2017 01:51:17 6 C 28 %
2410 11-05-2017 02:03:17 6 C 28 %
2411 11-05-2017 02:15:17 6 C 28 %
2412 11-05-2017 02:27:17 6 C 28 %
2413 11-05-2017 02:39:17 6 C 28 %
2414 11-05-2017 02:51:17 5.3 C 32 %
2415 11-05-2017 03:03:17 5.3 C 32 %
2416 11-05-2017 03:15:17 5.1 C 34 %
2417 11-05-2017 03:27:17 5.1 C 34 %
2418 11-05-2017 03:39:17 5.1 C 34 %
2419 11-05-2017 03:51:17 4.8 C 36 %
2420 11-05-2017 04:03:17 4.8 C 36 %
2421 11-05-2017 04:15:17 4.6 C 37 %
2422 11-05-2017 04:27:17 4.5 C 38 %
2423 11-05-2017 04:39:17 4.5 C 38 %
2424 11-05-2017 04:51:17 4.5 C 39 %
2425 11-05-2017 05:03:17 4.3 C 39 %
Sensor: Nr:Datum:Temp:Feuchte:
Aussen-T/F 2426 11-05-2017 05:15:17 4.4 C 40 %
2427 11-05-2017 05:27:17 4.4 C 40 %
2428 11-05-2017 05:39:17 4.6 C 41 %
2429 11-05-2017 05:51:17 4.8 C 41 %
2430 11-05-2017 06:03:17 4.8 C 41 %
2431 11-05-2017 06:15:17 5.2 C 41 %
2432 11-05-2017 06:27:17 5.2 C 41 %
2433 11-05-2017 06:39:17 5.2 C 41 %
2434 11-05-2017 06:51:17 5.2 C 41 %
2435 11-05-2017 07:03:17 5.2 C 41 %
2436 11-05-2017 07:15:17 6.2 C 41 %
2437 11-05-2017 07:27:17 6.7 C 41 %
2438 11-05-2017 07:39:17 6.7 C 41 %
2439 11-05-2017 07:51:17 7.8 C 40 %
2440 11-05-2017 08:03:17 7.8 C 40 %
2441 11-05-2017 08:15:17 8.2 C 35 %
2442 11-05-2017 08:27:17 8.2 C 35 %
2443 11-05-2017 08:39:17 8.2 C 35 %
2444 11-05-2017 08:51:17 8.2 C 35 %
2445 11-05-2017 09:03:17 10.8 C 20 %
2446 11-05-2017 09:15:17 11.3 C 20 %
2447 11-05-2017 09:27:17 12.1 C 20 %
2448 11-05-2017 09:39:17 13.5 C 20 %
2449 11-05-2017 09:51:17 13.8 C 20 %
2450 11-05-2017 10:03:17 13.8 C 20 %
Sensor: Nr:Datum:Temp:Feuchte:
Aussen-T/F 2451 11-05-2017 10:15:17 14.7 C 20 %
2452 11-05-2017 10:27:17 14.7 C 20 %
2453 11-05-2017 10:39:17 14.7 C 20 %
2454 11-05-2017 10:51:17 17 C 20 %
2455 11-05-2017 11:03:17 17 C 20 %
2456 11-05-2017 11:15:17 17.9 C 20 %
2457 11-05-2017 11:27:17 18.6 C 20 %
2458 11-05-2017 11:39:17 19.4 C 20 %
2459 11-05-2017 11:51:16 19.4 C 20 %
2460 11-05-2017 12:03:17 20 C 20 %
2461 11-05-2017 12:15:18 20.1 C 20 %
2462 11-05-2017 12:27:18 20.1 C 20 %
2463 11-05-2017 12:39:17 20.1 C 20 %
2464 11-05-2017 12:51:17 20.1 C 20 %
2465 11-05-2017 13:03:17 20.1 C 20 %
2466 11-05-2017 13:15:17 21.3 C 20 %
2467 11-05-2017 13:27:17 21.9 C 20 %
2468 11-05-2017 13:39:17 21.4 C 20 %
2469 11-05-2017 13:51:17 21.4 C 20 %
2470 11-05-2017 14:03:17 21.8 C 20 %
2471 11-05-2017 14:15:17 23.2 C 20 %
2472 11-05-2017 14:27:17 23.7 C 20 %
2473 11-05-2017 14:39:17 23.7 C 20 %
2474 11-05-2017 14:51:17 23.7 C 20 %
2475 11-05-2017 15:03:18 28.4 C 20 %
Sensor: Nr:Datum:Temp:Feuchte:
Aussen-T/F 2476 11-05-2017 15:15:17 26.2 C 20 %
2477 11-05-2017 15:27:17 26.1 C 20 %
2478 11-05-2017 15:39:17 26.1 C 20 %
2479 11-05-2017 15:51:17 26.1 C 20 %
2480 11-05-2017 16:03:17 27.1 C 20 %
2481 11-05-2017 16:15:17 27 C 20 %
2482 11-05-2017 16:27:18 27 C 20 %
2483 11-05-2017 16:39:17 26.5 C 20 %
2484 11-05-2017 16:51:17 25.8 C 20 %
2485 11-05-2017 17:03:18 25.2 C 20 %
2486 11-05-2017 17:15:17 25.6 C 20 %
2487 11-05-2017 17:27:17 25.7 C 20 %
2488 11-05-2017 17:39:17 26.5 C 20 %
2489 11-05-2017 17:51:17 23.9 C 20 %
2490 11-05-2017 18:03:17 23.2 C 20 %
2491 11-05-2017 18:15:17 23.2 C 20 %
2492 11-05-2017 18:27:17 23.2 C 20 %
2493 11-05-2017 18:39:17 21.5 C 20 %
2494 11-05-2017 18:51:17 21.6 C 20 %
2495 11-05-2017 19:03:17 21.6 C 20 %
2496 11-05-2017 19:15:18 21.6 C 20 %
2497 11-05-2017 19:27:18 20.4 C 20 %
2498 11-05-2017 19:39:18 20.6 C 20 %
2499 11-05-2017 19:51:17 20.3 C 20 %
2500 11-05-2017 20:03:17 19.5 C 20 %
Sensor: Nr:Datum:Temp:Feuchte:
Aussen-T/F 2501 11-05-2017 20:15:17 19.1 C 20 %
2502 11-05-2017 20:27:17 19.1 C 20 %
2503 11-05-2017 20:39:17 17.7 C 20 %
2504 11-05-2017 20:51:17 17.2 C 20 %
2505 11-05-2017 21:03:17 16.8 C 20 %
2506 11-05-2017 21:15:17 16.8 C 20 %
2507 11-05-2017 21:27:17 16 C 20 %
2508 11-05-2017 21:39:17 16 C 20 %
2509 11-05-2017 21:51:17 16 C 20 %
2510 11-05-2017 22:03:17 15.5 C 20 %
2511 11-05-2017 22:15:17 15.4 C 20 %
2512 11-05-2017 22:27:17 15.4 C 20 %
2513 11-05-2017 22:39:17 15 C 20 %
2514 11-05-2017 22:51:17 15.1 C 20 %
2515 11-05-2017 23:03:17 15.1 C 20 %
2516 11-05-2017 23:15:17 14.8 C 20 %
2517 11-05-2017 23:27:17 14.7 C 20 %
2518 11-05-2017 23:39:17 14.4 C 20 %
2519 11-05-2017 23:51:17 14.1 C 20 %
2520 12-05-2017 00:03:17 14.1 C 20 %
2521 12-05-2017 00:15:18 14.1 C 20 %
2522 12-05-2017 00:27:18 13.3 C 30 %
2523 12-05-2017 00:39:17 13.3 C 30 %
2524 12-05-2017 00:51:17 12.9 C 34 %
2525 12-05-2017 01:03:17 12.9 C 35 %
Sensor: Nr:Datum:Temp:Feuchte:
Aussen-T/F 2526 12-05-2017 01:15:17 12.9 C 35 %
2527 12-05-2017 01:27:17 12.8 C 36 %
2528 12-05-2017 01:39:17 12.7 C 37 %
2529 12-05-2017 01:51:17 12.7 C 38 %
2530 12-05-2017 02:03:17 12.6 C 38 %
2531 12-05-2017 02:15:17 12.6 C 38 %
2532 12-05-2017 02:27:17 12.5 C 40 %
2533 12-05-2017 02:39:17 12.5 C 41 %
2534 12-05-2017 02:51:17 12.5 C 41 %
2535 12-05-2017 03:03:17 12.5 C 41 %
2536 12-05-2017 03:15:17 12.4 C 41 %
2537 12-05-2017 03:27:17 12.4 C 41 %
2538 12-05-2017 03:39:17 12.4 C 41 %
2539 12-05-2017 03:51:17 12.4 C 42 %
2540 12-05-2017 04:03:17 12.4 C 42 %
2541 12-05-2017 04:15:17 12.4 C 42 %
2542 12-05-2017 04:27:17 12.4 C 43 %
2543 12-05-2017 04:39:18 12.3 C 43 %
2544 12-05-2017 04:51:17 12.2 C 43 %
2545 12-05-2017 05:03:17 12.2 C 43 %
2546 12-05-2017 05:15:17 12.2 C 44 %
2547 12-05-2017 05:27:17 12.2 C 44 %
2548 12-05-2017 05:39:17 12.3 C 45 %
2549 12-05-2017 05:51:17 12.2 C 46 %
2550 12-05-2017 06:03:17 12.3 C 46 %
Sensor: Nr:Datum:Temp:Feuchte:
Aussen-T/F 2551 12-05-2017 06:15:17 12.3 C 47 %
2552 12-05-2017 06:27:17 12.3 C 49 %
2553 12-05-2017 06:39:17 12.4 C 51 %
2554 12-05-2017 06:51:17 12.5 C 52 %
2555 12-05-2017 07:03:17 12.8 C 54 %
2556 12-05-2017 07:15:17 12.8 C 54 %
2557 12-05-2017 07:27:17 12.8 C 54 %
2558 12-05-2017 07:39:17 13.4 C 53 %
2559 12-05-2017 07:51:17 13.4 C 53 %
2560 12-05-2017 08:03:17 13.4 C 53 %
2561 12-05-2017 08:15:17 14.3 C 47 %
2562 12-05-2017 08:27:17 14.3 C 47 %
2563 12-05-2017 08:39:17 14.3 C 47 %
2564 12-05-2017 08:51:17 14.3 C 47 %
2565 12-05-2017 09:03:17 14.3 C 47 %
2566 12-05-2017 09:15:17 15.3 C 40 %
2567 12-05-2017 09:27:17 15.3 C 40 %
2568 12-05-2017 09:39:17 15.3 C 40 %
2569 12-05-2017 09:51:17 15.2 C 32 %
2570 12-05-2017 10:03:17 15.2 C 32 %
2571 12-05-2017 10:15:17 15.5 C 31 %
2572 12-05-2017 10:27:17 16.3 C 31 %
2573 12-05-2017 10:39:17 16.3 C 31 %
2574 12-05-2017 10:51:17 17.4 C 20 %
2575 12-05-2017 11:03:17 18.1 C 20 %
Sensor: Nr:Datum:Temp:Feuchte:
Aussen-T/F 2576 12-05-2017 11:15:17 20.1 C 20 %
2577 12-05-2017 11:27:17 21.1 C 20 %
2578 12-05-2017 11:39:17 21.1 C 20 %
2579 12-05-2017 11:51:17 21.1 C 20 %
2580 12-05-2017 12:03:17 19 C 20 %
2581 12-05-2017 12:15:17 19 C 20 %
2582 12-05-2017 12:27:17 18.7 C 20 %
2583 12-05-2017 12:39:17 18.4 C 20 %
2584 12-05-2017 12:51:17 18.4 C 20 %
2585 12-05-2017 13:03:17 19.1 C 20 %
2586 12-05-2017 13:15:17 19.1 C 20 %
2587 12-05-2017 13:27:17 21.6 C 20 %
2588 12-05-2017 13:39:17 21.7 C 20 %
2589 12-05-2017 13:51:17 21.2 C 20 %
2590 12-05-2017 14:03:17 20.5 C 20 %
2591 12-05-2017 14:15:17 20.5 C 20 %
2592 12-05-2017 14:27:17 20.8 C 20 %
2593 12-05-2017 14:39:17 20.8 C 20 %
2594 12-05-2017 14:51:17 25.7 C 20 %
2595 12-05-2017 15:03:17 26.1 C 20 %
2596 12-05-2017 15:15:17 26.1 C 20 %
2597 12-05-2017 15:27:17 26.1 C 20 %
2598 12-05-2017 15:39:17 24.8 C 20 %
2599 12-05-2017 15:51:17 25.1 C 20 %
2600 12-05-2017 16:03:17 25.1 C 20 %
Sensor: Nr:Datum:Temp:Feuchte:
Aussen-T/F 2601 12-05-2017 16:15:17 24.7 C 20 %
2602 12-05-2017 16:27:17 23.1 C 20 %
2603 12-05-2017 16:39:17 22.8 C 20 %
2604 12-05-2017 16:51:17 23.3 C 20 %
2605 12-05-2017 17:03:17 22.2 C 20 %
2606 12-05-2017 17:15:17 22.2 C 20 %
2607 12-05-2017 17:27:17 22.2 C 20 %
2608 12-05-2017 17:39:17 17.4 C 23 %
2609 12-05-2017 17:51:17 17.5 C 26 %
2610 12-05-2017 18:03:17 18.4 C 23 %
2611 12-05-2017 18:15:17 20.4 C 20 %
2612 12-05-2017 18:27:17 20.4 C 20 %
2613 12-05-2017 18:39:17 18.1 C 20 %
2614 12-05-2017 18:51:17 17.5 C 20 %
2615 12-05-2017 19:03:17 17.6 C 20 %
2616 12-05-2017 19:15:18 17.8 C 20 %
2617 12-05-2017 19:27:18 17.8 C 20 %
2618 12-05-2017 19:39:18 17.2 C 20 %
2619 12-05-2017 19:51:17 16.8 C 20 %
2620 12-05-2017 20:03:17 16.7 C 20 %
2621 12-05-2017 20:15:17 16.7 C 20 %
2622 12-05-2017 20:27:17 16.7 C 20 %
2623 12-05-2017 20:39:17 16.7 C 20 %
2624 12-05-2017 20:51:17 16.7 C 20 %
2625 12-05-2017 21:03:18 16.7 C 20 %
Sensor: Nr:Datum:Temp:Feuchte:
Aussen-T/F 2626 12-05-2017 21:15:17 16.7 C 20 %
2627 12-05-2017 21:27:17 16.7 C 20 %
2628 12-05-2017 21:39:17 13.7 C 30 %
2629 12-05-2017 21:51:17 13.7 C 30 %
2630 12-05-2017 22:03:17 13.7 C 30 %
2631 12-05-2017 22:15:17 13.7 C 30 %
2632 12-05-2017 22:27:17 13.7 C 30 %
2633 12-05-2017 22:39:17 13.7 C 30 %
2634 12-05-2017 22:51:17 13.7 C 30 %
2635 12-05-2017 23:03:17 13.7 C 30 %
2636 12-05-2017 23:15:17 13.7 C 30 %
2637 12-05-2017 23:27:17 13.7 C 30 %
2638 12-05-2017 23:39:17 13.7 C 30 %
2639 12-05-2017 23:51:17 13.4 C 36 %
2640 13-05-2017 00:03:17 13.3 C 36 %
2641 13-05-2017 00:15:17 13.2 C 36 %
2642 13-05-2017 00:27:17 13.2 C 36 %
2643 13-05-2017 00:39:17 13.2 C 36 %
2644 13-05-2017 00:51:17 13.2 C 36 %
2645 13-05-2017 01:03:17 13.2 C 36 %
2646 13-05-2017 01:15:17 12.9 C 38 %
2647 13-05-2017 01:27:17 12.7 C 38 %
2648 13-05-2017 01:39:17 12.7 C 38 %
2649 13-05-2017 01:51:17 12.5 C 38 %
2650 13-05-2017 02:03:17 12.5 C 39 %
Sensor: Nr:Datum:Temp:Feuchte:
Aussen-T/F 2651 13-05-2017 02:15:17 12.5 C 39 %
2652 13-05-2017 02:27:17 12.1 C 38 %
2653 13-05-2017 02:39:17 12.1 C 38 %
2654 13-05-2017 02:51:17 12.1 C 38 %
2655 13-05-2017 03:03:17 11 C 40 %
2656 13-05-2017 03:15:17 10.7 C 41 %
2657 13-05-2017 03:27:17 10.6 C 41 %
2658 13-05-2017 03:39:17 10.6 C 41 %
2659 13-05-2017 03:51:17 10.2 C 42 %
2660 13-05-2017 04:03:17 10.2 C 43 %
2661 13-05-2017 04:15:17 10.3 C 44 %
2662 13-05-2017 04:27:17 10.4 C 44 %
2663 13-05-2017 04:39:17 10.7 C 45 %
2664 13-05-2017 04:51:17 10.6 C 46 %
2665 13-05-2017 05:03:17 10.6 C 46 %
2666 13-05-2017 05:15:17 10.6 C 46 %
2667 13-05-2017 05:27:17 11 C 48 %
2668 13-05-2017 05:39:17 10.9 C 48 %
2669 13-05-2017 05:51:17 11.1 C 50 %
2670 13-05-2017 06:03:18 11.1 C 50 %
2671 13-05-2017 06:15:17 11.1 C 50 %
2672 13-05-2017 06:27:17 11.1 C 50 %
2673 13-05-2017 06:39:17 11.1 C 50 %
2674 13-05-2017 06:51:17 11.9 C 53 %
2675 13-05-2017 07:03:17 12.1 C 50 %
Sensor: Nr:Datum:Temp:Feuchte:
Aussen-T/F 2676 13-05-2017 07:15:17 12.3 C 49 %
2677 13-05-2017 07:27:17 12.5 C 48 %
2678 13-05-2017 07:39:17 12.5 C 48 %
2679 13-05-2017 07:51:17 12.5 C 48 %
2680 13-05-2017 08:03:17 12.5 C 48 %
2681 13-05-2017 08:15:17 12.5 C 48 %
2682 13-05-2017 08:27:17 14 C 30 %
2683 13-05-2017 08:39:17 14.3 C 27 %
2684 13-05-2017 08:51:17 14.3 C 27 %
2685 13-05-2017 09:03:17 14.3 C 27 %
2686 13-05-2017 09:15:17 14.3 C 27 %
2687 13-05-2017 09:27:17 14.3 C 27 %
2688 13-05-2017 09:39:17 16.2 C 20 %
2689 13-05-2017 09:51:17 16.7 C 20 %
2690 13-05-2017 10:03:17 17 C 20 %
2691 13-05-2017 10:15:17 17 C 20 %
2692 13-05-2017 10:27:17 17 C 20 %
2693 13-05-2017 10:39:17 18.1 C 20 %
2694 13-05-2017 10:51:17 18.1 C 20 %
2695 13-05-2017 11:03:17 19.2 C 20 %
2696 13-05-2017 11:15:17 20.3 C 20 %
2697 13-05-2017 11:27:17 20.7 C 20 %
2698 13-05-2017 11:39:17 21.6 C 20 %
2699 13-05-2017 11:51:17 21.5 C 20 %
2700 13-05-2017 12:03:17 21.4 C 20 %
Sensor: Nr:Datum:Temp:Feuchte:
Aussen-T/F 2701 13-05-2017 12:15:17 21.2 C 20 %
2702 13-05-2017 12:27:17 21.2 C 20 %
2703 13-05-2017 12:39:17 20.5 C 20 %
2704 13-05-2017 12:51:17 20.4 C 20 %
2705 13-05-2017 13:03:17 21.4 C 20 %
2706 13-05-2017 13:15:17 22.2 C 20 %
2707 13-05-2017 13:27:17 22 C 20 %
2708 13-05-2017 13:39:17 22 C 20 %
2709 13-05-2017 13:51:17 22 C 20 %
2710 13-05-2017 14:03:17 21.6 C 20 %
2711 13-05-2017 14:15:17 22.2 C 20 %
2712 13-05-2017 14:27:17 23.1 C 20 %
2713 13-05-2017 14:39:17 24.4 C 20 %
2714 13-05-2017 14:51:17 26.5 C 20 %
2715 13-05-2017 15:03:17 24.9 C 20 %
2716 13-05-2017 15:15:17 23.1 C 20 %
2717 13-05-2017 15:27:17 24.8 C 20 %
2718 13-05-2017 15:39:18 25.7 C 20 %
2719 13-05-2017 15:51:17 25.8 C 20 %
2720 13-05-2017 16:03:17 25.8 C 20 %
2721 13-05-2017 16:15:17 25.9 C 20 %
2722 13-05-2017 16:27:17 27.1 C 20 %
2723 13-05-2017 16:39:17 30.1 C 20 %
2724 13-05-2017 16:51:17 28.1 C 20 %
2725 13-05-2017 17:03:17 27.4 C 20 %
Sensor: Nr:Datum:Temp:Feuchte:
Aussen-T/F 2726 13-05-2017 17:15:17 27.5 C 20 %
2727 13-05-2017 17:27:17 29.2 C 20 %
2728 13-05-2017 17:39:17 33.5 C 20 %
2729 13-05-2017 17:51:17 33.4 C 20 %
2730 13-05-2017 18:03:17 32.8 C 20 %
2731 13-05-2017 18:15:17 31.7 C 20 %
2732 13-05-2017 18:27:17 26.9 C 20 %
2733 13-05-2017 18:39:17 27.3 C 20 %
2734 13-05-2017 18:51:17 29.2 C 20 %
2735 13-05-2017 19:03:17 26.7 C 20 %
2736 13-05-2017 19:15:17 24.3 C 20 %
2737 13-05-2017 19:27:17 23 C 20 %
2738 13-05-2017 19:39:17 22.2 C 20 %
2739 13-05-2017 19:51:17 21.3 C 20 %
2740 13-05-2017 20:03:17 20.4 C 20 %
2741 13-05-2017 20:15:17 20.1 C 20 %
2742 13-05-2017 20:27:17 19.8 C 20 %
2743 13-05-2017 20:39:17 19.3 C 20 %
2744 13-05-2017 20:51:17 18.9 C 20 %
2745 13-05-2017 21:03:17 18.1 C 20 %
2746 13-05-2017 21:15:17 18.2 C 20 %
2747 13-05-2017 21:27:17 18.1 C 20 %
2748 13-05-2017 21:39:17 17.7 C 20 %
2749 13-05-2017 21:51:17 17.8 C 20 %
2750 13-05-2017 22:03:17 17.5 C 20 %
Sensor: Nr:Datum:Temp:Feuchte:
Aussen-T/F 2751 13-05-2017 22:15:17 17.5 C 20 %
2752 13-05-2017 22:27:17 17.2 C 20 %
2753 13-05-2017 22:39:17 16.8 C 20 %
2754 13-05-2017 22:51:17 16.6 C 20 %
2755 13-05-2017 23:03:17 16.5 C 20 %
2756 13-05-2017 23:15:17 16.2 C 20 %
2757 13-05-2017 23:27:17 16 C 20 %
2758 13-05-2017 23:39:17 16 C 20 %
2759 13-05-2017 23:51:17 15.6 C 20 %
2760 14-05-2017 00:03:17 15.1 C 20 %
2761 14-05-2017 00:15:17 14.6 C 20 %
2762 14-05-2017 00:27:17 14.4 C 20 %
2763 14-05-2017 00:39:17 14.1 C 20 %
2764 14-05-2017 00:51:17 14 C 20 %
2765 14-05-2017 01:03:17 14.2 C 20 %
2766 14-05-2017 01:15:17 14.2 C 20 %
2767 14-05-2017 01:27:17 14.1 C 20 %
2768 14-05-2017 01:39:17 14 C 20 %
2769 14-05-2017 01:51:17 13.6 C 20 %
2770 14-05-2017 02:03:17 13.5 C 21 %
2771 14-05-2017 02:15:18 13.4 C 25 %
2772 14-05-2017 02:27:18 13.5 C 26 %
2773 14-05-2017 02:39:17 13.5 C 26 %
2774 14-05-2017 02:51:17 13.2 C 26 %
2775 14-05-2017 03:03:17 13 C 27 %
Sensor: Nr:Datum:Temp:Feuchte:
Aussen-T/F 2776 14-05-2017 03:15:17 13.2 C 29 %
2777 14-05-2017 03:27:17 13.2 C 29 %
2778 14-05-2017 03:39:17 13.2 C 29 %
2779 14-05-2017 03:51:17 13.2 C 29 %
2780 14-05-2017 04:03:18 12.7 C 30 %
2781 14-05-2017 04:15:17 12.6 C 30 %
2782 14-05-2017 04:27:17 12.5 C 30 %
2783 14-05-2017 04:39:17 12.6 C 31 %
2784 14-05-2017 04:51:17 12.7 C 31 %
2785 14-05-2017 05:03:17 12.7 C 31 %
2786 14-05-2017 05:15:17 12.7 C 29 %
2787 14-05-2017 05:27:17 13 C 28 %
2788 14-05-2017 05:39:17 13 C 26 %
2789 14-05-2017 05:51:17 13 C 26 %
2790 14-05-2017 06:03:17 12.7 C 26 %
2791 14-05-2017 06:15:17 12.2 C 27 %
2792 14-05-2017 06:27:17 12 C 28 %
2793 14-05-2017 06:39:17 12 C 28 %
2794 14-05-2017 06:51:17 11.5 C 32 %
2795 14-05-2017 07:03:17 11.5 C 33 %
2796 14-05-2017 07:15:17 11.9 C 35 %
2797 14-05-2017 07:27:17 11.9 C 35 %
2798 14-05-2017 07:39:17 11.6 C 36 %
2799 14-05-2017 07:51:16 11.6 C 36 %
2800 14-05-2017 08:03:17 11.6 C 37 %
Sensor: Nr:Datum:Temp:Feuchte:
Aussen-T/F 2801 14-05-2017 08:15:17 11.6 C 37 %
2802 14-05-2017 08:27:17 12.5 C 39 %
2803 14-05-2017 08:39:17 13.4 C 38 %
2804 14-05-2017 08:51:17 13.4 C 38 %
2805 14-05-2017 09:03:17 14.4 C 34 %
2806 14-05-2017 09:15:17 15.3 C 27 %
2807 14-05-2017 09:27:17 15.6 C 25 %
2808 14-05-2017 09:39:17 16.5 C 20 %
2809 14-05-2017 09:51:17 18.3 C 20 %
2810 14-05-2017 10:03:17 20.5 C 20 %
2811 14-05-2017 10:15:17 20.7 C 20 %
2812 14-05-2017 10:27:17 20.3 C 20 %
2813 14-05-2017 10:39:17 20.5 C 20 %
2814 14-05-2017 10:51:17 21.1 C 20 %
2815 14-05-2017 11:03:17 20.9 C 20 %
2816 14-05-2017 11:15:17 20.2 C 20 %
2817 14-05-2017 11:27:17 20.4 C 20 %
2818 14-05-2017 11:39:17 23.6 C 20 %
2819 14-05-2017 11:51:17 21.6 C 20 %
2820 14-05-2017 12:03:17 22.5 C 20 %
2821 14-05-2017 12:15:17 22.3 C 20 %
2822 14-05-2017 12:27:17 19.5 C 20 %
2823 14-05-2017 12:39:17 18.8 C 20 %
2824 14-05-2017 12:51:17 18.8 C 20 %
2825 14-05-2017 13:03:17 18 C 20 %
Sensor: Nr:Datum:Temp:Feuchte:
Aussen-T/F 2826 14-05-2017 13:15:17 18.3 C 20 %
2827 14-05-2017 13:27:17 19.4 C 20 %
2828 14-05-2017 13:39:17 19.8 C 20 %
2829 14-05-2017 13:51:17 20 C 20 %
2830 14-05-2017 14:03:17 20.8 C 20 %
2831 14-05-2017 14:15:17 20.8 C 20 %
2832 14-05-2017 14:27:17 21 C 20 %
2833 14-05-2017 14:39:17 21.8 C 20 %
2834 14-05-2017 14:51:17 24.9 C 20 %
2835 14-05-2017 15:03:17 25.5 C 20 %
2836 14-05-2017 15:15:17 25.6 C 20 %
2837 14-05-2017 15:27:17 25.5 C 20 %
2838 14-05-2017 15:39:18 25.8 C 20 %
2839 14-05-2017 15:51:17 25 C 20 %
2840 14-05-2017 16:03:17 24.1 C 20 %
2841 14-05-2017 16:15:17 23.3 C 20 %
2842 14-05-2017 16:27:17 23.7 C 20 %
2843 14-05-2017 16:39:18 21.6 C 20 %
2844 14-05-2017 16:51:17 23.7 C 20 %
2845 14-05-2017 17:03:17 22 C 20 %
2846 14-05-2017 17:15:17 21.1 C 20 %
2847 14-05-2017 17:27:17 20.9 C 20 %
2848 14-05-2017 17:39:17 19.5 C 20 %
2849 14-05-2017 17:51:17 18.5 C 20 %
2850 14-05-2017 18:03:17 17.2 C 20 %
Sensor: Nr:Datum:Temp:Feuchte:
Aussen-T/F 2851 14-05-2017 18:15:17 17.6 C 20 %
2852 14-05-2017 18:27:17 17.8 C 20 %
2853 14-05-2017 18:39:17 18.1 C 20 %
2854 14-05-2017 18:51:17 18.4 C 20 %
2855 14-05-2017 19:03:17 18.6 C 20 %
2856 14-05-2017 19:15:16 18.6 C 20 %
2857 14-05-2017 19:27:17 19.6 C 20 %
2858 14-05-2017 19:39:17 19.6 C 20 %
2859 14-05-2017 19:51:17 19.4 C 20 %
2860 14-05-2017 20:03:17 19.3 C 20 %
2861 14-05-2017 20:15:17 18.4 C 20 %
2862 14-05-2017 20:27:17 17.7 C 20 %
2863 14-05-2017 20:39:17 17.5 C 20 %
2864 14-05-2017 20:51:17 16.6 C 20 %
2865 14-05-2017 21:03:17 15 C 20 %
2866 14-05-2017 21:15:17 14.7 C 20 %
2867 14-05-2017 21:27:17 13.6 C 25 %
2868 14-05-2017 21:39:17 13.6 C 25 %
2869 14-05-2017 21:51:17 13.2 C 30 %
2870 14-05-2017 22:03:17 13.1 C 32 %
2871 14-05-2017 22:15:17 12.8 C 35 %
2872 14-05-2017 22:27:17 12.8 C 35 %
2873 14-05-2017 22:39:17 12.3 C 37 %
2874 14-05-2017 22:51:17 11.9 C 39 %
2875 14-05-2017 23:03:17 11.2 C 40 %
Sensor: Nr:Datum:Temp:Feuchte:
Aussen-T/F 2876 14-05-2017 23:15:17 11.2 C 40 %
2877 14-05-2017 23:27:17 11.1 C 40 %
2878 14-05-2017 23:39:18 10.8 C 42 %
2879 14-05-2017 23:51:17 10.8 C 42 %
2880 15-05-2017 00:03:18 10.6 C 43 %
2881 15-05-2017 00:15:17 10.6 C 43 %
2882 15-05-2017 00:27:17 10.6 C 43 %
2883 15-05-2017 00:39:17 10.6 C 43 %
2884 15-05-2017 00:51:17 10.4 C 45 %
2885 15-05-2017 01:03:17 10.4 C 44 %
2886 15-05-2017 01:15:17 10.4 C 45 %
2887 15-05-2017 01:27:17 10.4 C 45 %
2888 15-05-2017 01:39:17 10.4 C 45 %
2889 15-05-2017 01:51:17 10.1 C 46 %
2890 15-05-2017 02:03:17 10.1 C 46 %
2891 15-05-2017 02:15:17 10.1 C 46 %
2892 15-05-2017 02:27:17 9.4 C 48 %
2893 15-05-2017 02:39:17 9.4 C 48 %
2894 15-05-2017 02:51:17 9.3 C 51 %
2895 15-05-2017 03:03:17 9.3 C 51 %
2896 15-05-2017 03:15:17 9.3 C 52 %
2897 15-05-2017 03:27:17 9.2 C 53 %
2898 15-05-2017 03:39:17 9.1 C 53 %
2899 15-05-2017 03:51:17 9.1 C 53 %
2900 15-05-2017 04:03:17 8.9 C 55 %
Sensor: Nr:Datum:Temp:Feuchte:
Aussen-T/F 2901 15-05-2017 04:15:17 9 C 55 %
2902 15-05-2017 04:27:17 8.9 C 56 %
2903 15-05-2017 04:39:17 8.9 C 56 %
2904 15-05-2017 04:51:17 8.5 C 56 %
2905 15-05-2017 05:03:17 8.9 C 59 %
2906 15-05-2017 05:15:17 8.9 C 59 %
2907 15-05-2017 05:27:17 8.2 C 56 %
2908 15-05-2017 05:39:17 8.2 C 56 %
2909 15-05-2017 05:51:17 8.3 C 58 %
2910 15-05-2017 06:03:17 8.3 C 58 %
2911 15-05-2017 06:15:17 8.3 C 58 %
2912 15-05-2017 06:27:17 8.3 C 58 %
2913 15-05-2017 06:39:17 8 C 58 %
2914 15-05-2017 06:51:17 8.2 C 58 %
2915 15-05-2017 07:03:17 8.4 C 59 %
2916 15-05-2017 07:15:17 8.6 C 60 %
2917 15-05-2017 07:27:17 8.9 C 60 %
2918 15-05-2017 07:39:17 9.3 C 60 %
2919 15-05-2017 07:51:17 9.9 C 62 %
2920 15-05-2017 08:03:17 10.4 C 62 %
2921 15-05-2017 08:15:17 10.7 C 60 %
2922 15-05-2017 08:27:17 10.8 C 58 %
2923 15-05-2017 08:39:17 10.8 C 58 %
2924 15-05-2017 08:51:17 12.1 C 52 %
2925 15-05-2017 09:03:17 13.1 C 55 %
Sensor: Nr:Datum:Temp:Feuchte:
Aussen-T/F 2926 15-05-2017 09:15:17 13 C 48 %
2927 15-05-2017 09:27:17 13.4 C 49 %
2928 15-05-2017 09:39:17 14.8 C 51 %
2929 15-05-2017 09:51:17 14.8 C 51 %
2930 15-05-2017 10:03:17 14.9 C 40 %
2931 15-05-2017 10:15:17 17.2 C 31 %
2932 15-05-2017 10:27:17 17.2 C 20 %
2933 15-05-2017 10:39:17 17.6 C 20 %
2934 15-05-2017 10:51:17 17.6 C 20 %
2935 15-05-2017 11:03:17 18.3 C 20 %
2936 15-05-2017 11:15:17 18 C 20 %
2937 15-05-2017 11:27:17 20.8 C 20 %
2938 15-05-2017 11:39:17 20.9 C 20 %
2939 15-05-2017 11:51:17 19.4 C 20 %
2940 15-05-2017 12:03:17 18.2 C 20 %
2941 15-05-2017 12:15:17 17.9 C 20 %
2942 15-05-2017 12:27:17 17.8 C 20 %
2943 15-05-2017 12:39:17 18.2 C 20 %
2944 15-05-2017 12:51:17 18.6 C 20 %
2945 15-05-2017 13:03:18 18.6 C 20 %
2946 15-05-2017 13:15:17 19.6 C 20 %
2947 15-05-2017 13:27:17 19.5 C 20 %
2948 15-05-2017 13:39:17 18.5 C 20 %
2949 15-05-2017 13:51:17 18.9 C 20 %
2950 15-05-2017 14:03:17 18.9 C 20 %
Sensor: Nr:Datum:Temp:Feuchte:
Aussen-T/F 2951 15-05-2017 14:15:17 18.9 C 20 %
2952 15-05-2017 14:27:17 20.7 C 20 %
2953 15-05-2017 14:39:17 22.9 C 20 %
2954 15-05-2017 14:51:17 22.9 C 20 %
2955 15-05-2017 15:03:17 26.2 C 20 %
2956 15-05-2017 15:15:16 25.5 C 20 %
2957 15-05-2017 15:27:17 24.8 C 20 %
2958 15-05-2017 15:39:17 25.5 C 20 %
2959 15-05-2017 15:51:17 25.7 C 20 %
2960 15-05-2017 16:03:17 25.2 C 20 %
2961 15-05-2017 16:15:18 25.5 C 20 %
2962 15-05-2017 16:27:18 25.5 C 20 %
2963 15-05-2017 16:39:17 30.2 C 20 %
2964 15-05-2017 16:51:17 27.9 C 20 %
2965 15-05-2017 17:03:18 27.4 C 20 %
2966 15-05-2017 17:15:17 27.4 C 20 %
2967 15-05-2017 17:27:17 28.5 C 20 %
2968 15-05-2017 17:39:17 35 C 20 %
2969 15-05-2017 17:51:17 37 C 20 %
2970 15-05-2017 18:03:18 37.7 C 20 %
2971 15-05-2017 18:15:17 38.1 C 20 %
2972 15-05-2017 18:27:17 35.3 C 20 %
2973 15-05-2017 18:39:17 36.4 C 20 %
2974 15-05-2017 18:51:17 36.4 C 20 %
2975 15-05-2017 19:03:17 36.1 C 20 %
Sensor: Nr:Datum:Temp:Feuchte:
Aussen-T/F 2976 15-05-2017 19:15:17 35 C 20 %
2977 15-05-2017 19:27:17 24.6 C 20 %
2978 15-05-2017 19:39:17 22.2 C 20 %
2979 15-05-2017 19:51:17 20.6 C 20 %
2980 15-05-2017 20:03:17 20.1 C 20 %
2981 15-05-2017 20:15:17 19.6 C 20 %
2982 15-05-2017 20:27:17 18.9 C 20 %
2983 15-05-2017 20:39:17 18.2 C 20 %
2984 15-05-2017 20:51:17 18.2 C 20 %
2985 15-05-2017 21:03:17 15.8 C 20 %
2986 15-05-2017 21:15:17 15.2 C 20 %
2987 15-05-2017 21:27:17 14.8 C 20 %
2988 15-05-2017 21:39:17 14.4 C 20 %
2989 15-05-2017 21:51:17 14 C 20 %
2990 15-05-2017 22:03:17 13.8 C 20 %
2991 15-05-2017 22:15:17 13.5 C 20 %
2992 15-05-2017 22:27:17 13 C 20 %
2993 15-05-2017 22:39:17 12.5 C 20 %
2994 15-05-2017 22:51:17 12.1 C 20 %
2995 15-05-2017 23:03:17 11.7 C 20 %
2996 15-05-2017 23:15:17 11.5 C 20 %
2997 15-05-2017 23:27:17 11.2 C 20 %
2998 15-05-2017 23:39:17 11.1 C 20 %
2999 15-05-2017 23:51:17 11.1 C 20 %
3000 16-05-2017 00:03:17 11.4 C 20 %
Sensor: Nr:Datum:Temp:Feuchte:
Aussen-T/F 3001 16-05-2017 00:15:17 11.5 C 20 %
3002 16-05-2017 00:27:18 11.4 C 20 %
3003 16-05-2017 00:39:17 12.2 C 20 %
3004 16-05-2017 00:51:17 12.4 C 20 %
3005 16-05-2017 01:03:17 12.6 C 20 %
3006 16-05-2017 01:15:17 12.6 C 20 %
3007 16-05-2017 01:27:17 12.6 C 20 %
3008 16-05-2017 01:39:17 12.7 C 20 %
3009 16-05-2017 01:51:17 12.7 C 20 %
3010 16-05-2017 02:03:17 12.7 C 20 %
3011 16-05-2017 02:15:17 12.7 C 20 %
3012 16-05-2017 02:27:17 12.7 C 20 %
3013 16-05-2017 02:39:17 12.7 C 20 %
3014 16-05-2017 02:51:17 12.5 C 20 %
3015 16-05-2017 03:03:17 12.5 C 20 %
3016 16-05-2017 03:15:17 12.4 C 20 %
3017 16-05-2017 03:27:17 12.3 C 20 %
3018 16-05-2017 03:39:17 12.2 C 20 %
3019 16-05-2017 03:51:17 12.2 C 20 %
3020 16-05-2017 04:03:17 12 C 20 %
3021 16-05-2017 04:15:17 11.9 C 20 %
3022 16-05-2017 04:27:17 12 C 20 %
3023 16-05-2017 04:39:17 12.1 C 20 %
3024 16-05-2017 04:51:17 11.9 C 20 %
3025 16-05-2017 05:03:17 11.8 C 20 %
Sensor: Nr:Datum:Temp:Feuchte:
Aussen-T/F 3026 16-05-2017 05:15:17 11.8 C 20 %
3027 16-05-2017 05:27:17 11.4 C 20 %
3028 16-05-2017 05:39:17 11.3 C 20 %
3029 16-05-2017 05:51:17 11 C 20 %
3030 16-05-2017 06:03:17 11 C 20 %
3031 16-05-2017 06:15:17 10.4 C 20 %
3032 16-05-2017 06:27:17 10.3 C 20 %
3033 16-05-2017 06:39:17 10.2 C 20 %
3034 16-05-2017 06:51:17 10.4 C 20 %
3035 16-05-2017 07:03:17 10.8 C 20 %
3036 16-05-2017 07:15:17 10.9 C 20 %
3037 16-05-2017 07:27:17 12.8 C 20 %
3038 16-05-2017 07:39:17 13.5 C 20 %
3039 16-05-2017 07:51:17 13.9 C 20 %
3040 16-05-2017 08:03:17 14.4 C 20 %
3041 16-05-2017 08:15:17 14.7 C 20 %
3042 16-05-2017 08:27:17 15 C 20 %
3043 16-05-2017 08:39:17 16 C 20 %
3044 16-05-2017 08:51:17 15.4 C 20 %
3045 16-05-2017 09:03:17 15.5 C 20 %
3046 16-05-2017 09:15:17 15.3 C 20 %
3047 16-05-2017 09:27:17 15.8 C 20 %
3048 16-05-2017 09:39:17 17.4 C 20 %
3049 16-05-2017 09:51:17 17.4 C 20 %
3050 16-05-2017 10:03:17 20.2 C 20 %
Sensor: Nr:Datum:Temp:Feuchte:
Aussen-T/F 3051 16-05-2017 10:15:17 21.1 C 20 %
3052 16-05-2017 10:27:17 21.6 C 20 %
3053 16-05-2017 10:39:17 24.1 C 20 %
3054 16-05-2017 10:51:17 23.5 C 20 %
3055 16-05-2017 11:03:17 24.1 C 20 %
3056 16-05-2017 11:15:17 24.3 C 20 %
3057 16-05-2017 11:27:17 25.5 C 20 %
3058 16-05-2017 11:39:17 26.2 C 20 %
3059 16-05-2017 11:51:17 26.4 C 20 %
3060 16-05-2017 12:03:17 26.2 C 20 %
3061 16-05-2017 12:15:17 26 C 20 %
3062 16-05-2017 12:27:17 25.2 C 20 %
3063 16-05-2017 12:39:17 24.9 C 20 %
3064 16-05-2017 12:51:17 23.7 C 20 %
3065 16-05-2017 13:03:17 23.5 C 20 %
3066 16-05-2017 13:15:17 23.6 C 20 %
3067 16-05-2017 13:27:17 23.6 C 20 %
3068 16-05-2017 13:39:17 23.7 C 20 %
3069 16-05-2017 13:51:17 23.7 C 20 %
3070 16-05-2017 14:03:17 24 C 20 %
3071 16-05-2017 14:15:17 24.3 C 20 %
3072 16-05-2017 14:27:17 25.1 C 20 %
3073 16-05-2017 14:39:17 28 C 20 %
3074 16-05-2017 14:51:17 31.6 C 20 %
3075 16-05-2017 15:03:17 31.6 C 20 %
Sensor: Nr:Datum:Temp:Feuchte:
Aussen-T/F 3076 16-05-2017 15:15:17 29.9 C 20 %
3077 16-05-2017 15:27:17 29.8 C 20 %
3078 16-05-2017 15:39:17 30.3 C 20 %
3079 16-05-2017 15:51:17 30 C 20 %
3080 16-05-2017 16:03:17 30 C 20 %
3081 16-05-2017 16:15:17 29.7 C 20 %
3082 16-05-2017 16:27:17 32.1 C 20 %
3083 16-05-2017 16:39:18 34 C 20 %
3084 16-05-2017 16:51:17 31.7 C 20 %
3085 16-05-2017 17:03:17 31.1 C 20 %
3086 16-05-2017 17:15:17 31.6 C 20 %
3087 16-05-2017 17:27:17 34.1 C 20 %
3088 16-05-2017 17:39:17 38 C 20 %
3089 16-05-2017 17:51:17 41.1 C 20 %
3090 16-05-2017 18:03:17 41.6 C 20 %
3091 16-05-2017 18:15:17 41.5 C 20 %
3092 16-05-2017 18:27:17 40.5 C 20 %
3093 16-05-2017 18:39:17 40.7 C 20 %
3094 16-05-2017 18:51:18 38.7 C 20 %
3095 16-05-2017 19:03:17 37.6 C 20 %
3096 16-05-2017 19:15:17 35.3 C 20 %
3097 16-05-2017 19:27:17 29.3 C 20 %
3098 16-05-2017 19:39:17 28.2 C 20 %
3099 16-05-2017 19:51:17 26.4 C 20 %
3100 16-05-2017 20:03:17 24.1 C 20 %
Sensor: Nr:Datum:Temp:Feuchte:
Aussen-T/F 3101 16-05-2017 20:15:17 23.1 C 20 %
3102 16-05-2017 20:27:17 22.4 C 20 %
3103 16-05-2017 20:39:18 21.2 C 20 %
3104 16-05-2017 20:51:17 20 C 20 %
3105 16-05-2017 21:03:17 19.7 C 20 %
3106 16-05-2017 21:15:17 19.1 C 20 %
3107 16-05-2017 21:27:17 18.3 C 20 %
3108 16-05-2017 21:39:17 18.2 C 20 %
3109 16-05-2017 21:51:17 18 C 20 %
3110 16-05-2017 22:03:17 17.9 C 20 %
3111 16-05-2017 22:15:17 17.6 C 20 %
3112 16-05-2017 22:27:18 17.6 C 20 %
3113 16-05-2017 22:39:17 17.4 C 20 %
3114 16-05-2017 22:51:17 17.3 C 20 %
3115 16-05-2017 23:03:17 17 C 20 %
3116 16-05-2017 23:15:17 17 C 20 %
3117 16-05-2017 23:27:17 16.7 C 20 %
3118 16-05-2017 23:39:17 16.6 C 20 %
3119 16-05-2017 23:51:17 16.4 C 20 %
3120 17-05-2017 00:03:17 16.2 C 20 %
3121 17-05-2017 00:15:17 15.8 C 20 %
3122 17-05-2017 00:27:17 15.5 C 20 %
3123 17-05-2017 00:39:17 15.3 C 20 %
3124 17-05-2017 00:51:17 15.2 C 20 %
3125 17-05-2017 01:03:17 14.8 C 20 %
Sensor: Nr:Datum:Temp:Feuchte:
Aussen-T/F 3126 17-05-2017 01:15:17 14.5 C 20 %
3127 17-05-2017 01:27:18 14.2 C 20 %
3128 17-05-2017 01:39:17 13.8 C 20 %
3129 17-05-2017 01:51:17 13.6 C 20 %
3130 17-05-2017 02:03:18 13.3 C 20 %
3131 17-05-2017 02:15:17 13.2 C 20 %
3132 17-05-2017 02:27:17 13 C 20 %
3133 17-05-2017 02:39:17 12.7 C 20 %
3134 17-05-2017 02:51:17 12.6 C 20 %
3135 17-05-2017 03:03:17 12.4 C 20 %
3136 17-05-2017 03:15:17 12.3 C 20 %
3137 17-05-2017 03:27:17 12.1 C 20 %
3138 17-05-2017 03:39:17 12 C 20 %
3139 17-05-2017 03:51:17 11.8 C 23 %
3140 17-05-2017 04:03:17 11.7 C 24 %
3141 17-05-2017 04:15:18 11.7 C 25 %
3142 17-05-2017 04:27:18 11.8 C 25 %
3143 17-05-2017 04:39:17 12.1 C 25 %
3144 17-05-2017 04:51:17 12.2 C 25 %
3145 17-05-2017 05:03:18 12.2 C 25 %
3146 17-05-2017 05:15:17 12.1 C 25 %
3147 17-05-2017 05:27:17 12.1 C 25 %
3148 17-05-2017 05:39:17 12.2 C 26 %
3149 17-05-2017 05:51:17 12.3 C 26 %
3150 17-05-2017 06:03:17 12.4 C 26 %
Sensor: Nr:Datum:Temp:Feuchte:
Aussen-T/F 3151 17-05-2017 06:15:17 12.5 C 26 %
3152 17-05-2017 06:27:17 12.7 C 26 %
3153 17-05-2017 06:39:17 12.9 C 26 %
3154 17-05-2017 06:51:17 12.9 C 26 %
3155 17-05-2017 07:03:17 13.4 C 25 %
3156 17-05-2017 07:15:17 13.4 C 24 %
3157 17-05-2017 07:27:17 13.7 C 24 %
3158 17-05-2017 07:39:17 14.2 C 23 %
3159 17-05-2017 07:51:17 14.7 C 21 %
3160 17-05-2017 08:03:17 15 C 20 %
3161 17-05-2017 08:15:17 15.1 C 20 %
3162 17-05-2017 08:27:17 15.3 C 20 %
3163 17-05-2017 08:39:17 15.5 C 20 %
3164 17-05-2017 08:51:17 15.2 C 20 %
3165 17-05-2017 09:03:17 15.1 C 20 %
3166 17-05-2017 09:15:17 15.1 C 20 %
3167 17-05-2017 09:27:17 15.5 C 20 %
3168 17-05-2017 09:39:17 15.6 C 20 %
3169 17-05-2017 09:51:17 16.6 C 20 %
3170 17-05-2017 10:03:17 17.5 C 20 %
3171 17-05-2017 10:15:18 17.4 C 20 %
3172 17-05-2017 10:27:18 18.4 C 20 %
3173 17-05-2017 10:39:17 24.8 C 20 %
3174 17-05-2017 10:51:17 24.8 C 20 %
3175 17-05-2017 11:03:17 22.9 C 20 %
Sensor: Nr:Datum:Temp:Feuchte:
Aussen-T/F 3176 17-05-2017 11:15:17 23.3 C 20 %
3177 17-05-2017 11:27:17 25.2 C 20 %
3178 17-05-2017 11:39:17 25.2 C 20 %
3179 17-05-2017 11:51:17 24.1 C 20 %
3180 17-05-2017 12:03:17 24.3 C 20 %
3181 17-05-2017 12:15:17 23.9 C 20 %
3182 17-05-2017 12:27:17 24 C 20 %
3183 17-05-2017 12:39:17 24.1 C 20 %
3184 17-05-2017 12:51:17 24.4 C 20 %
3185 17-05-2017 13:03:17 24.9 C 20 %
3186 17-05-2017 13:15:17 24.8 C 20 %
3187 17-05-2017 13:27:17 24.8 C 20 %
3188 17-05-2017 13:39:17 24.9 C 20 %
3189 17-05-2017 13:51:17 25.4 C 20 %
3190 17-05-2017 14:03:17 25.6 C 20 %
3191 17-05-2017 14:15:17 26.4 C 20 %
3192 17-05-2017 14:27:17 26.7 C 20 %
3193 17-05-2017 14:39:17 27.9 C 20 %
3194 17-05-2017 14:51:17 32.6 C 20 %
3195 17-05-2017 15:03:17 32.3 C 20 %
3196 17-05-2017 15:15:17 31.9 C 20 %
3197 17-05-2017 15:27:17 31.7 C 20 %
3198 17-05-2017 15:39:18 31.9 C 20 %
3199 17-05-2017 15:51:17 31.9 C 20 %
3200 17-05-2017 16:03:17 32.1 C 20 %
Sensor: Nr:Datum:Temp:Feuchte:
Aussen-T/F 3201 17-05-2017 16:15:17 32.2 C 20 %
3202 17-05-2017 16:27:17 33.2 C 20 %
3203 17-05-2017 16:39:17 34.8 C 20 %
3204 17-05-2017 16:51:17 33.7 C 20 %
3205 17-05-2017 17:03:17 33.5 C 20 %
3206 17-05-2017 17:15:18 32.8 C 20 %
3207 17-05-2017 17:27:18 35.7 C 20 %
3208 17-05-2017 17:39:17 39.7 C 20 %
3209 17-05-2017 17:51:17 40.7 C 20 %
3210 17-05-2017 18:03:17 40.9 C 20 %
3211 17-05-2017 18:15:17 42.3 C 20 %
3212 17-05-2017 18:27:17 40.4 C 20 %
3213 17-05-2017 18:39:17 40.2 C 20 %
3214 17-05-2017 18:51:17 40 C 20 %
3215 17-05-2017 19:03:17 39 C 20 %
3216 17-05-2017 19:15:18 34.7 C 20 %
3217 17-05-2017 19:27:18 30.5 C 20 %
3218 17-05-2017 19:39:17 27.8 C 20 %
3219 17-05-2017 19:51:17 25.9 C 20 %
3220 17-05-2017 20:03:17 25.3 C 20 %
3221 17-05-2017 20:15:17 23.7 C 20 %
3222 17-05-2017 20:27:17 22.9 C 20 %
3223 17-05-2017 20:39:17 22.3 C 20 %
3224 17-05-2017 20:51:17 21.6 C 20 %
3225 17-05-2017 21:03:17 20.9 C 20 %
Sensor: Nr:Datum:Temp:Feuchte:
Aussen-T/F 3226 17-05-2017 21:15:17 20.4 C 20 %
3227 17-05-2017 21:27:17 20 C 20 %
3228 17-05-2017 21:39:17 19.6 C 20 %
3229 17-05-2017 21:51:17 19.3 C 20 %
3230 17-05-2017 22:03:17 19.1 C 20 %
3231 17-05-2017 22:15:17 18.9 C 20 %
3232 17-05-2017 22:27:17 18.8 C 20 %
3233 17-05-2017 22:39:17 18.5 C 20 %
3234 17-05-2017 22:51:17 18.5 C 20 %
3235 17-05-2017 23:03:17 18.3 C 20 %
3236 17-05-2017 23:15:17 18.2 C 20 %
3237 17-05-2017 23:27:17 17.9 C 20 %
3238 17-05-2017 23:39:17 17.9 C 20 %
3239 17-05-2017 23:51:17 17.9 C 20 %
3240 18-05-2017 00:03:17 17.9 C 20 %
3241 18-05-2017 00:15:17 17.8 C 20 %
3242 18-05-2017 00:27:17 17.5 C 20 %
3243 18-05-2017 00:39:17 17.5 C 20 %
3244 18-05-2017 00:51:17 17.5 C 20 %
3245 18-05-2017 01:03:17 17 C 20 %
3246 18-05-2017 01:15:17 16.5 C 20 %
3247 18-05-2017 01:27:17 16 C 20 %
3248 18-05-2017 01:39:17 16 C 20 %
3249 18-05-2017 01:51:17 15.5 C 20 %
3250 18-05-2017 02:03:17 15.3 C 20 %
Sensor: Nr:Datum:Temp:Feuchte:
Aussen-T/F 3251 18-05-2017 02:15:17 15 C 20 %
3252 18-05-2017 02:27:17 14.9 C 20 %
3253 18-05-2017 02:39:17 14.9 C 20 %
3254 18-05-2017 02:51:17 14.7 C 21 %
3255 18-05-2017 03:03:17 14.4 C 22 %
3256 18-05-2017 03:15:17 14.2 C 25 %
3257 18-05-2017 03:27:17 14.1 C 25 %
3258 18-05-2017 03:39:17 14 C 26 %
3259 18-05-2017 03:51:17 13.9 C 27 %
3260 18-05-2017 04:03:17 13.7 C 28 %
3261 18-05-2017 04:15:17 13.5 C 29 %
3262 18-05-2017 04:27:17 13.4 C 29 %
3263 18-05-2017 04:39:17 13.3 C 30 %
3264 18-05-2017 04:51:17 13.3 C 31 %
3265 18-05-2017 05:03:17 13.2 C 31 %
3266 18-05-2017 05:15:17 13 C 31 %
3267 18-05-2017 05:27:17 13 C 32 %
3268 18-05-2017 05:39:17 13.1 C 33 %
3269 18-05-2017 05:51:17 13.2 C 33 %
3270 18-05-2017 06:03:18 13.1 C 32 %
3271 18-05-2017 06:15:17 13.2 C 32 %
3272 18-05-2017 06:27:17 13.2 C 32 %
3273 18-05-2017 06:39:17 13.2 C 32 %
3274 18-05-2017 06:51:17 13.8 C 32 %
3275 18-05-2017 07:03:17 14 C 31 %
Sensor: Nr:Datum:Temp:Feuchte:
Aussen-T/F 3276 18-05-2017 07:15:17 14.2 C 31 %
3277 18-05-2017 07:27:17 14.4 C 31 %
3278 18-05-2017 07:39:17 16.3 C 29 %
3279 18-05-2017 07:51:17 17.2 C 20 %
3280 18-05-2017 08:03:17 17.5 C 20 %
3281 18-05-2017 08:15:17 18.4 C 20 %
3282 18-05-2017 08:27:17 18.8 C 20 %
3283 18-05-2017 08:39:17 18.9 C 20 %
3284 18-05-2017 08:51:17 19.7 C 20 %
3285 18-05-2017 09:03:17 21.1 C 20 %
3286 18-05-2017 09:15:17 22.6 C 20 %
3287 18-05-2017 09:27:17 21.9 C 20 %
3288 18-05-2017 09:39:17 21.6 C 20 %
3289 18-05-2017 09:51:17 22.3 C 20 %
3290 18-05-2017 10:03:17 23 C 20 %
3291 18-05-2017 10:15:17 23.6 C 20 %
3292 18-05-2017 10:27:17 23.5 C 20 %
3293 18-05-2017 10:39:17 23.4 C 20 %
3294 18-05-2017 10:51:17 23.4 C 20 %
3295 18-05-2017 11:03:17 23.4 C 20 %
3296 18-05-2017 11:15:17 22.7 C 20 %
3297 18-05-2017 11:27:17 20.8 C 20 %
3298 18-05-2017 11:39:17 19.9 C 20 %
3299 18-05-2017 11:51:17 20.1 C 20 %
3300 18-05-2017 12:03:17 20.4 C 20 %
Sensor: Nr:Datum:Temp:Feuchte:
Aussen-T/F 3301 18-05-2017 12:15:17 21 C 20 %
3302 18-05-2017 12:27:17 22.5 C 20 %
3303 18-05-2017 12:39:17 24.2 C 20 %
3304 18-05-2017 12:51:17 24.5 C 20 %
3305 18-05-2017 13:03:17 24 C 20 %
3306 18-05-2017 13:15:17 23.9 C 20 %
3307 18-05-2017 13:27:17 23 C 20 %
3308 18-05-2017 13:39:17 22.7 C 20 %
3309 18-05-2017 13:51:17 23.5 C 20 %
3310 18-05-2017 14:03:17 23.2 C 20 %
3311 18-05-2017 14:15:18 21.9 C 20 %
3312 18-05-2017 14:27:18 21 C 20 %
3313 18-05-2017 14:39:17 21.3 C 20 %
3314 18-05-2017 14:51:17 21.7 C 20 %
3315 18-05-2017 15:03:18 23.7 C 20 %
3316 18-05-2017 15:15:17 24.4 C 20 %
3317 18-05-2017 15:27:17 25.1 C 20 %
3318 18-05-2017 15:39:17 26.4 C 20 %
3319 18-05-2017 15:51:17 23.5 C 20 %
3320 18-05-2017 16:03:17 22.1 C 20 %
3321 18-05-2017 16:15:17 21.5 C 20 %
3322 18-05-2017 16:27:17 18.1 C 20 %
3323 18-05-2017 16:39:17 17.5 C 28 %
3324 18-05-2017 16:51:17 18.4 C 32 %
3325 18-05-2017 17:03:17 18.5 C 32 %
Sensor: Nr:Datum:Temp:Feuchte:
Aussen-T/F 3326 18-05-2017 17:15:17 18.5 C 32 %
3327 18-05-2017 17:27:17 18.5 C 32 %
3328 18-05-2017 17:39:17 18.5 C 32 %
3329 18-05-2017 17:51:17 18.5 C 32 %
3330 18-05-2017 18:03:17 18.2 C 31 %
3331 18-05-2017 18:15:17 17.7 C 33 %
3332 18-05-2017 18:27:17 17.6 C 35 %
3333 18-05-2017 18:39:18 17.8 C 36 %
3334 18-05-2017 18:51:17 18.5 C 36 %
3335 18-05-2017 19:03:17 19.5 C 35 %
3336 18-05-2017 19:15:17 19.6 C 32 %
3337 18-05-2017 19:27:17 19.6 C 32 %
3338 18-05-2017 19:39:17 18.7 C 30 %
3339 18-05-2017 19:51:17 18.3 C 31 %
3340 18-05-2017 20:03:17 18.3 C 32 %
3341 18-05-2017 20:15:17 17.9 C 32 %
3342 18-05-2017 20:27:17 17.5 C 32 %
3343 18-05-2017 20:40:17 17 C 33 %
3344 18-05-2017 20:51:17 16.6 C 34 %
3345 18-05-2017 21:04:17 16.3 C 35 %
3346 18-05-2017 21:15:18 15.8 C 37 %
3347 18-05-2017 21:27:18 15.6 C 37 %
3348 18-05-2017 21:39:17 15.2 C 38 %
3349 18-05-2017 21:51:17 14.9 C 39 %
3350 18-05-2017 22:03:17 14.8 C 40 %
Sensor: Nr:Datum:Temp:Feuchte:
Aussen-T/F 3351 18-05-2017 22:16:17 14.7 C 41 %
3352 18-05-2017 22:28:17 14.6 C 41 %
3353 18-05-2017 22:39:17 14.7 C 42 %
3354 18-05-2017 22:52:17 14.6 C 42 %
3355 18-05-2017 23:03:17 14.5 C 42 %
3356 18-05-2017 23:16:17 14.5 C 42 %
3357 18-05-2017 23:28:17 14.3 C 42 %
3358 18-05-2017 23:39:17 14 C 41 %
3359 18-05-2017 23:52:17 13.7 C 43 %
3360 19-05-2017 00:04:17 13.5 C 43 %
3361 19-05-2017 00:16:17 13.6 C 46 %
3362 19-05-2017 00:28:17 13.6 C 46 %
3363 19-05-2017 00:40:17 13.5 C 51 %
3364 19-05-2017 00:51:17 13.4 C 51 %
3365 19-05-2017 01:04:17 13.5 C 53 %
3366 19-05-2017 01:16:17 13.5 C 53 %
3367 19-05-2017 01:27:17 14.2 C 58 %
3368 19-05-2017 01:39:17 14.4 C 59 %
3369 19-05-2017 01:52:17 14.6 C 60 %
3370 19-05-2017 02:04:17 14.7 C 61 %
3371 19-05-2017 02:16:17 14.7 C 60 %
3372 19-05-2017 02:28:17 14.6 C 60 %
3373 19-05-2017 02:40:17 14.8 C 61 %
3374 19-05-2017 02:52:17 14.9 C 62 %
3375 19-05-2017 03:04:17 14.9 C 62 %
Sensor: Nr:Datum:Temp:Feuchte:
Aussen-T/F 3376 19-05-2017 03:16:17 15 C 62 %
3377 19-05-2017 03:28:18 15.1 C 62 %
3378 19-05-2017 03:40:17 15 C 61 %
3379 19-05-2017 03:52:17 14.8 C 61 %
3380 19-05-2017 04:04:17 14.6 C 60 %
3381 19-05-2017 04:16:17 14.7 C 61 %
3382 19-05-2017 04:28:17 14.7 C 61 %
3383 19-05-2017 04:40:17 14.7 C 62 %
3384 19-05-2017 04:52:17 14.6 C 62 %
3385 19-05-2017 05:04:17 14.6 C 62 %
3386 19-05-2017 05:16:17 14.6 C 62 %
3387 19-05-2017 05:28:17 14.6 C 62 %
3388 19-05-2017 05:40:17 14.6 C 62 %
3389 19-05-2017 05:52:17 14.7 C 62 %
3390 19-05-2017 06:04:17 14.6 C 62 %
3391 19-05-2017 06:16:16 14.6 C 62 %
3392 19-05-2017 06:28:17 14.8 C 63 %
3393 19-05-2017 06:40:17 14.8 C 63 %
3394 19-05-2017 06:52:17 14.9 C 62 %
3395 19-05-2017 07:04:17 15 C 62 %
3396 19-05-2017 07:16:17 15.1 C 62 %
3397 19-05-2017 07:28:17 15.1 C 62 %
3398 19-05-2017 07:40:17 15.1 C 62 %
3399 19-05-2017 07:52:17 15 C 61 %
3400 19-05-2017 08:04:17 14.5 C 59 %
Sensor: Nr:Datum:Temp:Feuchte:
Aussen-T/F 3401 19-05-2017 08:16:17 14 C 56 %
3402 19-05-2017 08:28:17 14 C 56 %
3403 19-05-2017 08:40:17 14.1 C 57 %
3404 19-05-2017 08:52:17 14.1 C 57 %
3405 19-05-2017 09:04:17 14 C 55 %
3406 19-05-2017 09:16:17 13.9 C 51 %
3407 19-05-2017 09:28:17 13.7 C 45 %
3408 19-05-2017 09:40:17 13.7 C 43 %
3409 19-05-2017 09:52:17 13.7 C 41 %
3410 19-05-2017 10:04:17 13.6 C 41 %
3411 19-05-2017 10:16:17 13.5 C 40 %
3412 19-05-2017 10:28:17 13.5 C 40 %
3413 19-05-2017 10:40:17 13.5 C 40 %
3414 19-05-2017 10:52:17 12.9 C 39 %
3415 19-05-2017 11:04:17 12.9 C 39 %
3416 19-05-2017 11:16:17 13.1 C 38 %
3417 19-05-2017 11:28:17 13.1 C 38 %
3418 19-05-2017 11:40:17 13.1 C 37 %
3419 19-05-2017 11:52:17 13.1 C 37 %
3420 19-05-2017 12:04:17 13 C 36 %
3421 19-05-2017 12:16:17 13.1 C 36 %
3422 19-05-2017 12:28:17 13.3 C 36 %
3423 19-05-2017 12:40:17 13.3 C 35 %
3424 19-05-2017 12:52:17 13.5 C 35 %
3425 19-05-2017 13:04:17 13.5 C 33 %
Sensor: Nr:Datum:Temp:Feuchte:
Aussen-T/F 3426 19-05-2017 13:16:17 13.4 C 33 %
3427 19-05-2017 13:28:17 13.2 C 32 %
3428 19-05-2017 13:40:17 13.2 C 32 %
3429 19-05-2017 13:52:17 13 C 31 %
3430 19-05-2017 14:04:17 12.8 C 34 %
3431 19-05-2017 14:16:17 12.7 C 35 %
3432 19-05-2017 14:28:17 12.7 C 35 %
3433 19-05-2017 14:40:17 12.4 C 35 %
3434 19-05-2017 14:52:17 12.5 C 36 %
3435 19-05-2017 15:04:17 12.5 C 36 %
3436 19-05-2017 15:16:17 12.5 C 36 %
3437 19-05-2017 15:28:17 12.6 C 36 %
3438 19-05-2017 15:40:17 12.4 C 36 %
3439 19-05-2017 15:52:17 12.7 C 36 %
3440 19-05-2017 16:04:17 13.2 C 36 %
3441 19-05-2017 16:16:17 12.9 C 33 %
3442 19-05-2017 16:28:17 12.4 C 32 %
3443 19-05-2017 16:40:17 12.3 C 34 %
3444 19-05-2017 16:52:17 12.2 C 35 %
3445 19-05-2017 17:04:17 12.2 C 35 %
3446 19-05-2017 17:16:17 12.2 C 35 %
3447 19-05-2017 17:28:17 12.2 C 36 %
3448 19-05-2017 17:40:17 12.1 C 36 %
3449 19-05-2017 17:52:17 12 C 35 %
3450 19-05-2017 18:04:17 12.3 C 36 %
Sensor: Nr:Datum:Temp:Feuchte:
Aussen-T/F 3451 19-05-2017 18:16:17 12.4 C 36 %
3452 19-05-2017 18:28:17 12.4 C 36 %
3453 19-05-2017 18:40:17 12.4 C 36 %
3454 19-05-2017 18:52:17 12.6 C 36 %
3455 19-05-2017 19:04:17 12.4 C 36 %
3456 19-05-2017 19:16:17 12.4 C 37 %
3457 19-05-2017 19:28:17 12.4 C 37 %
3458 19-05-2017 19:40:17 12.4 C 37 %
3459 19-05-2017 19:52:17 12.1 C 39 %
3460 19-05-2017 20:04:17 12.1 C 39 %
3461 19-05-2017 20:16:17 12.1 C 39 %
3462 19-05-2017 20:28:17 11.5 C 40 %
3463 19-05-2017 20:40:17 11.5 C 40 %
3464 19-05-2017 20:52:17 11.4 C 41 %
3465 19-05-2017 21:04:17 11.2 C 42 %
3466 19-05-2017 21:16:17 11.2 C 43 %
3467 19-05-2017 21:28:17 11.2 C 44 %
3468 19-05-2017 21:40:17 11.2 C 45 %
3469 19-05-2017 21:52:17 11.1 C 45 %
3470 19-05-2017 22:04:17 11.1 C 46 %
3471 19-05-2017 22:16:17 11.1 C 46 %
3472 19-05-2017 22:28:17 10.9 C 49 %
3473 19-05-2017 22:40:17 10.9 C 50 %
3474 19-05-2017 22:52:17 10.9 C 50 %
3475 19-05-2017 23:04:17 10.7 C 49 %
Sensor: Nr:Datum:Temp:Feuchte:
Aussen-T/F 3476 19-05-2017 23:16:18 10.6 C 50 %
3477 19-05-2017 23:28:18 10.4 C 49 %
3478 19-05-2017 23:40:17 10.4 C 49 %
3479 19-05-2017 23:52:17 10.2 C 49 %
3480 20-05-2017 00:04:17 10.2 C 49 %
3481 20-05-2017 00:16:17 10.2 C 49 %
3482 20-05-2017 00:28:17 10.2 C 49 %
3483 20-05-2017 00:40:17 10.2 C 49 %
3484 20-05-2017 00:52:17 10.2 C 49 %
3485 20-05-2017 01:04:18 10.2 C 49 %
3486 20-05-2017 01:16:17 10.2 C 49 %
3487 20-05-2017 01:28:17 10.2 C 49 %
3488 20-05-2017 01:40:17 10.2 C 49 %
3489 20-05-2017 01:52:17 10.2 C 49 %
3490 20-05-2017 02:04:17 10.2 C 49 %
3491 20-05-2017 02:16:17 10.2 C 49 %
3492 20-05-2017 02:28:17 10.2 C 49 %
3493 20-05-2017 02:40:17 8.2 C 59 %
3494 20-05-2017 02:52:17 8.2 C 59 %
3495 20-05-2017 03:04:17 8.2 C 59 %
3496 20-05-2017 03:16:17 8.2 C 59 %
3497 20-05-2017 03:28:17 8.2 C 59 %
3498 20-05-2017 03:40:17 8.2 C 59 %
3499 20-05-2017 03:52:17 8.2 C 59 %
3500 20-05-2017 04:04:18 8.2 C 59 %
Sensor: Nr:Datum:Temp:Feuchte:
Aussen-T/F 3501 20-05-2017 04:16:17 8.2 C 59 %
3502 20-05-2017 04:28:17 8.2 C 59 %
3503 20-05-2017 04:40:18 8.2 C 59 %
3504 20-05-2017 04:52:17 7.4 C 63 %
3505 20-05-2017 05:04:17 7.4 C 63 %
3506 20-05-2017 05:16:17 7.4 C 63 %
3507 20-05-2017 05:28:17 6.9 C 62 %
3508 20-05-2017 05:40:17 6.7 C 61 %
3509 20-05-2017 05:52:17 6.7 C 61 %
3510 20-05-2017 06:04:17 6.7 C 61 %
3511 20-05-2017 06:16:17 6.7 C 61 %
3512 20-05-2017 06:28:17 6.7 C 61 %
3513 20-05-2017 06:40:17 6.7 C 60 %
3514 20-05-2017 06:52:17 6.7 C 60 %
3515 20-05-2017 07:04:17 6.7 C 60 %
3516 20-05-2017 07:16:17 6.7 C 60 %
3517 20-05-2017 07:28:17 6.7 C 60 %
3518 20-05-2017 07:40:17 6.9 C 61 %
3519 20-05-2017 07:52:17 6.9 C 61 %
3520 20-05-2017 08:04:17 6.9 C 61 %
3521 20-05-2017 08:16:16 6.9 C 61 %
3522 20-05-2017 08:28:17 8 C 64 %
3523 20-05-2017 08:40:17 8 C 64 %
3524 20-05-2017 08:52:17 8 C 64 %
3525 20-05-2017 09:04:17 9.3 C 65 %
Sensor: Nr:Datum:Temp:Feuchte:
Aussen-T/F 3526 20-05-2017 09:16:17 10 C 62 %
3527 20-05-2017 09:28:17 10.2 C 63 %
3528 20-05-2017 09:40:17 10.2 C 63 %
3529 20-05-2017 09:52:17 10.2 C 63 %
3530 20-05-2017 10:04:17 11.4 C 42 %
3531 20-05-2017 10:16:17 11.4 C 42 %
3532 20-05-2017 10:28:17 11.4 C 42 %
3533 20-05-2017 10:40:17 12.1 C 36 %
3534 20-05-2017 10:52:17 12.9 C 28 %
3535 20-05-2017 11:04:17 15.2 C 20 %
3536 20-05-2017 11:16:17 15.2 C 20 %
3537 20-05-2017 11:28:17 15.2 C 20 %
3538 20-05-2017 11:40:17 15.2 C 20 %
3539 20-05-2017 11:52:17 15.2 C 20 %
3540 20-05-2017 12:04:17 15.2 C 20 %
3541 20-05-2017 12:16:18 15.5 C 20 %
3542 20-05-2017 12:28:18 15.3 C 20 %
3543 20-05-2017 12:40:17 15.3 C 20 %
3544 20-05-2017 12:52:17 16.2 C 20 %
3545 20-05-2017 13:04:17 17.5 C 20 %
3546 20-05-2017 13:16:17 17.5 C 20 %
3547 20-05-2017 13:28:17 17.6 C 20 %
3548 20-05-2017 13:40:18 17.2 C 20 %
3549 20-05-2017 13:52:17 17.7 C 20 %
3550 20-05-2017 14:04:17 18.4 C 20 %
Sensor: Nr:Datum:Temp:Feuchte:
Aussen-T/F 3551 20-05-2017 14:16:17 18.1 C 20 %
3552 20-05-2017 14:28:17 18.6 C 20 %
3553 20-05-2017 14:40:17 20 C 20 %
3554 20-05-2017 14:52:17 22.2 C 20 %
3555 20-05-2017 15:04:17 22.5 C 20 %
3556 20-05-2017 15:16:17 22 C 20 %
3557 20-05-2017 15:28:17 20.6 C 20 %
3558 20-05-2017 15:40:17 19.5 C 20 %
3559 20-05-2017 15:52:17 19.5 C 20 %
3560 20-05-2017 16:04:17 19.9 C 20 %
3561 20-05-2017 16:16:17 19.9 C 20 %
3562 20-05-2017 16:28:17 19.9 C 20 %
3563 20-05-2017 16:40:17 19.9 C 20 %
3564 20-05-2017 16:52:17 18.9 C 20 %
3565 20-05-2017 17:04:17 18.9 C 20 %
3566 20-05-2017 17:16:17 18.4 C 20 %
3567 20-05-2017 17:28:17 18.5 C 20 %
3568 20-05-2017 17:40:17 18.5 C 20 %
3569 20-05-2017 17:52:17 18.7 C 20 %
3570 20-05-2017 18:04:17 18.7 C 20 %
3571 20-05-2017 18:16:17 19.2 C 20 %
3572 20-05-2017 18:28:17 22.6 C 20 %
3573 20-05-2017 18:40:17 22.9 C 20 %
3574 20-05-2017 18:52:17 20.8 C 20 %
3575 20-05-2017 19:04:17 18.9 C 20 %
Sensor: Nr:Datum:Temp:Feuchte:
Aussen-T/F 3576 20-05-2017 19:16:17 17.4 C 20 %
3577 20-05-2017 19:28:17 16.3 C 20 %
3578 20-05-2017 19:40:17 16.3 C 20 %
3579 20-05-2017 19:52:17 15.4 C 20 %
3580 20-05-2017 20:04:17 14.6 C 20 %
3581 20-05-2017 20:16:17 14.4 C 20 %
3582 20-05-2017 20:28:17 13.6 C 20 %
3583 20-05-2017 20:40:17 12.8 C 20 %
3584 20-05-2017 20:52:17 12.4 C 20 %
3585 20-05-2017 21:04:17 11.8 C 20 %
3586 20-05-2017 21:16:17 11.4 C 20 %
3587 20-05-2017 21:28:17 11 C 20 %
3588 20-05-2017 21:40:17 10.8 C 21 %
3589 20-05-2017 21:52:17 10.8 C 25 %
3590 20-05-2017 22:04:17 10.4 C 25 %
3591 20-05-2017 22:16:17 10.1 C 26 %
3592 20-05-2017 22:28:17 9.7 C 27 %
3593 20-05-2017 22:40:17 9.4 C 29 %
3594 20-05-2017 22:52:17 9.4 C 29 %
3595 20-05-2017 23:04:17 9.4 C 29 %
3596 20-05-2017 23:16:17 9.4 C 29 %
3597 20-05-2017 23:28:17 8.4 C 35 %
3598 20-05-2017 23:40:17 8.4 C 35 %
3599 20-05-2017 23:52:17 8.4 C 35 %
3600 21-05-2017 00:04:18 8.4 C 35 %
Sensor: Nr:Datum:Temp:Feuchte:
Aussen-T/F 3601 21-05-2017 00:16:17 8.4 C 35 %
3602 21-05-2017 00:28:17 7.6 C 38 %
3603 21-05-2017 00:40:18 7.5 C 38 %
3604 21-05-2017 00:52:17 7.5 C 38 %
3605 21-05-2017 01:04:17 7.5 C 38 %
3606 21-05-2017 01:16:17 7 C 40 %
3607 21-05-2017 01:28:17 7 C 40 %
3608 21-05-2017 01:40:17 7 C 40 %
3609 21-05-2017 01:52:17 7 C 40 %
3610 21-05-2017 02:04:17 7 C 40 %
3611 21-05-2017 02:16:17 6.8 C 42 %
3612 21-05-2017 02:28:17 6.8 C 42 %
3613 21-05-2017 02:40:17 6.4 C 42 %
3614 21-05-2017 02:52:17 6.4 C 42 %
3615 21-05-2017 03:04:17 6.4 C 42 %
3616 21-05-2017 03:16:17 6.1 C 43 %
3617 21-05-2017 03:28:17 6.1 C 43 %
3618 21-05-2017 03:40:17 6.1 C 43 %
3619 21-05-2017 03:52:17 6.1 C 43 %
3620 21-05-2017 04:04:17 6.1 C 43 %
3621 21-05-2017 04:16:17 6.1 C 43 %
3622 21-05-2017 04:28:17 6.1 C 43 %
3623 21-05-2017 04:40:18 6.1 C 43 %
3624 21-05-2017 04:52:17 6.1 C 43 %
3625 21-05-2017 05:04:17 6.1 C 43 %
Sensor: Nr:Datum:Temp:Feuchte:
Aussen-T/F 3626 21-05-2017 05:16:17 6.1 C 43 %
3627 21-05-2017 05:28:17 6.1 C 43 %
3628 21-05-2017 05:40:17 6.1 C 43 %
3629 21-05-2017 05:52:17 6.1 C 43 %
3630 21-05-2017 06:04:17 6.1 C 43 %
3631 21-05-2017 06:16:17 6.1 C 43 %
3632 21-05-2017 06:28:17 6.1 C 43 %
3633 21-05-2017 06:40:17 6.1 C 43 %
3634 21-05-2017 06:52:17 6.1 C 43 %
3635 21-05-2017 07:04:17 6.1 C 43 %
3636 21-05-2017 07:16:17 6.1 C 43 %
3637 21-05-2017 07:28:17 6.1 C 43 %
3638 21-05-2017 07:40:17 6.1 C 43 %
3639 21-05-2017 07:52:16 6.1 C 43 %
3640 21-05-2017 08:04:18 6.1 C 43 %
3641 21-05-2017 08:16:17 6.1 C 43 %
3642 21-05-2017 08:28:17 7.2 C 43 %
3643 21-05-2017 08:40:17 7.4 C 43 %
3644 21-05-2017 08:52:17 7.8 C 43 %
3645 21-05-2017 09:04:17 8.1 C 42 %
3646 21-05-2017 09:16:17 8.5 C 42 %
3647 21-05-2017 09:28:17 10.1 C 42 %
3648 21-05-2017 09:40:17 11 C 34 %
3649 21-05-2017 09:52:17 10.8 C 30 %
3650 21-05-2017 10:04:17 11.3 C 30 %
Sensor: Nr:Datum:Temp:Feuchte:
Aussen-T/F 3651 21-05-2017 10:16:17 11.7 C 29 %
3652 21-05-2017 10:28:17 12 C 27 %
3653 21-05-2017 10:40:17 17 C 30 %
3654 21-05-2017 10:52:17 17.6 C 20 %
3655 21-05-2017 11:04:17 16.7 C 20 %
3656 21-05-2017 11:16:17 17.1 C 20 %
3657 21-05-2017 11:28:17 18.8 C 20 %
3658 21-05-2017 11:40:17 18.4 C 20 %
3659 21-05-2017 11:52:16 18.3 C 20 %
3660 21-05-2017 12:04:16 17.8 C 20 %
3661 21-05-2017 12:16:17 17.6 C 20 %
3662 21-05-2017 12:28:17 18.1 C 20 %
3663 21-05-2017 12:40:17 18.7 C 20 %
3664 21-05-2017 12:52:17 19.3 C 20 %
3665 21-05-2017 13:04:17 20.6 C 20 %
3666 21-05-2017 13:16:17 20.7 C 20 %
3667 21-05-2017 13:28:17 20.7 C 20 %
3668 21-05-2017 13:40:17 21.1 C 20 %
3669 21-05-2017 13:52:17 21.1 C 20 %
3670 21-05-2017 14:04:17 21 C 20 %
3671 21-05-2017 14:16:17 21 C 20 %
3672 21-05-2017 14:28:17 20.4 C 20 %
3673 21-05-2017 14:40:17 20.3 C 20 %
3674 21-05-2017 14:52:17 20.3 C 20 %
3675 21-05-2017 15:04:17 26.3 C 20 %
Sensor: Nr:Datum:Temp:Feuchte:
Aussen-T/F 3676 21-05-2017 15:16:17 26.3 C 20 %
3677 21-05-2017 15:28:17 23.6 C 20 %
3678 21-05-2017 15:40:17 23.8 C 20 %
3679 21-05-2017 15:52:17 22.9 C 20 %
3680 21-05-2017 16:04:17 22.9 C 20 %
3681 21-05-2017 16:16:17 24 C 20 %
3682 21-05-2017 16:28:17 25.4 C 20 %
3683 21-05-2017 16:40:17 25.4 C 20 %
3684 21-05-2017 16:52:17 25.4 C 20 %
3685 21-05-2017 17:04:17 25 C 20 %
3686 21-05-2017 17:16:17 26.1 C 20 %
3687 21-05-2017 17:28:17 27.8 C 20 %
3688 21-05-2017 17:40:17 33.8 C 20 %
3689 21-05-2017 17:52:17 34 C 20 %
3690 21-05-2017 18:04:17 31.1 C 20 %
3691 21-05-2017 18:16:17 32.7 C 20 %
3692 21-05-2017 18:28:17 28.3 C 20 %
3693 21-05-2017 18:40:17 25.8 C 20 %
3694 21-05-2017 18:52:17 30.4 C 20 %
3695 21-05-2017 19:04:17 31.5 C 20 %
3696 21-05-2017 19:16:17 27.1 C 20 %
3697 21-05-2017 19:28:17 25.2 C 20 %
3698 21-05-2017 19:40:17 22.6 C 20 %
3699 21-05-2017 19:52:17 21.3 C 20 %
3700 21-05-2017 20:04:17 19.9 C 20 %
Sensor: Nr:Datum:Temp:Feuchte:
Aussen-T/F 3701 21-05-2017 20:16:17 18.8 C 20 %
3702 21-05-2017 20:28:17 17.9 C 20 %
3703 21-05-2017 20:40:17 17.3 C 20 %
3704 21-05-2017 20:52:17 16.7 C 20 %
3705 21-05-2017 21:04:17 16 C 20 %
3706 21-05-2017 21:16:17 15.1 C 20 %
3707 21-05-2017 21:28:17 14.6 C 20 %
3708 21-05-2017 21:40:17 14.2 C 20 %
3709 21-05-2017 21:52:17 14 C 20 %
3710 21-05-2017 22:04:17 13.6 C 20 %
3711 21-05-2017 22:16:17 13.2 C 20 %
3712 21-05-2017 22:28:17 13 C 20 %
3713 21-05-2017 22:40:17 12.6 C 20 %
3714 21-05-2017 22:52:17 12.5 C 20 %
3715 21-05-2017 23:04:17 12.2 C 20 %
3716 21-05-2017 23:16:17 11.9 C 20 %
3717 21-05-2017 23:28:17 11.5 C 21 %
3718 21-05-2017 23:40:17 11.2 C 22 %
3719 21-05-2017 23:52:17 11.2 C 25 %
3720 22-05-2017 00:04:17 10.8 C 26 %
3721 22-05-2017 00:16:17 10.7 C 27 %
3722 22-05-2017 00:28:17 10.5 C 28 %
3723 22-05-2017 00:40:17 10.5 C 28 %
3724 22-05-2017 00:52:17 10 C 30 %
3725 22-05-2017 01:04:17 9.8 C 31 %
Sensor: Nr:Datum:Temp:Feuchte:
Aussen-T/F 3726 22-05-2017 01:16:17 9.7 C 32 %
3727 22-05-2017 01:28:17 9.4 C 32 %
3728 22-05-2017 01:40:17 9.3 C 33 %
3729 22-05-2017 01:52:17 9.1 C 34 %
3730 22-05-2017 02:04:17 9.1 C 34 %
3731 22-05-2017 02:16:17 9.1 C 34 %
3732 22-05-2017 02:28:17 8.7 C 36 %
3733 22-05-2017 02:40:17 8.6 C 37 %
3734 22-05-2017 02:52:18 8.5 C 37 %
3735 22-05-2017 03:04:17 8.4 C 38 %
3736 22-05-2017 03:16:17 8.4 C 38 %
3737 22-05-2017 03:28:17 8.3 C 39 %
3738 22-05-2017 03:40:17 8.4 C 39 %
3739 22-05-2017 03:52:17 8.3 C 40 %
3740 22-05-2017 04:04:17 8 C 40 %
3741 22-05-2017 04:16:17 7.8 C 41 %
3742 22-05-2017 04:28:17 7.6 C 41 %
3743 22-05-2017 04:40:17 7.6 C 41 %
3744 22-05-2017 04:52:17 7.5 C 41 %
3745 22-05-2017 05:04:17 7.5 C 41 %
3746 22-05-2017 05:16:17 7.3 C 42 %
3747 22-05-2017 05:28:17 7.3 C 42 %
3748 22-05-2017 05:40:17 7.3 C 42 %
3749 22-05-2017 05:52:17 7.2 C 43 %
3750 22-05-2017 06:04:17 7.1 C 43 %
Sensor: Nr:Datum:Temp:Feuchte:
Aussen-T/F 3751 22-05-2017 06:16:17 7.1 C 43 %
3752 22-05-2017 06:28:17 7.3 C 44 %
3753 22-05-2017 06:40:17 7.5 C 44 %
3754 22-05-2017 06:52:17 7.6 C 44 %
3755 22-05-2017 07:04:17 7.7 C 44 %
3756 22-05-2017 07:16:17 7.8 C 44 %
3757 22-05-2017 07:28:17 8.1 C 44 %
3758 22-05-2017 07:40:17 8.1 C 44 %
3759 22-05-2017 07:52:17 8.4 C 45 %
3760 22-05-2017 08:04:17 8.6 C 45 %
3761 22-05-2017 08:16:17 9.1 C 45 %
3762 22-05-2017 08:28:17 9.1 C 45 %
3763 22-05-2017 08:40:17 9.8 C 45 %
3764 22-05-2017 08:52:17 10.3 C 44 %
3765 22-05-2017 09:04:17 10.8 C 44 %
3766 22-05-2017 09:16:17 11 C 42 %
3767 22-05-2017 09:28:17 12.5 C 40 %
3768 22-05-2017 09:40:17 13.6 C 40 %
3769 22-05-2017 09:52:17 13.7 C 25 %
3770 22-05-2017 10:04:17 14.1 C 23 %
3771 22-05-2017 10:16:17 14.5 C 20 %
3772 22-05-2017 10:28:17 15.4 C 20 %
3773 22-05-2017 10:40:17 21.4 C 20 %
3774 22-05-2017 10:52:17 21.1 C 20 %
3775 22-05-2017 11:04:17 19.9 C 20 %
Sensor: Nr:Datum:Temp:Feuchte:
Aussen-T/F 3776 22-05-2017 11:16:17 19.9 C 20 %
3777 22-05-2017 11:28:17 21 C 20 %
3778 22-05-2017 11:40:17 20.9 C 20 %
3779 22-05-2017 11:52:17 20.9 C 20 %
3780 22-05-2017 12:04:17 21 C 20 %
3781 22-05-2017 12:16:17 21.5 C 20 %
3782 22-05-2017 12:28:17 21.7 C 20 %
3783 22-05-2017 12:40:17 22.1 C 20 %
3784 22-05-2017 12:52:17 22.8 C 20 %
3785 22-05-2017 13:04:17 23.3 C 20 %
3786 22-05-2017 13:16:17 23.7 C 20 %
3787 22-05-2017 13:28:17 23.7 C 20 %
3788 22-05-2017 13:40:17 23.6 C 20 %
3789 22-05-2017 13:52:17 23.8 C 20 %
3790 22-05-2017 14:04:17 23.7 C 20 %
3791 22-05-2017 14:16:17 25.2 C 20 %
3792 22-05-2017 14:28:17 25.5 C 20 %
3793 22-05-2017 14:40:17 27.9 C 20 %
3794 22-05-2017 14:52:17 31 C 20 %
3795 22-05-2017 15:04:18 30.4 C 20 %
3796 22-05-2017 15:16:17 29.1 C 20 %
3797 22-05-2017 15:28:17 28.7 C 20 %
3798 22-05-2017 15:40:17 29 C 20 %
3799 22-05-2017 15:52:17 27 C 20 %
3800 22-05-2017 16:04:17 26.5 C 20 %
Sensor: Nr:Datum:Temp:Feuchte:
Aussen-T/F 3801 22-05-2017 16:16:17 27.4 C 20 %
3802 22-05-2017 16:28:17 29 C 20 %
3803 22-05-2017 16:40:17 30.6 C 20 %
3804 22-05-2017 16:52:17 28.7 C 20 %
3805 22-05-2017 17:04:17 29.3 C 20 %
3806 22-05-2017 17:16:17 30.1 C 20 %
3807 22-05-2017 17:28:17 31.1 C 20 %
3808 22-05-2017 17:40:17 36.6 C 20 %
3809 22-05-2017 17:52:16 38.3 C 20 %
3810 22-05-2017 18:04:17 28.7 C 20 %
3811 22-05-2017 18:16:18 28.7 C 20 %
3812 22-05-2017 18:28:18 36.5 C 20 %
3813 22-05-2017 18:40:17 37.2 C 20 %
3814 22-05-2017 18:52:17 38 C 20 %
3815 22-05-2017 19:04:17 33.8 C 20 %
3816 22-05-2017 19:16:17 29.7 C 20 %
3817 22-05-2017 19:28:17 24.7 C 20 %
3818 22-05-2017 19:40:17 22.9 C 20 %
3819 22-05-2017 19:52:17 22.1 C 20 %
3820 22-05-2017 20:04:17 21.2 C 20 %
3821 22-05-2017 20:16:18 20.4 C 20 %
3822 22-05-2017 20:28:18 19.8 C 20 %
3823 22-05-2017 20:40:17 19.1 C 20 %
3824 22-05-2017 20:52:17 18.5 C 20 %
3825 22-05-2017 21:04:17 17.7 C 20 %
Sensor: Nr:Datum:Temp:Feuchte:
Aussen-T/F 3826 22-05-2017 21:16:18 17.1 C 20 %
3827 22-05-2017 21:28:18 16.5 C 20 %
3828 22-05-2017 21:40:17 16.1 C 20 %
3829 22-05-2017 21:52:17 15.9 C 20 %
3830 22-05-2017 22:04:17 15.8 C 20 %
3831 22-05-2017 22:16:18 15.9 C 20 %
3832 22-05-2017 22:28:18 15.7 C 20 %
3833 22-05-2017 22:40:17 15.4 C 20 %
3834 22-05-2017 22:52:17 15.1 C 20 %
3835 22-05-2017 23:04:17 15 C 20 %
3836 22-05-2017 23:16:17 14.8 C 20 %
3837 22-05-2017 23:28:17 14.8 C 20 %
3838 22-05-2017 23:40:17 14.9 C 20 %
3839 22-05-2017 23:52:17 14.8 C 20 %
3840 23-05-2017 00:04:17 14.5 C 20 %
3841 23-05-2017 00:16:17 14.2 C 20 %
3842 23-05-2017 00:28:17 14 C 20 %
3843 23-05-2017 00:40:17 13.9 C 20 %
3844 23-05-2017 00:52:17 13.9 C 20 %
3845 23-05-2017 01:04:17 13.8 C 20 %
3846 23-05-2017 01:16:17 13.5 C 20 %
3847 23-05-2017 01:28:17 13.4 C 21 %
3848 23-05-2017 01:40:17 13.2 C 21 %
3849 23-05-2017 01:52:17 13.1 C 23 %
3850 23-05-2017 02:04:17 13.1 C 23 %
Sensor: Nr:Datum:Temp:Feuchte:
Aussen-T/F 3851 23-05-2017 02:16:17 13 C 23 %
3852 23-05-2017 02:28:17 12.9 C 25 %
3853 23-05-2017 02:40:17 12.8 C 25 %
3854 23-05-2017 02:52:17 12.8 C 26 %
3855 23-05-2017 03:04:17 12.6 C 27 %
3856 23-05-2017 03:16:17 12.4 C 27 %
3857 23-05-2017 03:28:17 11.9 C 28 %
3858 23-05-2017 03:40:17 11.7 C 30 %
3859 23-05-2017 03:52:17 11.4 C 30 %
3860 23-05-2017 04:04:17 11.2 C 31 %
3861 23-05-2017 04:16:17 11 C 31 %
3862 23-05-2017 04:28:17 11 C 32 %
3863 23-05-2017 04:40:17 10.7 C 33 %
3864 23-05-2017 04:52:17 10.8 C 34 %
3865 23-05-2017 05:04:17 11.1 C 35 %
3866 23-05-2017 05:16:17 11.4 C 35 %
3867 23-05-2017 05:28:17 11.6 C 35 %
3868 23-05-2017 05:40:17 11.7 C 35 %
3869 23-05-2017 05:52:17 11.8 C 35 %
3870 23-05-2017 06:04:17 11.9 C 35 %
3871 23-05-2017 06:16:17 12 C 35 %
3872 23-05-2017 06:28:17 12.1 C 34 %
3873 23-05-2017 06:40:17 12.3 C 34 %
3874 23-05-2017 06:52:17 12 C 33 %
3875 23-05-2017 07:04:17 11.9 C 34 %
Sensor: Nr:Datum:Temp:Feuchte:
Aussen-T/F 3876 23-05-2017 07:16:17 11.7 C 34 %
3877 23-05-2017 07:28:17 11.7 C 35 %
3878 23-05-2017 07:40:17 11.7 C 35 %
3879 23-05-2017 07:52:17 12 C 35 %
3880 23-05-2017 08:04:17 12 C 35 %
3881 23-05-2017 08:16:18 12.3 C 35 %
3882 23-05-2017 08:28:18 12.6 C 36 %
3883 23-05-2017 08:40:17 13.2 C 35 %
3884 23-05-2017 08:52:17 13.4 C 35 %
3885 23-05-2017 09:04:17 14.4 C 31 %
3886 23-05-2017 09:16:17 15.1 C 28 %
3887 23-05-2017 09:28:17 16.2 C 25 %
3888 23-05-2017 09:40:17 17.5 C 20 %
3889 23-05-2017 09:52:17 17.5 C 20 %
3890 23-05-2017 10:04:17 18.8 C 20 %
3891 23-05-2017 10:16:17 19.7 C 20 %
3892 23-05-2017 10:28:17 21 C 20 %
3893 23-05-2017 10:40:17 22.3 C 20 %
3894 23-05-2017 10:52:17 24.5 C 20 %
3895 23-05-2017 11:04:17 24.1 C 20 %
3896 23-05-2017 11:16:17 24.1 C 20 %
3897 23-05-2017 11:28:17 24.4 C 20 %
3898 23-05-2017 11:40:17 24.2 C 20 %
3899 23-05-2017 11:52:17 25 C 20 %
3900 23-05-2017 12:04:17 24.8 C 20 %
Sensor: Nr:Datum:Temp:Feuchte:
Aussen-T/F 3901 23-05-2017 12:16:18 25.5 C 20 %
3902 23-05-2017 12:28:18 25.4 C 20 %
3903 23-05-2017 12:40:18 24.9 C 20 %
3904 23-05-2017 12:52:17 25.1 C 20 %
3905 23-05-2017 13:04:18 25.5 C 20 %
3906 23-05-2017 13:16:17 26 C 20 %
3907 23-05-2017 13:28:17 26.5 C 20 %
3908 23-05-2017 13:40:17 27.1 C 20 %
3909 23-05-2017 13:52:17 26.9 C 20 %
3910 23-05-2017 14:04:17 26.6 C 20 %
3911 23-05-2017 14:16:17 27.3 C 20 %
3912 23-05-2017 14:28:17 27.6 C 20 %
3913 23-05-2017 14:40:17 29.8 C 20 %
3914 23-05-2017 14:52:17 31.5 C 20 %
3915 23-05-2017 15:04:17 30.9 C 20 %
3916 23-05-2017 15:16:17 29.3 C 20 %
3917 23-05-2017 15:28:17 28.5 C 20 %
3918 23-05-2017 15:40:17 28.8 C 20 %
3919 23-05-2017 15:52:17 28.6 C 20 %
3920 23-05-2017 16:04:17 28.5 C 20 %
3921 23-05-2017 16:16:17 28.3 C 20 %
3922 23-05-2017 16:28:17 30 C 20 %
3923 23-05-2017 16:40:18 27.4 C 20 %
3924 23-05-2017 16:52:17 28.6 C 20 %
3925 23-05-2017 17:04:17 28.6 C 20 %
Sensor: Nr:Datum:Temp:Feuchte:
Aussen-T/F 3926 23-05-2017 17:16:17 29.2 C 20 %
3927 23-05-2017 17:28:17 29.2 C 20 %
3928 23-05-2017 17:40:17 29.4 C 20 %
3929 23-05-2017 17:52:17 31.4 C 20 %
3930 23-05-2017 18:04:17 30.9 C 20 %
3931 23-05-2017 18:16:17 30.5 C 20 %
3932 23-05-2017 18:28:17 29.3 C 20 %
3933 23-05-2017 18:40:17 30.2 C 20 %
3934 23-05-2017 18:52:17 30.5 C 20 %
3935 23-05-2017 19:04:17 28.6 C 20 %
3936 23-05-2017 19:16:17 27.8 C 20 %
3937 23-05-2017 19:28:17 25.1 C 20 %
3938 23-05-2017 19:40:17 24.1 C 20 %
3939 23-05-2017 19:52:17 23.2 C 20 %
3940 23-05-2017 20:04:17 22.6 C 20 %
3941 23-05-2017 20:16:17 22 C 20 %
3942 23-05-2017 20:28:17 21.6 C 20 %
3943 23-05-2017 20:40:17 21.3 C 20 %
3944 23-05-2017 20:52:17 20.9 C 20 %
3945 23-05-2017 21:04:17 20 C 20 %
3946 23-05-2017 21:16:17 19.6 C 20 %
3947 23-05-2017 21:28:17 18.9 C 20 %
3948 23-05-2017 21:40:18 18.6 C 20 %
3949 23-05-2017 21:52:17 18.3 C 20 %
3950 23-05-2017 22:04:17 18.1 C 20 %
Sensor: Nr:Datum:Temp:Feuchte:
Aussen-T/F 3951 23-05-2017 22:16:17 17.8 C 20 %
3952 23-05-2017 22:28:17 17.6 C 20 %
3953 23-05-2017 22:40:17 17.4 C 20 %
3954 23-05-2017 22:52:17 16.8 C 20 %
3955 23-05-2017 23:04:17 17 C 20 %
3956 23-05-2017 23:16:18 17 C 20 %
3957 23-05-2017 23:28:18 16.7 C 20 %
3958 23-05-2017 23:40:18 16.4 C 20 %
3959 23-05-2017 23:52:17 16.2 C 20 %
3960 24-05-2017 00:04:17 15.6 C 20 %
3961 24-05-2017 00:16:17 15.2 C 20 %
3962 24-05-2017 00:28:17 15.1 C 20 %
3963 24-05-2017 00:40:17 14.2 C 20 %
3964 24-05-2017 00:52:17 14.1 C 20 %
3965 24-05-2017 01:04:17 14.2 C 20 %
3966 24-05-2017 01:16:17 13.7 C 20 %
3967 24-05-2017 01:28:17 13.3 C 20 %
3968 24-05-2017 01:40:17 13.4 C 20 %
3969 24-05-2017 01:52:17 12.8 C 20 %
3970 24-05-2017 02:04:17 12.5 C 20 %
3971 24-05-2017 02:16:17 12.4 C 20 %
3972 24-05-2017 02:28:17 12.3 C 20 %
3973 24-05-2017 02:40:17 12.1 C 20 %
3974 24-05-2017 02:52:17 12.1 C 20 %
3975 24-05-2017 03:04:17 12.2 C 20 %
Sensor: Nr:Datum:Temp:Feuchte:
Aussen-T/F 3976 24-05-2017 03:16:17 12 C 20 %
3977 24-05-2017 03:28:17 11.4 C 20 %
3978 24-05-2017 03:40:17 11.4 C 20 %
3979 24-05-2017 03:52:17 11.2 C 20 %
3980 24-05-2017 04:04:17 11.2 C 20 %
3981 24-05-2017 04:16:17 11.2 C 20 %
3982 24-05-2017 04:28:17 11.1 C 20 %
3983 24-05-2017 04:40:17 10.9 C 20 %
3984 24-05-2017 04:52:17 10.9 C 20 %
3985 24-05-2017 05:04:17 10.8 C 20 %
3986 24-05-2017 05:16:17 10.6 C 20 %
3987 24-05-2017 05:28:17 10.3 C 20 %
3988 24-05-2017 05:40:17 10.2 C 21 %
3989 24-05-2017 05:52:17 10.1 C 22 %
3990 24-05-2017 06:04:17 9.9 C 25 %
3991 24-05-2017 06:16:17 9.9 C 26 %
3992 24-05-2017 06:28:17 10 C 26 %
3993 24-05-2017 06:40:17 10.3 C 26 %
3994 24-05-2017 06:52:17 10.4 C 26 %
3995 24-05-2017 07:04:17 10.5 C 25 %
3996 24-05-2017 07:16:17 10.7 C 26 %
3997 24-05-2017 07:28:17 11.5 C 25 %
3998 24-05-2017 07:40:17 12.3 C 20 %
3999 24-05-2017 07:52:17 12.6 C 20 %
4000 24-05-2017 08:04:17 12.8 C 20 %
Sensor: Nr:Datum:Temp:Feuchte:
Aussen-T/F 4001 24-05-2017 08:16:17 12.9 C 20 %
4002 24-05-2017 08:28:17 13.5 C 20 %
4003 24-05-2017 08:40:17 14.2 C 20 %
4004 24-05-2017 08:52:17 15.7 C 20 %
4005 24-05-2017 09:04:17 15.7 C 20 %
4006 24-05-2017 09:16:17 15.9 C 20 %
4007 24-05-2017 09:28:17 16.9 C 20 %
4008 24-05-2017 09:40:17 17.8 C 20 %
4009 24-05-2017 09:52:17 18.2 C 20 %
4010 24-05-2017 10:04:17 19 C 20 %
4011 24-05-2017 10:16:18 20 C 20 %
4012 24-05-2017 10:28:18 21.2 C 20 %
4013 24-05-2017 10:40:17 21 C 20 %
4014 24-05-2017 10:52:17 21.1 C 20 %
4015 24-05-2017 11:04:17 21.3 C 20 %
4016 24-05-2017 11:16:17 22.5 C 20 %
4017 24-05-2017 11:28:17 22.4 C 20 %
4018 24-05-2017 11:40:17 22.9 C 20 %
4019 24-05-2017 11:52:17 23 C 20 %
4020 24-05-2017 12:04:17 22.9 C 20 %
4021 24-05-2017 12:16:16 22.3 C 20 %
4022 24-05-2017 12:28:17 22.9 C 20 %
4023 24-05-2017 12:40:17 23.6 C 20 %
4024 24-05-2017 12:52:17 22.7 C 20 %
4025 24-05-2017 13:04:17 21.5 C 20 %
Sensor: Nr:Datum:Temp:Feuchte:
Aussen-T/F 4026 24-05-2017 13:16:17 20.8 C 20 %
4027 24-05-2017 13:28:17 21.3 C 20 %
4028 24-05-2017 13:40:17 21.7 C 20 %
4029 24-05-2017 13:52:17 21.3 C 20 %
4030 24-05-2017 14:04:17 21.5 C 20 %
4031 24-05-2017 14:16:17 21.9 C 20 %
4032 24-05-2017 14:28:17 21.7 C 20 %
4033 24-05-2017 14:40:17 21.5 C 20 %
4034 24-05-2017 14:52:17 21.7 C 20 %
4035 24-05-2017 15:04:18 21.8 C 20 %
4036 24-05-2017 15:16:17 21.6 C 20 %
4037 24-05-2017 15:28:17 22.7 C 20 %
4038 24-05-2017 15:40:17 22.1 C 20 %
4039 24-05-2017 15:52:17 22 C 20 %
4040 24-05-2017 16:04:17 21.6 C 20 %
4041 24-05-2017 16:16:17 22.6 C 20 %
4042 24-05-2017 16:28:17 22.5 C 20 %
4043 24-05-2017 16:40:17 22.6 C 20 %
4044 24-05-2017 16:52:17 23.1 C 20 %
4045 24-05-2017 17:04:17 22.5 C 20 %
4046 24-05-2017 17:16:18 21.6 C 20 %
4047 24-05-2017 17:28:18 22.2 C 20 %
4048 24-05-2017 17:40:17 21.8 C 20 %
4049 24-05-2017 17:52:17 22.5 C 20 %
4050 24-05-2017 18:04:17 23.2 C 20 %
Sensor: Nr:Datum:Temp:Feuchte:
Aussen-T/F 4051 24-05-2017 18:16:17 22.7 C 20 %
4052 24-05-2017 18:28:17 23.2 C 20 %
4053 24-05-2017 18:40:17 22.7 C 20 %
4054 24-05-2017 18:52:17 26.3 C 20 %
4055 24-05-2017 19:04:17 22.9 C 20 %
4056 24-05-2017 19:16:17 21.8 C 20 %
4057 24-05-2017 19:28:17 22.4 C 20 %
4058 24-05-2017 19:40:17 21.8 C 20 %
4059 24-05-2017 19:52:17 22.3 C 20 %
4060 24-05-2017 20:04:17 21.5 C 20 %
4061 24-05-2017 20:16:18 21.2 C 20 %
4062 24-05-2017 20:28:18 20.1 C 20 %
4063 24-05-2017 20:40:17 19.5 C 20 %
4064 24-05-2017 20:52:17 19 C 20 %
4065 24-05-2017 21:04:17 17.7 C 20 %
4066 24-05-2017 21:16:17 17.2 C 20 %
4067 24-05-2017 21:28:17 17.1 C 20 %
4068 24-05-2017 21:40:17 17.1 C 20 %
4069 24-05-2017 21:52:17 17.1 C 20 %
4070 24-05-2017 22:04:17 17.2 C 20 %
4071 24-05-2017 22:16:17 17.2 C 20 %
4072 24-05-2017 22:28:17 17.1 C 20 %
4073 24-05-2017 22:40:17 16.8 C 20 %
4074 24-05-2017 22:52:17 16.5 C 20 %
4075 24-05-2017 23:04:17 16.4 C 20 %
Sensor: Nr:Datum:Temp:Feuchte:
Aussen-T/F 4076 24-05-2017 23:16:17 16.4 C 20 %
4077 24-05-2017 23:28:17 16 C 20 %
4078 24-05-2017 23:40:17 15.6 C 20 %
4079 24-05-2017 23:52:17 15.5 C 20 %
4080 25-05-2017 00:04:17 15.4 C 21 %
4081 25-05-2017 00:16:17 15.4 C 21 %
4082 25-05-2017 00:28:17 15.7 C 20 %
4083 25-05-2017 00:40:17 15.4 C 20 %
4084 25-05-2017 00:52:17 15.4 C 20 %
4085 25-05-2017 01:04:17 15.6 C 20 %
4086 25-05-2017 01:16:17 15.6 C 20 %
4087 25-05-2017 01:28:17 15.8 C 20 %
4088 25-05-2017 01:40:17 15.8 C 20 %
4089 25-05-2017 01:52:17 15.8 C 20 %
4090 25-05-2017 02:04:17 15.5 C 20 %
4091 25-05-2017 02:16:17 15.4 C 20 %
4092 25-05-2017 02:28:17 15.6 C 20 %
4093 25-05-2017 02:40:17 15.7 C 20 %
4094 25-05-2017 02:52:17 15.4 C 20 %
4095 25-05-2017 03:04:17 14.8 C 20 %
4096 25-05-2017 03:16:17 14.7 C 24 %
4097 25-05-2017 03:28:17 14.7 C 25 %
4098 25-05-2017 03:40:17 14.5 C 25 %
4099 25-05-2017 03:52:17 14.8 C 21 %
4100 25-05-2017 04:04:17 15 C 20 %
Sensor: Nr:Datum:Temp:Feuchte:
Aussen-T/F 4101 25-05-2017 04:16:17 15 C 20 %
4102 25-05-2017 04:28:17 14.7 C 20 %
4103 25-05-2017 04:40:17 13.5 C 20 %
4104 25-05-2017 04:52:17 13.3 C 23 %
4105 25-05-2017 05:04:17 12.5 C 26 %
4106 25-05-2017 05:16:18 12.4 C 28 %
4107 25-05-2017 05:28:18 12.1 C 30 %
4108 25-05-2017 05:40:17 12 C 30 %
4109 25-05-2017 05:52:17 12 C 30 %
4110 25-05-2017 06:04:17 11.6 C 34 %
4111 25-05-2017 06:16:17 11.6 C 34 %
4112 25-05-2017 06:28:17 11.7 C 35 %
4113 25-05-2017 06:40:17 11.7 C 35 %
4114 25-05-2017 06:52:17 11.7 C 35 %
4115 25-05-2017 07:04:17 12.3 C 35 %
4116 25-05-2017 07:16:17 12.7 C 35 %
4117 25-05-2017 07:28:17 13 C 34 %
4118 25-05-2017 07:40:17 14 C 34 %
4119 25-05-2017 07:52:17 14.4 C 34 %
4120 25-05-2017 08:04:17 15.7 C 30 %
4121 25-05-2017 08:16:17 15.8 C 28 %
4122 25-05-2017 08:28:17 16.2 C 20 %
4123 25-05-2017 08:40:17 16.4 C 20 %
4124 25-05-2017 08:52:17 16.8 C 20 %
4125 25-05-2017 09:04:17 16.8 C 20 %
Sensor: Nr:Datum:Temp:Feuchte:
Aussen-T/F 4126 25-05-2017 09:16:17 17.4 C 20 %
4127 25-05-2017 09:28:17 17.4 C 20 %
4128 25-05-2017 09:40:17 17.8 C 20 %
4129 25-05-2017 09:52:17 18 C 20 %
4130 25-05-2017 10:04:17 18.9 C 20 %
4131 25-05-2017 10:16:17 19 C 20 %
4132 25-05-2017 10:28:17 18.7 C 20 %
4133 25-05-2017 10:40:17 20.5 C 20 %
4134 25-05-2017 10:52:17 22.1 C 20 %
4135 25-05-2017 11:04:17 20.4 C 20 %
4136 25-05-2017 11:16:17 20 C 20 %
4137 25-05-2017 11:28:17 20 C 20 %
4138 25-05-2017 11:40:17 21.5 C 20 %
4139 25-05-2017 11:52:17 20.7 C 20 %
4140 25-05-2017 12:04:17 20.6 C 20 %
4141 25-05-2017 12:16:17 20.1 C 20 %
4142 25-05-2017 12:28:17 20.1 C 20 %
4143 25-05-2017 12:40:18 20.1 C 20 %
4144 25-05-2017 12:52:17 20.6 C 20 %
4145 25-05-2017 13:04:17 20.8 C 20 %
4146 25-05-2017 13:16:17 21 C 20 %
4147 25-05-2017 13:28:17 21.1 C 20 %
4148 25-05-2017 13:40:17 21.3 C 20 %
4149 25-05-2017 13:52:17 21.8 C 20 %
4150 25-05-2017 14:04:17 22.5 C 20 %
Sensor: Nr:Datum:Temp:Feuchte:
Aussen-T/F 4151 25-05-2017 14:16:17 23.4 C 20 %
4152 25-05-2017 14:28:17 24.4 C 20 %
4153 25-05-2017 14:40:17 27.1 C 20 %
4154 25-05-2017 14:52:17 30 C 20 %
4155 25-05-2017 15:04:17 28.8 C 20 %
4156 25-05-2017 15:16:17 28.8 C 20 %
4157 25-05-2017 15:28:17 26.6 C 20 %
4158 25-05-2017 15:40:17 27.1 C 20 %
4159 25-05-2017 15:52:17 27 C 20 %
4160 25-05-2017 16:04:17 27.1 C 20 %
4161 25-05-2017 16:16:17 27.7 C 20 %
4162 25-05-2017 16:28:17 28.1 C 20 %
4163 25-05-2017 16:40:17 30.3 C 20 %
4164 25-05-2017 16:52:17 31.8 C 20 %
4165 25-05-2017 17:04:17 29.3 C 20 %
4166 25-05-2017 17:16:17 30 C 20 %
4167 25-05-2017 17:28:17 30.8 C 20 %
4168 25-05-2017 17:40:17 35 C 20 %
4169 25-05-2017 17:52:17 37.9 C 20 %
4170 25-05-2017 18:04:17 39.7 C 20 %
4171 25-05-2017 18:16:17 39.9 C 20 %
4172 25-05-2017 18:28:17 37.4 C 20 %
4173 25-05-2017 18:40:18 35.6 C 20 %
4174 25-05-2017 18:52:17 35.5 C 20 %
4175 25-05-2017 19:04:17 35.5 C 20 %
Sensor: Nr:Datum:Temp:Feuchte:
Aussen-T/F 4176 25-05-2017 19:16:17 33.6 C 20 %
4177 25-05-2017 19:28:17 26.7 C 20 %
4178 25-05-2017 19:40:17 25.3 C 20 %
4179 25-05-2017 19:52:17 24.5 C 20 %
4180 25-05-2017 20:04:17 24 C 20 %
4181 25-05-2017 20:16:17 23.9 C 20 %
4182 25-05-2017 20:28:17 23.9 C 20 %
4183 25-05-2017 20:40:17 23.2 C 20 %
4184 25-05-2017 20:52:17 23 C 20 %
4185 25-05-2017 21:04:17 22 C 20 %
4186 25-05-2017 21:16:17 21.4 C 20 %
4187 25-05-2017 21:28:17 21.1 C 20 %
4188 25-05-2017 21:40:17 19.6 C 20 %
4189 25-05-2017 21:52:17 18.6 C 20 %
4190 25-05-2017 22:04:17 18.1 C 20 %
4191 25-05-2017 22:16:18 18.1 C 20 %
4192 25-05-2017 22:28:18 17.2 C 20 %
4193 25-05-2017 22:40:17 17.2 C 20 %
4194 25-05-2017 22:52:17 16.4 C 20 %
4195 25-05-2017 23:04:17 16.4 C 20 %
4196 25-05-2017 23:16:17 16 C 20 %
4197 25-05-2017 23:28:17 15.6 C 20 %
4198 25-05-2017 23:40:17 15.1 C 20 %
4199 25-05-2017 23:52:17 14.8 C 20 %
4200 26-05-2017 00:04:17 14.5 C 20 %
Sensor: Nr:Datum:Temp:Feuchte:
Aussen-T/F 4201 26-05-2017 00:16:17 14.3 C 20 %
4202 26-05-2017 00:28:17 14.1 C 20 %
4203 26-05-2017 00:40:17 14.1 C 20 %
4204 26-05-2017 00:52:17 13.5 C 20 %
4205 26-05-2017 01:04:17 13.5 C 20 %
4206 26-05-2017 01:16:17 13.5 C 20 %
4207 26-05-2017 01:28:17 12.8 C 21 %
4208 26-05-2017 01:40:17 12.6 C 24 %
4209 26-05-2017 01:52:17 12.5 C 25 %
4210 26-05-2017 02:04:17 12.2 C 25 %
4211 26-05-2017 02:16:17 12.1 C 26 %
4212 26-05-2017 02:28:17 12 C 27 %
4213 26-05-2017 02:40:17 11.7 C 28 %
4214 26-05-2017 02:52:17 11.7 C 29 %
4215 26-05-2017 03:04:17 11.7 C 29 %
4216 26-05-2017 03:16:17 11.3 C 30 %
4217 26-05-2017 03:28:17 11.3 C 30 %
4218 26-05-2017 03:40:17 11 C 31 %
4219 26-05-2017 03:52:17 11.1 C 32 %
4220 26-05-2017 04:04:17 11.1 C 32 %
4221 26-05-2017 04:16:17 11.1 C 32 %
4222 26-05-2017 04:28:17 10.8 C 34 %
4223 26-05-2017 04:40:17 10.5 C 35 %
4224 26-05-2017 04:52:17 10.5 C 35 %
4225 26-05-2017 05:04:17 10.5 C 35 %
Sensor: Nr:Datum:Temp:Feuchte:
Aussen-T/F 4226 26-05-2017 05:16:18 10.5 C 35 %
4227 26-05-2017 05:28:18 10.4 C 37 %
4228 26-05-2017 05:40:17 10.4 C 37 %
4229 26-05-2017 05:52:17 10.2 C 37 %
4230 26-05-2017 06:04:17 10.2 C 38 %
4231 26-05-2017 06:16:17 10.2 C 38 %
4232 26-05-2017 06:28:17 10.2 C 38 %
4233 26-05-2017 06:40:17 10.4 C 38 %
4234 26-05-2017 06:52:17 10.5 C 39 %
4235 26-05-2017 07:04:17 10.6 C 39 %
4236 26-05-2017 07:16:17 10.7 C 39 %
4237 26-05-2017 07:28:17 10.9 C 40 %
4238 26-05-2017 07:40:17 11.1 C 39 %
4239 26-05-2017 07:52:17 11.4 C 39 %
4240 26-05-2017 08:04:17 11.4 C 39 %
4241 26-05-2017 08:16:17 11.9 C 39 %
4242 26-05-2017 08:28:17 12.4 C 38 %
4243 26-05-2017 08:40:17 12.8 C 38 %
4244 26-05-2017 08:52:17 13.4 C 37 %
4245 26-05-2017 09:04:17 14.9 C 34 %
4246 26-05-2017 09:16:17 16.1 C 25 %
4247 26-05-2017 09:28:17 16.6 C 20 %
4248 26-05-2017 09:40:17 16.6 C 20 %
4249 26-05-2017 09:52:17 16.6 C 20 %
4250 26-05-2017 10:04:17 16.6 C 20 %
Sensor: Nr:Datum:Temp:Feuchte:
Aussen-T/F 4251 26-05-2017 10:16:17 16.6 C 20 %
4252 26-05-2017 10:28:17 16.6 C 20 %
4253 26-05-2017 10:40:17 16.6 C 20 %
4254 26-05-2017 10:52:17 16.6 C 20 %
4255 26-05-2017 11:04:17 16.6 C 20 %
4256 26-05-2017 11:16:17 16.6 C 20 %
4257 26-05-2017 11:28:17 16.6 C 20 %
4258 26-05-2017 11:40:17 22.3 C 20 %
4259 26-05-2017 11:52:17 22.3 C 20 %
4260 26-05-2017 12:04:17 22.3 C 20 %
4261 26-05-2017 12:16:17 21.8 C 20 %
4262 26-05-2017 12:28:17 21.9 C 20 %
4263 26-05-2017 12:40:17 22.1 C 20 %
4264 26-05-2017 12:52:17 22.7 C 20 %
4265 26-05-2017 13:04:18 23.3 C 20 %
4266 26-05-2017 13:16:17 23 C 20 %
4267 26-05-2017 13:28:17 23 C 20 %
4268 26-05-2017 13:40:17 23.1 C 20 %
4269 26-05-2017 13:52:17 23.8 C 20 %
4270 26-05-2017 14:04:17 24.4 C 20 %
4271 26-05-2017 14:16:17 25.5 C 20 %
4272 26-05-2017 14:28:17 26.2 C 20 %
4273 26-05-2017 14:40:17 30.8 C 20 %
4274 26-05-2017 14:52:17 32 C 20 %
4275 26-05-2017 15:04:17 28.5 C 20 %
Sensor: Nr:Datum:Temp:Feuchte:
Aussen-T/F 4276 26-05-2017 15:16:17 27.2 C 20 %
4277 26-05-2017 15:28:17 27.9 C 20 %
4278 26-05-2017 15:40:17 28.3 C 20 %
4279 26-05-2017 15:52:17 28.3 C 20 %
4280 26-05-2017 16:04:17 28.4 C 20 %
4281 26-05-2017 16:16:17 29 C 20 %
4282 26-05-2017 16:28:17 29.3 C 20 %
4283 26-05-2017 16:40:17 32.3 C 20 %
4284 26-05-2017 16:52:17 32.8 C 20 %
4285 26-05-2017 17:04:17 31.4 C 20 %
4286 26-05-2017 17:16:17 31.4 C 20 %
4287 26-05-2017 17:28:17 31.4 C 20 %
4288 26-05-2017 17:40:17 39.3 C 20 %
4289 26-05-2017 17:52:17 38.5 C 20 %
4290 26-05-2017 18:04:17 38.5 C 20 %
4291 26-05-2017 18:16:17 37.3 C 20 %
4292 26-05-2017 18:28:17 37.3 C 20 %
4293 26-05-2017 18:40:17 37.3 C 20 %
4294 26-05-2017 18:52:17 37.3 C 20 %
4295 26-05-2017 19:04:17 39.2 C 20 %
4296 26-05-2017 19:16:17 37 C 20 %
4297 26-05-2017 19:28:17 37 C 20 %
4298 26-05-2017 19:40:17 28.1 C 20 %
4299 26-05-2017 19:52:17 26.7 C 20 %
4300 26-05-2017 20:04:17 26.1 C 20 %
Sensor: Nr:Datum:Temp:Feuchte:
Aussen-T/F 4301 26-05-2017 20:16:17 25.7 C 20 %
4302 26-05-2017 20:28:17 25 C 20 %
4303 26-05-2017 20:40:17 24.4 C 20 %
4304 26-05-2017 20:52:17 23 C 20 %
4305 26-05-2017 21:04:17 22.2 C 20 %
4306 26-05-2017 21:16:17 20.6 C 20 %
4307 26-05-2017 21:28:17 20.1 C 20 %
4308 26-05-2017 21:40:17 19.4 C 20 %
4309 26-05-2017 21:52:17 19.3 C 20 %
4310 26-05-2017 22:04:17 18.9 C 20 %
4311 26-05-2017 22:16:17 18.5 C 20 %
4312 26-05-2017 22:28:17 18.3 C 20 %
4313 26-05-2017 22:40:17 18.1 C 20 %
4314 26-05-2017 22:52:17 17.6 C 20 %
4315 26-05-2017 23:04:17 17.2 C 20 %
4316 26-05-2017 23:16:17 16.5 C 20 %
4317 26-05-2017 23:28:18 16.4 C 20 %
4318 26-05-2017 23:40:17 16 C 20 %
4319 26-05-2017 23:52:17 15.9 C 20 %
4320 27-05-2017 00:04:17 15.6 C 20 %
4321 27-05-2017 00:16:18 15.5 C 20 %
4322 27-05-2017 00:28:18 15.1 C 20 %
4323 27-05-2017 00:40:17 15 C 20 %
4324 27-05-2017 00:52:17 14.6 C 22 %
4325 27-05-2017 01:04:17 14.4 C 23 %
Sensor: Nr:Datum:Temp:Feuchte:
Aussen-T/F 4326 27-05-2017 01:16:17 14.2 C 25 %
4327 27-05-2017 01:28:17 14 C 25 %
4328 27-05-2017 01:40:17 13.9 C 26 %
4329 27-05-2017 01:52:17 13.8 C 27 %
4330 27-05-2017 02:04:17 13.5 C 28 %
4331 27-05-2017 02:16:17 13.4 C 29 %
4332 27-05-2017 02:28:17 13.3 C 29 %
4333 27-05-2017 02:40:17 13.3 C 29 %
4334 27-05-2017 02:52:17 13.4 C 30 %
4335 27-05-2017 03:04:17 12.9 C 31 %
4336 27-05-2017 03:16:17 12.8 C 31 %
4337 27-05-2017 03:28:17 12.7 C 32 %
4338 27-05-2017 03:40:17 12.5 C 32 %
4339 27-05-2017 03:52:17 12.4 C 32 %
4340 27-05-2017 04:04:17 12.3 C 33 %
4341 27-05-2017 04:16:17 12.4 C 34 %
4342 27-05-2017 04:28:17 12.2 C 35 %
4343 27-05-2017 04:40:17 12 C 35 %
4344 27-05-2017 04:52:17 12 C 35 %
4345 27-05-2017 05:04:17 11.7 C 35 %
4346 27-05-2017 05:16:17 11.7 C 36 %
4347 27-05-2017 05:28:17 11.6 C 36 %
4348 27-05-2017 05:40:17 11.6 C 36 %
4349 27-05-2017 05:52:17 11.5 C 37 %
4350 27-05-2017 06:04:17 11.4 C 37 %
Sensor: Nr:Datum:Temp:Feuchte:
Aussen-T/F 4351 27-05-2017 06:16:16 11.6 C 38 %
4352 27-05-2017 06:28:17 11.6 C 38 %
4353 27-05-2017 06:40:17 11.7 C 38 %
4354 27-05-2017 06:52:17 11.9 C 39 %
4355 27-05-2017 07:04:17 11.9 C 39 %
4356 27-05-2017 07:16:17 11.9 C 39 %
4357 27-05-2017 07:28:17 12.2 C 38 %
4358 27-05-2017 07:40:17 12.3 C 38 %
4359 27-05-2017 07:52:17 12.8 C 38 %
4360 27-05-2017 08:04:17 12.8 C 38 %
4361 27-05-2017 08:16:17 13.3 C 37 %
4362 27-05-2017 08:28:17 13.5 C 37 %
4363 27-05-2017 08:40:17 14 C 36 %
4364 27-05-2017 08:52:17 14.7 C 35 %
4365 27-05-2017 09:04:17 15 C 34 %
4366 27-05-2017 09:16:17 16.2 C 30 %
4367 27-05-2017 09:28:17 17 C 26 %
4368 27-05-2017 09:40:17 17 C 26 %
4369 27-05-2017 09:52:17 19.2 C 20 %
4370 27-05-2017 10:04:17 19.8 C 20 %
4371 27-05-2017 10:16:17 19.9 C 20 %
4372 27-05-2017 10:28:17 20.2 C 20 %
4373 27-05-2017 10:40:17 24.4 C 20 %
4374 27-05-2017 10:52:17 24.7 C 20 %
4375 27-05-2017 11:04:17 24.8 C 20 %
Sensor: Nr:Datum:Temp:Feuchte:
Aussen-T/F 4376 27-05-2017 11:16:17 24.8 C 20 %
4377 27-05-2017 11:28:17 25.7 C 20 %
4378 27-05-2017 11:40:17 26.5 C 20 %
4379 27-05-2017 11:52:17 26 C 20 %
4380 27-05-2017 12:04:18 25.3 C 20 %
4381 27-05-2017 12:16:17 25.2 C 20 %
4382 27-05-2017 12:28:17 25.4 C 20 %
4383 27-05-2017 12:40:17 25.2 C 20 %
4384 27-05-2017 12:52:17 25.9 C 20 %
4385 27-05-2017 13:04:17 26.5 C 20 %
4386 27-05-2017 13:16:17 26.4 C 20 %
4387 27-05-2017 13:28:17 26.4 C 20 %
4388 27-05-2017 13:40:17 26.6 C 20 %
4389 27-05-2017 13:52:17 26.8 C 20 %
4390 27-05-2017 14:04:17 27.3 C 20 %
4391 27-05-2017 14:16:17 28.5 C 20 %
4392 27-05-2017 14:28:17 29.2 C 20 %
4393 27-05-2017 14:40:17 34.1 C 20 %
4394 27-05-2017 14:52:17 36.8 C 20 %
4395 27-05-2017 15:04:17 36 C 20 %
4396 27-05-2017 15:16:17 36 C 20 %
4397 27-05-2017 15:28:17 34.5 C 20 %
4398 27-05-2017 15:40:17 33.5 C 20 %
4399 27-05-2017 15:52:17 32.8 C 20 %
4400 27-05-2017 16:04:17 32.7 C 20 %
Sensor: Nr:Datum:Temp:Feuchte:
Aussen-T/F 4401 27-05-2017 16:16:17 32.9 C 20 %
4402 27-05-2017 16:28:17 33.1 C 20 %
4403 27-05-2017 16:40:17 35.6 C 20 %
4404 27-05-2017 16:52:17 37.1 C 20 %
4405 27-05-2017 17:04:17 35.6 C 20 %
4406 27-05-2017 17:16:17 35.3 C 20 %
4407 27-05-2017 17:28:17 36 C 20 %
4408 27-05-2017 17:40:17 42.9 C 20 %
4409 27-05-2017 17:52:17 42.9 C 20 %
4410 27-05-2017 18:04:17 45.2 C 20 %
4411 27-05-2017 18:16:17 44.8 C 20 %
4412 27-05-2017 18:28:17 45 C 20 %
4413 27-05-2017 18:40:17 44.1 C 20 %
4414 27-05-2017 18:52:17 43.2 C 20 %
4415 27-05-2017 19:04:17 43.4 C 20 %
4416 27-05-2017 19:16:17 42.6 C 20 %
4417 27-05-2017 19:28:17 37.4 C 20 %
4418 27-05-2017 19:40:17 37.4 C 20 %
4419 27-05-2017 19:52:17 37.4 C 20 %
4420 27-05-2017 20:04:17 27.5 C 20 %
4421 27-05-2017 20:16:17 26.3 C 20 %
4422 27-05-2017 20:28:17 25.6 C 20 %
4423 27-05-2017 20:40:17 25.6 C 20 %
4424 27-05-2017 20:52:17 24.2 C 20 %
4425 27-05-2017 21:04:17 23 C 20 %
Sensor: Nr:Datum:Temp:Feuchte:
Aussen-T/F 4426 27-05-2017 21:16:17 22.3 C 20 %
4427 27-05-2017 21:28:17 21.8 C 20 %
4428 27-05-2017 21:40:17 21.5 C 20 %
4429 27-05-2017 21:52:17 21.4 C 20 %
4430 27-05-2017 22:04:17 20.7 C 20 %
4431 27-05-2017 22:16:17 20.4 C 20 %
4432 27-05-2017 22:28:17 20.2 C 20 %
4433 27-05-2017 22:40:17 20.2 C 20 %
4434 27-05-2017 22:52:17 19.5 C 20 %
4435 27-05-2017 23:04:17 19.3 C 20 %
4436 27-05-2017 23:16:17 19.3 C 20 %
4437 27-05-2017 23:28:17 19.3 C 20 %
4438 27-05-2017 23:40:17 19 C 20 %
4439 27-05-2017 23:52:17 18.7 C 20 %
4440 28-05-2017 00:04:17 18.4 C 20 %
4441 28-05-2017 00:16:17 18.3 C 20 %
4442 28-05-2017 00:28:17 18.2 C 20 %
4443 28-05-2017 00:40:17 17.9 C 20 %
4444 28-05-2017 00:52:17 17.6 C 20 %
4445 28-05-2017 01:04:17 17.3 C 20 %
4446 28-05-2017 01:16:18 17.1 C 20 %
4447 28-05-2017 01:28:18 16.8 C 20 %
4448 28-05-2017 01:40:17 16.6 C 20 %
4449 28-05-2017 01:52:17 16.4 C 20 %
4450 28-05-2017 02:04:17 16.2 C 20 %
Sensor: Nr:Datum:Temp:Feuchte:
Aussen-T/F 4451 28-05-2017 02:16:17 16.2 C 20 %
4452 28-05-2017 02:28:17 16 C 20 %
4453 28-05-2017 02:40:17 15.8 C 20 %
4454 28-05-2017 02:52:17 15.7 C 21 %
4455 28-05-2017 03:04:17 15.3 C 22 %
4456 28-05-2017 03:16:17 15.1 C 23 %
4457 28-05-2017 03:28:17 15.1 C 24 %
4458 28-05-2017 03:40:17 14.9 C 25 %
4459 28-05-2017 03:52:17 14.9 C 25 %
4460 28-05-2017 04:04:17 14.8 C 26 %
4461 28-05-2017 04:16:17 14.7 C 26 %
4462 28-05-2017 04:28:17 14.9 C 26 %
4463 28-05-2017 04:40:17 14.6 C 25 %
4464 28-05-2017 04:52:17 14.4 C 26 %
4465 28-05-2017 05:04:17 14.3 C 27 %
4466 28-05-2017 05:16:17 14.2 C 27 %
4467 28-05-2017 05:28:17 14.1 C 28 %
4468 28-05-2017 05:40:17 14.2 C 29 %
4469 28-05-2017 05:52:17 14.4 C 30 %
4470 28-05-2017 06:04:17 14.4 C 29 %
4471 28-05-2017 06:16:17 14.7 C 29 %
4472 28-05-2017 06:28:17 14.8 C 29 %
4473 28-05-2017 06:40:17 14.9 C 29 %
4474 28-05-2017 06:52:17 15 C 28 %
4475 28-05-2017 07:04:17 15.5 C 28 %
Sensor: Nr:Datum:Temp:Feuchte:
Aussen-T/F 4476 28-05-2017 07:16:17 15.5 C 28 %
4477 28-05-2017 07:28:17 16.1 C 27 %
4478 28-05-2017 07:40:17 16.3 C 27 %
4479 28-05-2017 07:52:17 16.8 C 26 %
4480 28-05-2017 08:04:17 16.8 C 26 %
4481 28-05-2017 08:16:17 16.8 C 26 %
4482 28-05-2017 08:28:17 16.8 C 26 %
4483 28-05-2017 08:40:17 19 C 20 %
4484 28-05-2017 08:52:17 19.3 C 20 %
4485 28-05-2017 09:04:17 19.6 C 20 %
4486 28-05-2017 09:16:17 20 C 20 %
4487 28-05-2017 09:28:17 20.7 C 20 %
4488 28-05-2017 09:40:17 21.7 C 20 %
4489 28-05-2017 09:52:17 21.7 C 20 %
4490 28-05-2017 10:04:17 22.2 C 20 %
4491 28-05-2017 10:16:17 22.3 C 20 %
4492 28-05-2017 10:28:17 23.5 C 20 %
4493 28-05-2017 10:40:17 27.5 C 20 %
4494 28-05-2017 10:52:17 27.2 C 20 %
4495 28-05-2017 11:04:17 27.3 C 20 %
4496 28-05-2017 11:16:17 26.3 C 20 %
4497 28-05-2017 11:28:17 27 C 20 %
4498 28-05-2017 11:40:17 27.5 C 20 %
4499 28-05-2017 11:52:17 27.7 C 20 %
4500 28-05-2017 12:04:17 27.7 C 20 %
Sensor: Nr:Datum:Temp:Feuchte:
Aussen-T/F 4501 28-05-2017 12:16:17 28.3 C 20 %
4502 28-05-2017 12:28:17 29.1 C 20 %
4503 28-05-2017 12:40:17 30 C 20 %
4504 28-05-2017 12:52:16 31.1 C 20 %
4505 28-05-2017 13:04:18 32.1 C 20 %
4506 28-05-2017 13:16:16 32.4 C 20 %
4507 28-05-2017 13:28:17 30.9 C 20 %
4508 28-05-2017 13:40:17 30.2 C 20 %
4509 28-05-2017 13:52:17 29.8 C 20 %
4510 28-05-2017 14:04:17 30.5 C 20 %
4511 28-05-2017 14:16:17 30.5 C 20 %
4512 28-05-2017 14:28:17 31.7 C 20 %
4513 28-05-2017 14:40:17 34.8 C 20 %
4514 28-05-2017 14:52:17 35.4 C 20 %
4515 28-05-2017 15:04:17 37.2 C 20 %
4516 28-05-2017 15:16:17 37.2 C 20 %
4517 28-05-2017 15:28:17 36.4 C 20 %
4518 28-05-2017 15:40:17 35.7 C 20 %
4519 28-05-2017 15:52:17 35.7 C 20 %
4520 28-05-2017 16:04:17 33.2 C 20 %
4521 28-05-2017 16:16:17 33.2 C 20 %
4522 28-05-2017 16:28:17 27.2 C 20 %
4523 28-05-2017 16:40:17 28 C 20 %
4524 28-05-2017 16:52:17 26.3 C 20 %
4525 28-05-2017 17:04:17 25.7 C 20 %
Sensor: Nr:Datum:Temp:Feuchte:
Aussen-T/F 4526 28-05-2017 17:16:18 25.4 C 20 %
4527 28-05-2017 17:28:18 25 C 20 %
4528 28-05-2017 17:40:17 24.3 C 20 %
4529 28-05-2017 17:52:17 23.8 C 20 %
4530 28-05-2017 18:04:17 23.9 C 20 %
4531 28-05-2017 18:16:17 23.6 C 20 %
4532 28-05-2017 18:28:17 23.4 C 20 %
4533 28-05-2017 18:40:17 23.7 C 20 %
4534 28-05-2017 18:52:17 24 C 20 %
4535 28-05-2017 19:04:17 23.8 C 20 %
4536 28-05-2017 19:16:17 23.7 C 20 %
4537 28-05-2017 19:28:17 23.4 C 20 %
4538 28-05-2017 19:40:17 22.9 C 20 %
4539 28-05-2017 19:52:17 21.3 C 26 %
4540 28-05-2017 20:04:18 20.6 C 31 %
4541 28-05-2017 20:16:17 20.3 C 34 %
4542 28-05-2017 20:28:17 20.6 C 36 %
4543 28-05-2017 20:40:17 20.8 C 37 %
4544 28-05-2017 20:52:17 20.7 C 37 %
4545 28-05-2017 21:04:17 20.3 C 37 %
4546 28-05-2017 21:16:17 20 C 37 %
4547 28-05-2017 21:28:17 19.8 C 38 %
4548 28-05-2017 21:40:17 19.6 C 39 %
4549 28-05-2017 21:52:17 19.4 C 39 %
4550 28-05-2017 22:04:17 19.2 C 40 %
Sensor: Nr:Datum:Temp:Feuchte:
Aussen-T/F 4551 28-05-2017 22:16:17 19 C 40 %
4552 28-05-2017 22:28:17 18.9 C 40 %
4553 28-05-2017 22:40:17 18.5 C 41 %
4554 28-05-2017 22:52:17 18.3 C 41 %
4555 28-05-2017 23:04:17 18.2 C 42 %
4556 28-05-2017 23:16:17 18.2 C 44 %
4557 28-05-2017 23:28:17 18 C 43 %
4558 28-05-2017 23:40:17 17.9 C 44 %
4559 28-05-2017 23:52:17 17.8 C 45 %
4560 29-05-2017 00:04:17 17.7 C 45 %
4561 29-05-2017 00:16:17 17.5 C 44 %
4562 29-05-2017 00:28:17 17.5 C 45 %
4563 29-05-2017 00:40:17 17.4 C 45 %
4564 29-05-2017 00:52:17 17.3 C 47 %
4565 29-05-2017 01:04:17 17.1 C 47 %
4566 29-05-2017 01:16:17 16.9 C 47 %
4567 29-05-2017 01:28:17 16.9 C 50 %
4568 29-05-2017 01:40:17 16.7 C 50 %
4569 29-05-2017 01:52:17 16.6 C 51 %
4570 29-05-2017 02:04:17 16.5 C 53 %
4571 29-05-2017 02:16:17 16.4 C 53 %
4572 29-05-2017 02:28:17 16.2 C 53 %
4573 29-05-2017 02:40:17 16.1 C 54 %
4574 29-05-2017 02:52:17 16 C 54 %
4575 29-05-2017 03:04:17 15.9 C 55 %
Sensor: Nr:Datum:Temp:Feuchte:
Aussen-T/F 4576 29-05-2017 03:16:17 15.8 C 56 %
4577 29-05-2017 03:28:17 15.8 C 57 %
4578 29-05-2017 03:40:17 15.8 C 58 %
4579 29-05-2017 03:52:17 16 C 59 %
4580 29-05-2017 04:04:17 16.2 C 60 %
4581 29-05-2017 04:16:17 16.4 C 61 %
4582 29-05-2017 04:28:17 16.7 C 62 %
4583 29-05-2017 04:40:17 16.8 C 62 %
4584 29-05-2017 04:52:17 16.7 C 62 %
4585 29-05-2017 05:04:17 16.7 C 61 %
4586 29-05-2017 05:16:17 16.7 C 61 %
4587 29-05-2017 05:28:17 16.8 C 61 %
4588 29-05-2017 05:40:17 16.8 C 61 %
4589 29-05-2017 05:52:17 16.8 C 61 %
4590 29-05-2017 06:04:17 16.9 C 60 %
4591 29-05-2017 06:16:17 16.8 C 60 %
4592 29-05-2017 06:28:17 17 C 60 %
4593 29-05-2017 06:40:17 17.3 C 60 %
4594 29-05-2017 06:52:17 17.3 C 59 %
4595 29-05-2017 07:04:17 17.2 C 57 %
4596 29-05-2017 07:16:17 17.2 C 56 %
4597 29-05-2017 07:28:17 17.1 C 54 %
4598 29-05-2017 07:40:17 17.1 C 53 %
4599 29-05-2017 07:52:17 17.2 C 54 %
4600 29-05-2017 08:04:17 17.2 C 54 %
Sensor: Nr:Datum:Temp:Feuchte:
Aussen-T/F 4601 29-05-2017 08:16:16 17.6 C 56 %
4602 29-05-2017 08:28:16 17.7 C 56 %
4603 29-05-2017 08:40:17 17.7 C 56 %
4604 29-05-2017 08:52:17 18.2 C 52 %
4605 29-05-2017 09:04:17 18.3 C 51 %
4606 29-05-2017 09:16:17 19 C 51 %
4607 29-05-2017 09:28:17 20 C 45 %
4608 29-05-2017 09:40:17 20.8 C 45 %
4609 29-05-2017 09:52:17 20.8 C 45 %
4610 29-05-2017 10:04:17 21.6 C 29 %
4611 29-05-2017 10:16:17 21.3 C 26 %
4612 29-05-2017 10:28:17 23.5 C 20 %
4613 29-05-2017 10:40:17 24.6 C 20 %
4614 29-05-2017 10:52:17 24.6 C 20 %
4615 29-05-2017 11:04:18 24.8 C 20 %
4616 29-05-2017 11:16:17 25 C 20 %
4617 29-05-2017 11:28:17 25.2 C 20 %
4618 29-05-2017 11:40:17 26.2 C 20 %
4619 29-05-2017 11:52:17 26.2 C 20 %
4620 29-05-2017 12:04:17 26.1 C 20 %
4621 29-05-2017 12:16:17 26 C 20 %
4622 29-05-2017 12:28:17 26.1 C 20 %
4623 29-05-2017 12:40:17 26.7 C 20 %
4624 29-05-2017 12:52:17 27 C 20 %
4625 29-05-2017 13:04:17 27.7 C 20 %
Sensor: Nr:Datum:Temp:Feuchte:
Aussen-T/F 4626 29-05-2017 13:16:17 27.3 C 20 %
4627 29-05-2017 13:28:17 27.7 C 20 %
4628 29-05-2017 13:40:18 28.1 C 20 %
4629 29-05-2017 13:52:17 28.6 C 20 %
4630 29-05-2017 14:04:17 29.3 C 20 %
4631 29-05-2017 14:16:17 30.4 C 20 %
4632 29-05-2017 14:28:17 30.7 C 20 %
4633 29-05-2017 14:40:17 34.9 C 20 %
4634 29-05-2017 14:52:17 36.7 C 20 %
4635 29-05-2017 15:04:17 37.9 C 20 %
4636 29-05-2017 15:16:17 37.3 C 20 %
4637 29-05-2017 15:28:17 35.9 C 20 %
4638